<?xml version="1.0" encoding="UTF-8" standalone="no" ?>
<gpx xmlns="http://www.topografix.com/GPX/1/1" xmlns:xsi="http://www.w3.org/2001/XMLSchema-instance" xsi:schemaLocation="http://www.topografix.com/GPX/1/1 http://www.topografix.com/GPX/1/1/gpx.xsd" version="1.1" creator="VisuGPX - https://www.visugpx.com">
  <metadata>
    <name>Le Lambon 9 km</name>
  </metadata>
  <wpt lat="46.30219" lon="-0.22354">
    <ele>132.5</ele>
  </wpt>
  <wpt lat="46.30829" lon="-0.23085">
    <ele>121.2</ele>
  </wpt>
  <wpt lat="46.30925" lon="-0.23034">
    <ele>123.8</ele>
  </wpt>
  <wpt lat="46.30937" lon="-0.22774">
    <ele>135.2</ele>
  </wpt>
  <wpt lat="46.29551" lon="-0.20179">
    <ele>110.3</ele>
  </wpt>
  <wpt lat="46.29885" lon="-0.20723">
    <ele>106.6</ele>
  </wpt>
  <wpt lat="46.29885" lon="-0.20723">
    <ele>106.6</ele>
  </wpt>
  <wpt lat="46.29902" lon="-0.2074">
    <ele>107</ele>
  </wpt>
  <trk>
    <name><![CDATA[Le Lambon 9 km_1]]></name>
    <trkseg>
      <trkpt lat="46.30061" lon="-0.20916">
        <ele>128</ele>
        <time>2017-10-31T14:08:58Z</time>
      </trkpt>
      <trkpt lat="46.30061" lon="-0.20917">
        <ele>128</ele>
        <time>2017-10-31T14:08:58Z</time>
      </trkpt>
      <trkpt lat="46.30056" lon="-0.20916">
        <ele>128</ele>
        <time>2017-10-31T14:08:58Z</time>
      </trkpt>
      <trkpt lat="46.30054" lon="-0.20917">
        <ele>128</ele>
        <time>2017-10-31T14:08:58Z</time>
      </trkpt>
      <trkpt lat="46.30051" lon="-0.20919">
        <ele>128</ele>
        <time>2017-10-31T14:08:58Z</time>
      </trkpt>
      <trkpt lat="46.30048" lon="-0.20919">
        <ele>128</ele>
        <time>2017-10-31T14:09:26Z</time>
      </trkpt>
      <trkpt lat="46.30045" lon="-0.20918">
        <ele>128</ele>
        <time>2017-10-31T14:09:26Z</time>
      </trkpt>
      <trkpt lat="46.30045" lon="-0.20919">
        <ele>128</ele>
        <time>2017-10-31T14:09:26Z</time>
      </trkpt>
      <trkpt lat="46.30042" lon="-0.20931">
        <ele>128</ele>
        <time>2017-10-31T14:09:26Z</time>
      </trkpt>
      <trkpt lat="46.3004" lon="-0.20936">
        <ele>118</ele>
        <time>2017-10-31T14:09:42Z</time>
      </trkpt>
      <trkpt lat="46.30038" lon="-0.20941">
        <ele>118</ele>
        <time>2017-10-31T14:09:42Z</time>
      </trkpt>
      <trkpt lat="46.30035" lon="-0.20946">
        <ele>118</ele>
        <time>2017-10-31T14:09:42Z</time>
      </trkpt>
      <trkpt lat="46.30033" lon="-0.2095">
        <ele>118</ele>
        <time>2017-10-31T14:09:42Z</time>
      </trkpt>
      <trkpt lat="46.30032" lon="-0.20955">
        <ele>118</ele>
        <time>2017-10-31T14:09:58Z</time>
      </trkpt>
      <trkpt lat="46.30028" lon="-0.2096">
        <ele>122</ele>
        <time>2017-10-31T14:09:58Z</time>
      </trkpt>
      <trkpt lat="46.30026" lon="-0.20964">
        <ele>122</ele>
        <time>2017-10-31T14:09:58Z</time>
      </trkpt>
      <trkpt lat="46.30023" lon="-0.20967">
        <ele>122</ele>
        <time>2017-10-31T14:09:58Z</time>
      </trkpt>
      <trkpt lat="46.30021" lon="-0.20971">
        <ele>122</ele>
        <time>2017-10-31T14:10:14Z</time>
      </trkpt>
      <trkpt lat="46.30018" lon="-0.20977">
        <ele>122</ele>
        <time>2017-10-31T14:10:14Z</time>
      </trkpt>
      <trkpt lat="46.30017" lon="-0.20982">
        <ele>122</ele>
        <time>2017-10-31T14:10:14Z</time>
      </trkpt>
      <trkpt lat="46.30016" lon="-0.20987">
        <ele>122</ele>
        <time>2017-10-31T14:10:14Z</time>
      </trkpt>
      <trkpt lat="46.30015" lon="-0.20991">
        <ele>122</ele>
        <time>2017-10-31T14:10:30Z</time>
      </trkpt>
      <trkpt lat="46.30012" lon="-0.20997">
        <ele>122</ele>
        <time>2017-10-31T14:10:30Z</time>
      </trkpt>
      <trkpt lat="46.30008" lon="-0.21003">
        <ele>122</ele>
        <time>2017-10-31T14:10:30Z</time>
      </trkpt>
      <trkpt lat="46.30005" lon="-0.21009">
        <ele>122</ele>
        <time>2017-10-31T14:10:30Z</time>
      </trkpt>
      <trkpt lat="46.30001" lon="-0.21016">
        <ele>122</ele>
        <time>2017-10-31T14:10:46Z</time>
      </trkpt>
      <trkpt lat="46.29998" lon="-0.21021">
        <ele>122</ele>
        <time>2017-10-31T14:10:46Z</time>
      </trkpt>
      <trkpt lat="46.29995" lon="-0.21026">
        <ele>122</ele>
        <time>2017-10-31T14:10:46Z</time>
      </trkpt>
      <trkpt lat="46.29992" lon="-0.21032">
        <ele>122</ele>
        <time>2017-10-31T14:10:46Z</time>
      </trkpt>
      <trkpt lat="46.29988" lon="-0.21037">
        <ele>122</ele>
        <time>2017-10-31T14:11:02Z</time>
      </trkpt>
      <trkpt lat="46.29986" lon="-0.21042">
        <ele>129</ele>
        <time>2017-10-31T14:11:02Z</time>
      </trkpt>
      <trkpt lat="46.29984" lon="-0.21046">
        <ele>129</ele>
        <time>2017-10-31T14:11:02Z</time>
      </trkpt>
      <trkpt lat="46.29982" lon="-0.21051">
        <ele>129</ele>
        <time>2017-10-31T14:11:02Z</time>
      </trkpt>
      <trkpt lat="46.29978" lon="-0.21057">
        <ele>129</ele>
        <time>2017-10-31T14:11:18Z</time>
      </trkpt>
      <trkpt lat="46.29976" lon="-0.21063">
        <ele>129</ele>
        <time>2017-10-31T14:11:18Z</time>
      </trkpt>
      <trkpt lat="46.29974" lon="-0.21068">
        <ele>129</ele>
        <time>2017-10-31T14:11:18Z</time>
      </trkpt>
      <trkpt lat="46.29972" lon="-0.21073">
        <ele>129</ele>
        <time>2017-10-31T14:11:18Z</time>
      </trkpt>
      <trkpt lat="46.29969" lon="-0.21078">
        <ele>129</ele>
        <time>2017-10-31T14:11:34Z</time>
      </trkpt>
      <trkpt lat="46.29966" lon="-0.21083">
        <ele>129</ele>
        <time>2017-10-31T14:11:34Z</time>
      </trkpt>
      <trkpt lat="46.29964" lon="-0.21088">
        <ele>129</ele>
        <time>2017-10-31T14:11:34Z</time>
      </trkpt>
      <trkpt lat="46.29961" lon="-0.21092">
        <ele>129</ele>
        <time>2017-10-31T14:11:34Z</time>
      </trkpt>
      <trkpt lat="46.29958" lon="-0.21098">
        <ele>119</ele>
        <time>2017-10-31T14:11:50Z</time>
      </trkpt>
      <trkpt lat="46.29954" lon="-0.21103">
        <ele>119</ele>
        <time>2017-10-31T14:11:50Z</time>
      </trkpt>
      <trkpt lat="46.29952" lon="-0.21109">
        <ele>119</ele>
        <time>2017-10-31T14:11:50Z</time>
      </trkpt>
      <trkpt lat="46.29949" lon="-0.21116">
        <ele>119</ele>
        <time>2017-10-31T14:11:50Z</time>
      </trkpt>
      <trkpt lat="46.29946" lon="-0.21123">
        <ele>119</ele>
        <time>2017-10-31T14:12:06Z</time>
      </trkpt>
      <trkpt lat="46.29943" lon="-0.21129">
        <ele>126</ele>
        <time>2017-10-31T14:12:06Z</time>
      </trkpt>
      <trkpt lat="46.29941" lon="-0.21132">
        <ele>126</ele>
        <time>2017-10-31T14:12:06Z</time>
      </trkpt>
      <trkpt lat="46.29938" lon="-0.21139">
        <ele>126</ele>
        <time>2017-10-31T14:12:06Z</time>
      </trkpt>
      <trkpt lat="46.29936" lon="-0.21146">
        <ele>126</ele>
        <time>2017-10-31T14:12:22Z</time>
      </trkpt>
      <trkpt lat="46.29935" lon="-0.21151">
        <ele>126</ele>
        <time>2017-10-31T14:12:22Z</time>
      </trkpt>
      <trkpt lat="46.29934" lon="-0.21155">
        <ele>126</ele>
        <time>2017-10-31T14:12:22Z</time>
      </trkpt>
      <trkpt lat="46.29932" lon="-0.21161">
        <ele>126</ele>
        <time>2017-10-31T14:12:22Z</time>
      </trkpt>
      <trkpt lat="46.29931" lon="-0.21169">
        <ele>126</ele>
        <time>2017-10-31T14:12:38Z</time>
      </trkpt>
      <trkpt lat="46.29931" lon="-0.21176">
        <ele>126</ele>
        <time>2017-10-31T14:12:38Z</time>
      </trkpt>
      <trkpt lat="46.29931" lon="-0.21183">
        <ele>126</ele>
        <time>2017-10-31T14:12:38Z</time>
      </trkpt>
      <trkpt lat="46.29931" lon="-0.2119">
        <ele>126</ele>
        <time>2017-10-31T14:12:38Z</time>
      </trkpt>
      <trkpt lat="46.29933" lon="-0.21198">
        <ele>126</ele>
        <time>2017-10-31T14:12:54Z</time>
      </trkpt>
      <trkpt lat="46.29935" lon="-0.21204">
        <ele>126</ele>
        <time>2017-10-31T14:12:54Z</time>
      </trkpt>
      <trkpt lat="46.29937" lon="-0.21209">
        <ele>130</ele>
        <time>2017-10-31T14:12:54Z</time>
      </trkpt>
      <trkpt lat="46.2994" lon="-0.21213">
        <ele>130</ele>
        <time>2017-10-31T14:12:54Z</time>
      </trkpt>
      <trkpt lat="46.29943" lon="-0.21217">
        <ele>130</ele>
        <time>2017-10-31T14:13:10Z</time>
      </trkpt>
      <trkpt lat="46.29946" lon="-0.21222">
        <ele>130</ele>
        <time>2017-10-31T14:13:10Z</time>
      </trkpt>
      <trkpt lat="46.29949" lon="-0.21226">
        <ele>130</ele>
        <time>2017-10-31T14:13:10Z</time>
      </trkpt>
      <trkpt lat="46.29951" lon="-0.2123">
        <ele>130</ele>
        <time>2017-10-31T14:13:10Z</time>
      </trkpt>
      <trkpt lat="46.29954" lon="-0.21235">
        <ele>130</ele>
        <time>2017-10-31T14:13:26Z</time>
      </trkpt>
      <trkpt lat="46.29958" lon="-0.21239">
        <ele>135</ele>
        <time>2017-10-31T14:13:26Z</time>
      </trkpt>
      <trkpt lat="46.29962" lon="-0.21245">
        <ele>135</ele>
        <time>2017-10-31T14:13:26Z</time>
      </trkpt>
      <trkpt lat="46.29963" lon="-0.2125">
        <ele>135</ele>
        <time>2017-10-31T14:13:26Z</time>
      </trkpt>
      <trkpt lat="46.29966" lon="-0.21256">
        <ele>135</ele>
        <time>2017-10-31T14:13:42Z</time>
      </trkpt>
      <trkpt lat="46.29968" lon="-0.21262">
        <ele>135</ele>
        <time>2017-10-31T14:13:42Z</time>
      </trkpt>
      <trkpt lat="46.2997" lon="-0.21268">
        <ele>135</ele>
        <time>2017-10-31T14:13:42Z</time>
      </trkpt>
      <trkpt lat="46.29973" lon="-0.21275">
        <ele>135</ele>
        <time>2017-10-31T14:13:42Z</time>
      </trkpt>
      <trkpt lat="46.29974" lon="-0.21281">
        <ele>135</ele>
        <time>2017-10-31T14:13:58Z</time>
      </trkpt>
      <trkpt lat="46.29975" lon="-0.21287">
        <ele>135</ele>
        <time>2017-10-31T14:13:58Z</time>
      </trkpt>
      <trkpt lat="46.29976" lon="-0.21293">
        <ele>138</ele>
        <time>2017-10-31T14:13:58Z</time>
      </trkpt>
      <trkpt lat="46.29977" lon="-0.21301">
        <ele>138</ele>
        <time>2017-10-31T14:13:58Z</time>
      </trkpt>
      <trkpt lat="46.29979" lon="-0.21309">
        <ele>138</ele>
        <time>2017-10-31T14:14:14Z</time>
      </trkpt>
      <trkpt lat="46.29982" lon="-0.21315">
        <ele>138</ele>
        <time>2017-10-31T14:14:14Z</time>
      </trkpt>
      <trkpt lat="46.29985" lon="-0.21318">
        <ele>138</ele>
        <time>2017-10-31T14:14:14Z</time>
      </trkpt>
      <trkpt lat="46.29989" lon="-0.21321">
        <ele>138</ele>
        <time>2017-10-31T14:14:14Z</time>
      </trkpt>
      <trkpt lat="46.29991" lon="-0.21323">
        <ele>138</ele>
        <time>2017-10-31T14:14:30Z</time>
      </trkpt>
      <trkpt lat="46.29994" lon="-0.21326">
        <ele>138</ele>
        <time>2017-10-31T14:14:30Z</time>
      </trkpt>
      <trkpt lat="46.29997" lon="-0.2133">
        <ele>138</ele>
        <time>2017-10-31T14:14:30Z</time>
      </trkpt>
      <trkpt lat="46.29998" lon="-0.21335">
        <ele>138</ele>
        <time>2017-10-31T14:14:30Z</time>
      </trkpt>
      <trkpt lat="46.29997" lon="-0.2134">
        <ele>138</ele>
        <time>2017-10-31T14:14:46Z</time>
      </trkpt>
      <trkpt lat="46.29994" lon="-0.21345">
        <ele>138</ele>
        <time>2017-10-31T14:14:46Z</time>
      </trkpt>
      <trkpt lat="46.29991" lon="-0.21347">
        <ele>138</ele>
        <time>2017-10-31T14:14:46Z</time>
      </trkpt>
      <trkpt lat="46.29987" lon="-0.21349">
        <ele>138</ele>
        <time>2017-10-31T14:14:46Z</time>
      </trkpt>
      <trkpt lat="46.29983" lon="-0.21351">
        <ele>138</ele>
        <time>2017-10-31T14:15:02Z</time>
      </trkpt>
      <trkpt lat="46.29978" lon="-0.21352">
        <ele>138</ele>
        <time>2017-10-31T14:15:02Z</time>
      </trkpt>
      <trkpt lat="46.29974" lon="-0.21355">
        <ele>138</ele>
        <time>2017-10-31T14:15:02Z</time>
      </trkpt>
      <trkpt lat="46.2997" lon="-0.21358">
        <ele>138</ele>
        <time>2017-10-31T14:15:02Z</time>
      </trkpt>
      <trkpt lat="46.29966" lon="-0.21362">
        <ele>138</ele>
        <time>2017-10-31T14:15:18Z</time>
      </trkpt>
      <trkpt lat="46.29962" lon="-0.21366">
        <ele>138</ele>
        <time>2017-10-31T14:15:18Z</time>
      </trkpt>
      <trkpt lat="46.29959" lon="-0.21372">
        <ele>138</ele>
        <time>2017-10-31T14:15:18Z</time>
      </trkpt>
      <trkpt lat="46.29957" lon="-0.21377">
        <ele>130</ele>
        <time>2017-10-31T14:15:18Z</time>
      </trkpt>
      <trkpt lat="46.29955" lon="-0.21385">
        <ele>130</ele>
        <time>2017-10-31T14:15:34Z</time>
      </trkpt>
      <trkpt lat="46.29953" lon="-0.21395">
        <ele>130</ele>
        <time>2017-10-31T14:15:34Z</time>
      </trkpt>
      <trkpt lat="46.29951" lon="-0.21403">
        <ele>130</ele>
        <time>2017-10-31T14:15:34Z</time>
      </trkpt>
      <trkpt lat="46.29951" lon="-0.21411">
        <ele>130</ele>
        <time>2017-10-31T14:15:34Z</time>
      </trkpt>
      <trkpt lat="46.2995" lon="-0.21418">
        <ele>130</ele>
        <time>2017-10-31T14:15:50Z</time>
      </trkpt>
      <trkpt lat="46.29952" lon="-0.21424">
        <ele>130</ele>
        <time>2017-10-31T14:15:50Z</time>
      </trkpt>
      <trkpt lat="46.29951" lon="-0.2143">
        <ele>130</ele>
        <time>2017-10-31T14:15:50Z</time>
      </trkpt>
      <trkpt lat="46.29952" lon="-0.21435">
        <ele>130</ele>
        <time>2017-10-31T14:15:50Z</time>
      </trkpt>
      <trkpt lat="46.29951" lon="-0.21441">
        <ele>130</ele>
        <time>2017-10-31T14:16:06Z</time>
      </trkpt>
      <trkpt lat="46.29951" lon="-0.21447">
        <ele>130</ele>
        <time>2017-10-31T14:16:06Z</time>
      </trkpt>
      <trkpt lat="46.29952" lon="-0.21451">
        <ele>130</ele>
        <time>2017-10-31T14:16:06Z</time>
      </trkpt>
      <trkpt lat="46.29952" lon="-0.21455">
        <ele>130</ele>
        <time>2017-10-31T14:16:06Z</time>
      </trkpt>
      <trkpt lat="46.2995" lon="-0.21459">
        <ele>131</ele>
        <time>2017-10-31T14:16:22Z</time>
      </trkpt>
      <trkpt lat="46.2995" lon="-0.21465">
        <ele>131</ele>
        <time>2017-10-31T14:16:22Z</time>
      </trkpt>
      <trkpt lat="46.29951" lon="-0.2147">
        <ele>131</ele>
        <time>2017-10-31T14:16:22Z</time>
      </trkpt>
      <trkpt lat="46.29951" lon="-0.21474">
        <ele>131</ele>
        <time>2017-10-31T14:16:22Z</time>
      </trkpt>
      <trkpt lat="46.2995" lon="-0.21479">
        <ele>131</ele>
        <time>2017-10-31T14:16:38Z</time>
      </trkpt>
      <trkpt lat="46.29951" lon="-0.21484">
        <ele>131</ele>
        <time>2017-10-31T14:16:38Z</time>
      </trkpt>
      <trkpt lat="46.29953" lon="-0.21489">
        <ele>131</ele>
        <time>2017-10-31T14:16:38Z</time>
      </trkpt>
      <trkpt lat="46.29953" lon="-0.21496">
        <ele>131</ele>
        <time>2017-10-31T14:16:38Z</time>
      </trkpt>
      <trkpt lat="46.29952" lon="-0.21504">
        <ele>131</ele>
        <time>2017-10-31T14:16:54Z</time>
      </trkpt>
      <trkpt lat="46.29951" lon="-0.21512">
        <ele>131</ele>
        <time>2017-10-31T14:16:54Z</time>
      </trkpt>
      <trkpt lat="46.29949" lon="-0.21519">
        <ele>131</ele>
        <time>2017-10-31T14:16:54Z</time>
      </trkpt>
      <trkpt lat="46.2995" lon="-0.21525">
        <ele>131</ele>
        <time>2017-10-31T14:16:54Z</time>
      </trkpt>
      <trkpt lat="46.29949" lon="-0.2153">
        <ele>131</ele>
        <time>2017-10-31T14:17:10Z</time>
      </trkpt>
      <trkpt lat="46.29949" lon="-0.21539">
        <ele>131</ele>
        <time>2017-10-31T14:17:10Z</time>
      </trkpt>
      <trkpt lat="46.29951" lon="-0.21546">
        <ele>133</ele>
        <time>2017-10-31T14:17:10Z</time>
      </trkpt>
      <trkpt lat="46.29951" lon="-0.21553">
        <ele>133</ele>
        <time>2017-10-31T14:17:10Z</time>
      </trkpt>
      <trkpt lat="46.29951" lon="-0.2156">
        <ele>133</ele>
        <time>2017-10-31T14:17:26Z</time>
      </trkpt>
      <trkpt lat="46.29948" lon="-0.21576">
        <ele>133</ele>
        <time>2017-10-31T14:17:26Z</time>
      </trkpt>
      <trkpt lat="46.29947" lon="-0.21584">
        <ele>133</ele>
        <time>2017-10-31T14:17:26Z</time>
      </trkpt>
      <trkpt lat="46.29945" lon="-0.2159">
        <ele>133</ele>
        <time>2017-10-31T14:17:26Z</time>
      </trkpt>
      <trkpt lat="46.29944" lon="-0.21595">
        <ele>133</ele>
        <time>2017-10-31T14:17:42Z</time>
      </trkpt>
      <trkpt lat="46.29944" lon="-0.21601">
        <ele>133</ele>
        <time>2017-10-31T14:17:42Z</time>
      </trkpt>
      <trkpt lat="46.29945" lon="-0.21608">
        <ele>133</ele>
        <time>2017-10-31T14:17:42Z</time>
      </trkpt>
      <trkpt lat="46.29945" lon="-0.21614">
        <ele>133</ele>
        <time>2017-10-31T14:17:42Z</time>
      </trkpt>
      <trkpt lat="46.29945" lon="-0.2162">
        <ele>133</ele>
        <time>2017-10-31T14:17:58Z</time>
      </trkpt>
      <trkpt lat="46.29944" lon="-0.21626">
        <ele>135</ele>
        <time>2017-10-31T14:17:58Z</time>
      </trkpt>
      <trkpt lat="46.29944" lon="-0.21632">
        <ele>135</ele>
        <time>2017-10-31T14:17:58Z</time>
      </trkpt>
      <trkpt lat="46.29944" lon="-0.21638">
        <ele>135</ele>
        <time>2017-10-31T14:17:58Z</time>
      </trkpt>
      <trkpt lat="46.29943" lon="-0.21643">
        <ele>135</ele>
        <time>2017-10-31T14:18:14Z</time>
      </trkpt>
      <trkpt lat="46.29943" lon="-0.2165">
        <ele>135</ele>
        <time>2017-10-31T14:18:14Z</time>
      </trkpt>
      <trkpt lat="46.29943" lon="-0.21656">
        <ele>135</ele>
        <time>2017-10-31T14:18:14Z</time>
      </trkpt>
      <trkpt lat="46.29942" lon="-0.21664">
        <ele>135</ele>
        <time>2017-10-31T14:18:14Z</time>
      </trkpt>
      <trkpt lat="46.29941" lon="-0.21671">
        <ele>135</ele>
        <time>2017-10-31T14:18:30Z</time>
      </trkpt>
      <trkpt lat="46.29939" lon="-0.21677">
        <ele>135</ele>
        <time>2017-10-31T14:18:30Z</time>
      </trkpt>
      <trkpt lat="46.29938" lon="-0.21685">
        <ele>135</ele>
        <time>2017-10-31T14:18:30Z</time>
      </trkpt>
      <trkpt lat="46.29937" lon="-0.21692">
        <ele>135</ele>
        <time>2017-10-31T14:18:30Z</time>
      </trkpt>
      <trkpt lat="46.29936" lon="-0.21698">
        <ele>135</ele>
        <time>2017-10-31T14:18:46Z</time>
      </trkpt>
      <trkpt lat="46.29934" lon="-0.21705">
        <ele>135</ele>
        <time>2017-10-31T14:18:46Z</time>
      </trkpt>
      <trkpt lat="46.29933" lon="-0.21712">
        <ele>138</ele>
        <time>2017-10-31T14:18:46Z</time>
      </trkpt>
      <trkpt lat="46.29933" lon="-0.21719">
        <ele>138</ele>
        <time>2017-10-31T14:18:46Z</time>
      </trkpt>
      <trkpt lat="46.29935" lon="-0.21726">
        <ele>138</ele>
        <time>2017-10-31T14:19:02Z</time>
      </trkpt>
      <trkpt lat="46.29937" lon="-0.2173">
        <ele>138</ele>
        <time>2017-10-31T14:19:02Z</time>
      </trkpt>
      <trkpt lat="46.29941" lon="-0.21732">
        <ele>138</ele>
        <time>2017-10-31T14:19:02Z</time>
      </trkpt>
      <trkpt lat="46.29945" lon="-0.21733">
        <ele>138</ele>
        <time>2017-10-31T14:19:02Z</time>
      </trkpt>
      <trkpt lat="46.29949" lon="-0.21732">
        <ele>138</ele>
        <time>2017-10-31T14:19:18Z</time>
      </trkpt>
      <trkpt lat="46.29953" lon="-0.21731">
        <ele>138</ele>
        <time>2017-10-31T14:19:18Z</time>
      </trkpt>
      <trkpt lat="46.29956" lon="-0.21728">
        <ele>138</ele>
        <time>2017-10-31T14:19:18Z</time>
      </trkpt>
      <trkpt lat="46.29959" lon="-0.21726">
        <ele>142</ele>
        <time>2017-10-31T14:19:18Z</time>
      </trkpt>
      <trkpt lat="46.29962" lon="-0.21725">
        <ele>142</ele>
        <time>2017-10-31T14:19:34Z</time>
      </trkpt>
      <trkpt lat="46.29966" lon="-0.21724">
        <ele>142</ele>
        <time>2017-10-31T14:19:34Z</time>
      </trkpt>
      <trkpt lat="46.29969" lon="-0.21723">
        <ele>142</ele>
        <time>2017-10-31T14:19:34Z</time>
      </trkpt>
      <trkpt lat="46.29973" lon="-0.21721">
        <ele>142</ele>
        <time>2017-10-31T14:19:34Z</time>
      </trkpt>
      <trkpt lat="46.29976" lon="-0.21719">
        <ele>142</ele>
        <time>2017-10-31T14:19:50Z</time>
      </trkpt>
      <trkpt lat="46.29981" lon="-0.21716">
        <ele>142</ele>
        <time>2017-10-31T14:19:50Z</time>
      </trkpt>
      <trkpt lat="46.29984" lon="-0.21714">
        <ele>142</ele>
        <time>2017-10-31T14:19:50Z</time>
      </trkpt>
      <trkpt lat="46.29987" lon="-0.21712">
        <ele>142</ele>
        <time>2017-10-31T14:19:50Z</time>
      </trkpt>
      <trkpt lat="46.29989" lon="-0.2171">
        <ele>142</ele>
        <time>2017-10-31T14:20:06Z</time>
      </trkpt>
      <trkpt lat="46.29993" lon="-0.21708">
        <ele>141</ele>
        <time>2017-10-31T14:20:06Z</time>
      </trkpt>
      <trkpt lat="46.29996" lon="-0.21705">
        <ele>141</ele>
        <time>2017-10-31T14:20:06Z</time>
      </trkpt>
      <trkpt lat="46.3" lon="-0.21704">
        <ele>141</ele>
        <time>2017-10-31T14:20:06Z</time>
      </trkpt>
      <trkpt lat="46.30005" lon="-0.21701">
        <ele>141</ele>
        <time>2017-10-31T14:20:22Z</time>
      </trkpt>
      <trkpt lat="46.30008" lon="-0.21698">
        <ele>141</ele>
        <time>2017-10-31T14:20:22Z</time>
      </trkpt>
      <trkpt lat="46.30011" lon="-0.21696">
        <ele>141</ele>
        <time>2017-10-31T14:20:22Z</time>
      </trkpt>
      <trkpt lat="46.30015" lon="-0.21694">
        <ele>141</ele>
        <time>2017-10-31T14:20:22Z</time>
      </trkpt>
      <trkpt lat="46.30019" lon="-0.21691">
        <ele>141</ele>
        <time>2017-10-31T14:20:38Z</time>
      </trkpt>
      <trkpt lat="46.30024" lon="-0.2169">
        <ele>141</ele>
        <time>2017-10-31T14:20:38Z</time>
      </trkpt>
      <trkpt lat="46.30031" lon="-0.21689">
        <ele>141</ele>
        <time>2017-10-31T14:20:38Z</time>
      </trkpt>
      <trkpt lat="46.30034" lon="-0.21688">
        <ele>141</ele>
        <time>2017-10-31T14:20:38Z</time>
      </trkpt>
      <trkpt lat="46.30038" lon="-0.21686">
        <ele>141</ele>
        <time>2017-10-31T14:20:54Z</time>
      </trkpt>
      <trkpt lat="46.30044" lon="-0.21682">
        <ele>143</ele>
        <time>2017-10-31T14:20:54Z</time>
      </trkpt>
      <trkpt lat="46.30048" lon="-0.21679">
        <ele>143</ele>
        <time>2017-10-31T14:20:54Z</time>
      </trkpt>
      <trkpt lat="46.30053" lon="-0.21676">
        <ele>143</ele>
        <time>2017-10-31T14:20:54Z</time>
      </trkpt>
      <trkpt lat="46.30056" lon="-0.21674">
        <ele>143</ele>
        <time>2017-10-31T14:21:10Z</time>
      </trkpt>
      <trkpt lat="46.30059" lon="-0.21671">
        <ele>143</ele>
        <time>2017-10-31T14:21:10Z</time>
      </trkpt>
      <trkpt lat="46.30061" lon="-0.21668">
        <ele>143</ele>
        <time>2017-10-31T14:21:10Z</time>
      </trkpt>
      <trkpt lat="46.30066" lon="-0.21665">
        <ele>143</ele>
        <time>2017-10-31T14:21:10Z</time>
      </trkpt>
      <trkpt lat="46.30073" lon="-0.21663">
        <ele>143</ele>
        <time>2017-10-31T14:21:26Z</time>
      </trkpt>
      <trkpt lat="46.30079" lon="-0.2166">
        <ele>143</ele>
        <time>2017-10-31T14:21:26Z</time>
      </trkpt>
      <trkpt lat="46.30085" lon="-0.21657">
        <ele>143</ele>
        <time>2017-10-31T14:21:26Z</time>
      </trkpt>
      <trkpt lat="46.30091" lon="-0.21653">
        <ele>143</ele>
        <time>2017-10-31T14:21:26Z</time>
      </trkpt>
      <trkpt lat="46.30096" lon="-0.21649">
        <ele>143</ele>
        <time>2017-10-31T14:21:42Z</time>
      </trkpt>
      <trkpt lat="46.301" lon="-0.21646">
        <ele>143</ele>
        <time>2017-10-31T14:21:42Z</time>
      </trkpt>
      <trkpt lat="46.30102" lon="-0.21643">
        <ele>143</ele>
        <time>2017-10-31T14:21:42Z</time>
      </trkpt>
      <trkpt lat="46.30104" lon="-0.2164">
        <ele>143</ele>
        <time>2017-10-31T14:21:42Z</time>
      </trkpt>
      <trkpt lat="46.30108" lon="-0.21636">
        <ele>143</ele>
        <time>2017-10-31T14:22:10Z</time>
      </trkpt>
      <trkpt lat="46.3011" lon="-0.21635">
        <ele>143</ele>
        <time>2017-10-31T14:22:10Z</time>
      </trkpt>
      <trkpt lat="46.30111" lon="-0.21635">
        <ele>143</ele>
        <time>2017-10-31T14:22:10Z</time>
      </trkpt>
      <trkpt lat="46.30112" lon="-0.21635">
        <ele>143</ele>
        <time>2017-10-31T14:22:10Z</time>
      </trkpt>
      <trkpt lat="46.30119" lon="-0.21635">
        <ele>143</ele>
        <time>2017-10-31T14:22:10Z</time>
      </trkpt>
      <trkpt lat="46.30123" lon="-0.21636">
        <ele>143</ele>
        <time>2017-10-31T14:22:26Z</time>
      </trkpt>
      <trkpt lat="46.30127" lon="-0.21638">
        <ele>141</ele>
        <time>2017-10-31T14:22:26Z</time>
      </trkpt>
      <trkpt lat="46.30131" lon="-0.21642">
        <ele>141</ele>
        <time>2017-10-31T14:22:26Z</time>
      </trkpt>
      <trkpt lat="46.30136" lon="-0.21645">
        <ele>141</ele>
        <time>2017-10-31T14:22:26Z</time>
      </trkpt>
      <trkpt lat="46.30141" lon="-0.21648">
        <ele>141</ele>
        <time>2017-10-31T14:22:42Z</time>
      </trkpt>
      <trkpt lat="46.30145" lon="-0.21651">
        <ele>141</ele>
        <time>2017-10-31T14:22:42Z</time>
      </trkpt>
      <trkpt lat="46.30149" lon="-0.21654">
        <ele>141</ele>
        <time>2017-10-31T14:22:42Z</time>
      </trkpt>
      <trkpt lat="46.30154" lon="-0.21658">
        <ele>141</ele>
        <time>2017-10-31T14:22:42Z</time>
      </trkpt>
      <trkpt lat="46.30159" lon="-0.21662">
        <ele>141</ele>
        <time>2017-10-31T14:22:58Z</time>
      </trkpt>
      <trkpt lat="46.30164" lon="-0.21666">
        <ele>141</ele>
        <time>2017-10-31T14:22:58Z</time>
      </trkpt>
      <trkpt lat="46.30167" lon="-0.2167">
        <ele>141</ele>
        <time>2017-10-31T14:22:58Z</time>
      </trkpt>
      <trkpt lat="46.30171" lon="-0.21674">
        <ele>141</ele>
        <time>2017-10-31T14:22:58Z</time>
      </trkpt>
      <trkpt lat="46.30175" lon="-0.21678">
        <ele>141</ele>
        <time>2017-10-31T14:23:14Z</time>
      </trkpt>
      <trkpt lat="46.3018" lon="-0.21681">
        <ele>141</ele>
        <time>2017-10-31T14:23:14Z</time>
      </trkpt>
      <trkpt lat="46.30184" lon="-0.21685">
        <ele>141</ele>
        <time>2017-10-31T14:23:14Z</time>
      </trkpt>
      <trkpt lat="46.30188" lon="-0.21689">
        <ele>141</ele>
        <time>2017-10-31T14:23:14Z</time>
      </trkpt>
      <trkpt lat="46.30192" lon="-0.21693">
        <ele>141</ele>
        <time>2017-10-31T14:23:30Z</time>
      </trkpt>
      <trkpt lat="46.30196" lon="-0.21696">
        <ele>141</ele>
        <time>2017-10-31T14:23:30Z</time>
      </trkpt>
      <trkpt lat="46.302" lon="-0.217">
        <ele>141</ele>
        <time>2017-10-31T14:23:30Z</time>
      </trkpt>
      <trkpt lat="46.30205" lon="-0.21703">
        <ele>141</ele>
        <time>2017-10-31T14:23:30Z</time>
      </trkpt>
      <trkpt lat="46.30208" lon="-0.21706">
        <ele>141</ele>
        <time>2017-10-31T14:23:46Z</time>
      </trkpt>
      <trkpt lat="46.30212" lon="-0.2171">
        <ele>141</ele>
        <time>2017-10-31T14:23:46Z</time>
      </trkpt>
      <trkpt lat="46.30216" lon="-0.21713">
        <ele>141</ele>
        <time>2017-10-31T14:23:46Z</time>
      </trkpt>
      <trkpt lat="46.3022" lon="-0.21717">
        <ele>141</ele>
        <time>2017-10-31T14:23:46Z</time>
      </trkpt>
      <trkpt lat="46.30224" lon="-0.21721">
        <ele>141</ele>
        <time>2017-10-31T14:24:02Z</time>
      </trkpt>
      <trkpt lat="46.30228" lon="-0.21727">
        <ele>141</ele>
        <time>2017-10-31T14:24:02Z</time>
      </trkpt>
      <trkpt lat="46.30232" lon="-0.21732">
        <ele>141</ele>
        <time>2017-10-31T14:24:02Z</time>
      </trkpt>
      <trkpt lat="46.30235" lon="-0.21736">
        <ele>141</ele>
        <time>2017-10-31T14:24:02Z</time>
      </trkpt>
      <trkpt lat="46.30239" lon="-0.2174">
        <ele>141</ele>
        <time>2017-10-31T14:24:18Z</time>
      </trkpt>
      <trkpt lat="46.30242" lon="-0.21745">
        <ele>141</ele>
        <time>2017-10-31T14:24:18Z</time>
      </trkpt>
      <trkpt lat="46.30245" lon="-0.2175">
        <ele>141</ele>
        <time>2017-10-31T14:24:18Z</time>
      </trkpt>
      <trkpt lat="46.30248" lon="-0.21754">
        <ele>141</ele>
        <time>2017-10-31T14:24:18Z</time>
      </trkpt>
      <trkpt lat="46.30251" lon="-0.21758">
        <ele>141</ele>
        <time>2017-10-31T14:24:34Z</time>
      </trkpt>
      <trkpt lat="46.30254" lon="-0.21764">
        <ele>141</ele>
        <time>2017-10-31T14:24:34Z</time>
      </trkpt>
      <trkpt lat="46.30257" lon="-0.21769">
        <ele>141</ele>
        <time>2017-10-31T14:24:34Z</time>
      </trkpt>
      <trkpt lat="46.3026" lon="-0.21775">
        <ele>141</ele>
        <time>2017-10-31T14:24:34Z</time>
      </trkpt>
      <trkpt lat="46.30264" lon="-0.21779">
        <ele>141</ele>
        <time>2017-10-31T14:24:50Z</time>
      </trkpt>
      <trkpt lat="46.30267" lon="-0.21784">
        <ele>141</ele>
        <time>2017-10-31T14:24:50Z</time>
      </trkpt>
      <trkpt lat="46.30269" lon="-0.21788">
        <ele>141</ele>
        <time>2017-10-31T14:24:50Z</time>
      </trkpt>
      <trkpt lat="46.30271" lon="-0.21793">
        <ele>139</ele>
        <time>2017-10-31T14:24:50Z</time>
      </trkpt>
      <trkpt lat="46.30274" lon="-0.21799">
        <ele>139</ele>
        <time>2017-10-31T14:25:06Z</time>
      </trkpt>
      <trkpt lat="46.30277" lon="-0.21805">
        <ele>139</ele>
        <time>2017-10-31T14:25:06Z</time>
      </trkpt>
      <trkpt lat="46.3028" lon="-0.2181">
        <ele>139</ele>
        <time>2017-10-31T14:25:06Z</time>
      </trkpt>
      <trkpt lat="46.30283" lon="-0.21817">
        <ele>139</ele>
        <time>2017-10-31T14:25:06Z</time>
      </trkpt>
      <trkpt lat="46.30286" lon="-0.21822">
        <ele>139</ele>
        <time>2017-10-31T14:25:22Z</time>
      </trkpt>
      <trkpt lat="46.30289" lon="-0.21828">
        <ele>139</ele>
        <time>2017-10-31T14:25:22Z</time>
      </trkpt>
      <trkpt lat="46.30292" lon="-0.21834">
        <ele>141</ele>
        <time>2017-10-31T14:25:22Z</time>
      </trkpt>
      <trkpt lat="46.30295" lon="-0.2184">
        <ele>141</ele>
        <time>2017-10-31T14:25:22Z</time>
      </trkpt>
      <trkpt lat="46.30297" lon="-0.21846">
        <ele>141</ele>
        <time>2017-10-31T14:25:38Z</time>
      </trkpt>
      <trkpt lat="46.303" lon="-0.21852">
        <ele>141</ele>
        <time>2017-10-31T14:25:38Z</time>
      </trkpt>
      <trkpt lat="46.30303" lon="-0.21858">
        <ele>141</ele>
        <time>2017-10-31T14:25:38Z</time>
      </trkpt>
      <trkpt lat="46.30305" lon="-0.21864">
        <ele>141</ele>
        <time>2017-10-31T14:25:38Z</time>
      </trkpt>
      <trkpt lat="46.30307" lon="-0.2187">
        <ele>141</ele>
        <time>2017-10-31T14:25:54Z</time>
      </trkpt>
      <trkpt lat="46.30309" lon="-0.21875">
        <ele>140</ele>
        <time>2017-10-31T14:25:54Z</time>
      </trkpt>
      <trkpt lat="46.30311" lon="-0.21879">
        <ele>140</ele>
        <time>2017-10-31T14:25:54Z</time>
      </trkpt>
      <trkpt lat="46.30313" lon="-0.21885">
        <ele>140</ele>
        <time>2017-10-31T14:25:54Z</time>
      </trkpt>
      <trkpt lat="46.30314" lon="-0.21892">
        <ele>140</ele>
        <time>2017-10-31T14:26:10Z</time>
      </trkpt>
      <trkpt lat="46.30316" lon="-0.21899">
        <ele>140</ele>
        <time>2017-10-31T14:26:10Z</time>
      </trkpt>
      <trkpt lat="46.30317" lon="-0.21906">
        <ele>140</ele>
        <time>2017-10-31T14:26:10Z</time>
      </trkpt>
      <trkpt lat="46.30319" lon="-0.21911">
        <ele>140</ele>
        <time>2017-10-31T14:26:10Z</time>
      </trkpt>
      <trkpt lat="46.30321" lon="-0.21918">
        <ele>140</ele>
        <time>2017-10-31T14:26:26Z</time>
      </trkpt>
      <trkpt lat="46.30324" lon="-0.21925">
        <ele>140</ele>
        <time>2017-10-31T14:26:26Z</time>
      </trkpt>
      <trkpt lat="46.30326" lon="-0.21931">
        <ele>140</ele>
        <time>2017-10-31T14:26:26Z</time>
      </trkpt>
      <trkpt lat="46.30328" lon="-0.21938">
        <ele>140</ele>
        <time>2017-10-31T14:26:26Z</time>
      </trkpt>
      <trkpt lat="46.3033" lon="-0.21945">
        <ele>140</ele>
        <time>2017-10-31T14:26:42Z</time>
      </trkpt>
      <trkpt lat="46.30331" lon="-0.21952">
        <ele>140</ele>
        <time>2017-10-31T14:26:42Z</time>
      </trkpt>
      <trkpt lat="46.30331" lon="-0.21958">
        <ele>140</ele>
        <time>2017-10-31T14:26:42Z</time>
      </trkpt>
      <trkpt lat="46.30332" lon="-0.21966">
        <ele>139</ele>
        <time>2017-10-31T14:26:42Z</time>
      </trkpt>
      <trkpt lat="46.30331" lon="-0.21973">
        <ele>139</ele>
        <time>2017-10-31T14:26:58Z</time>
      </trkpt>
      <trkpt lat="46.3033" lon="-0.2198">
        <ele>139</ele>
        <time>2017-10-31T14:26:58Z</time>
      </trkpt>
      <trkpt lat="46.30329" lon="-0.21986">
        <ele>139</ele>
        <time>2017-10-31T14:26:58Z</time>
      </trkpt>
      <trkpt lat="46.30328" lon="-0.21992">
        <ele>139</ele>
        <time>2017-10-31T14:26:58Z</time>
      </trkpt>
      <trkpt lat="46.30327" lon="-0.21999">
        <ele>139</ele>
        <time>2017-10-31T14:27:14Z</time>
      </trkpt>
      <trkpt lat="46.30325" lon="-0.22005">
        <ele>139</ele>
        <time>2017-10-31T14:27:14Z</time>
      </trkpt>
      <trkpt lat="46.30324" lon="-0.22013">
        <ele>139</ele>
        <time>2017-10-31T14:27:14Z</time>
      </trkpt>
      <trkpt lat="46.30323" lon="-0.2202">
        <ele>139</ele>
        <time>2017-10-31T14:27:14Z</time>
      </trkpt>
      <trkpt lat="46.30322" lon="-0.22026">
        <ele>139</ele>
        <time>2017-10-31T14:27:30Z</time>
      </trkpt>
      <trkpt lat="46.30321" lon="-0.22033">
        <ele>139</ele>
        <time>2017-10-31T14:27:30Z</time>
      </trkpt>
      <trkpt lat="46.30319" lon="-0.2204">
        <ele>139</ele>
        <time>2017-10-31T14:27:32Z</time>
      </trkpt>
      <trkpt lat="46.30319" lon="-0.22048">
        <ele>138</ele>
        <time>2017-10-31T14:27:32Z</time>
      </trkpt>
      <trkpt lat="46.30318" lon="-0.22055">
        <ele>138</ele>
        <time>2017-10-31T14:27:46Z</time>
      </trkpt>
      <trkpt lat="46.30318" lon="-0.22063">
        <ele>138</ele>
        <time>2017-10-31T14:27:46Z</time>
      </trkpt>
      <trkpt lat="46.30317" lon="-0.2207">
        <ele>138</ele>
        <time>2017-10-31T14:27:46Z</time>
      </trkpt>
      <trkpt lat="46.30317" lon="-0.22076">
        <ele>138</ele>
        <time>2017-10-31T14:27:46Z</time>
      </trkpt>
      <trkpt lat="46.30317" lon="-0.22083">
        <ele>138</ele>
        <time>2017-10-31T14:28:02Z</time>
      </trkpt>
      <trkpt lat="46.30317" lon="-0.22089">
        <ele>138</ele>
        <time>2017-10-31T14:28:02Z</time>
      </trkpt>
      <trkpt lat="46.30316" lon="-0.22096">
        <ele>138</ele>
        <time>2017-10-31T14:28:02Z</time>
      </trkpt>
      <trkpt lat="46.30316" lon="-0.22101">
        <ele>138</ele>
        <time>2017-10-31T14:28:02Z</time>
      </trkpt>
      <trkpt lat="46.30314" lon="-0.22106">
        <ele>138</ele>
        <time>2017-10-31T14:28:22Z</time>
      </trkpt>
      <trkpt lat="46.30314" lon="-0.2211">
        <ele>138</ele>
        <time>2017-10-31T14:28:22Z</time>
      </trkpt>
      <trkpt lat="46.30312" lon="-0.22112">
        <ele>138</ele>
        <time>2017-10-31T14:28:22Z</time>
      </trkpt>
      <trkpt lat="46.30308" lon="-0.22114">
        <ele>138</ele>
        <time>2017-10-31T14:28:22Z</time>
      </trkpt>
      <trkpt lat="46.30304" lon="-0.22115">
        <ele>138</ele>
        <time>2017-10-31T14:28:22Z</time>
      </trkpt>
      <trkpt lat="46.30302" lon="-0.22116">
        <ele>138</ele>
        <time>2017-10-31T14:28:38Z</time>
      </trkpt>
      <trkpt lat="46.30299" lon="-0.22116">
        <ele>138</ele>
        <time>2017-10-31T14:28:38Z</time>
      </trkpt>
      <trkpt lat="46.30295" lon="-0.22116">
        <ele>138</ele>
        <time>2017-10-31T14:28:38Z</time>
      </trkpt>
      <trkpt lat="46.3029" lon="-0.22118">
        <ele>134</ele>
        <time>2017-10-31T14:28:38Z</time>
      </trkpt>
      <trkpt lat="46.30285" lon="-0.22121">
        <ele>134</ele>
        <time>2017-10-31T14:28:54Z</time>
      </trkpt>
      <trkpt lat="46.30281" lon="-0.22125">
        <ele>134</ele>
        <time>2017-10-31T14:28:54Z</time>
      </trkpt>
      <trkpt lat="46.30277" lon="-0.2213">
        <ele>133</ele>
        <time>2017-10-31T14:28:54Z</time>
      </trkpt>
      <trkpt lat="46.30275" lon="-0.22136">
        <ele>133</ele>
        <time>2017-10-31T14:28:54Z</time>
      </trkpt>
      <trkpt lat="46.30274" lon="-0.22142">
        <ele>133</ele>
        <time>2017-10-31T14:29:10Z</time>
      </trkpt>
      <trkpt lat="46.30273" lon="-0.2215">
        <ele>133</ele>
        <time>2017-10-31T14:29:10Z</time>
      </trkpt>
      <trkpt lat="46.30271" lon="-0.22156">
        <ele>133</ele>
        <time>2017-10-31T14:29:10Z</time>
      </trkpt>
      <trkpt lat="46.30269" lon="-0.22161">
        <ele>133</ele>
        <time>2017-10-31T14:29:10Z</time>
      </trkpt>
      <trkpt lat="46.30267" lon="-0.22168">
        <ele>133</ele>
        <time>2017-10-31T14:29:26Z</time>
      </trkpt>
      <trkpt lat="46.30265" lon="-0.22174">
        <ele>133</ele>
        <time>2017-10-31T14:29:26Z</time>
      </trkpt>
      <trkpt lat="46.30264" lon="-0.22178">
        <ele>133</ele>
        <time>2017-10-31T14:29:26Z</time>
      </trkpt>
      <trkpt lat="46.30262" lon="-0.22183">
        <ele>133</ele>
        <time>2017-10-31T14:29:26Z</time>
      </trkpt>
      <trkpt lat="46.30262" lon="-0.22188">
        <ele>133</ele>
        <time>2017-10-31T14:29:42Z</time>
      </trkpt>
      <trkpt lat="46.3026" lon="-0.22195">
        <ele>133</ele>
        <time>2017-10-31T14:29:42Z</time>
      </trkpt>
      <trkpt lat="46.30259" lon="-0.222">
        <ele>133</ele>
        <time>2017-10-31T14:29:42Z</time>
      </trkpt>
      <trkpt lat="46.30259" lon="-0.22203">
        <ele>133</ele>
        <time>2017-10-31T14:29:42Z</time>
      </trkpt>
      <trkpt lat="46.30258" lon="-0.22205">
        <ele>133</ele>
        <time>2017-10-31T14:30:02Z</time>
      </trkpt>
      <trkpt lat="46.30256" lon="-0.22214">
        <ele>133</ele>
        <time>2017-10-31T14:30:02Z</time>
      </trkpt>
      <trkpt lat="46.30254" lon="-0.22219">
        <ele>133</ele>
        <time>2017-10-31T14:30:02Z</time>
      </trkpt>
      <trkpt lat="46.30252" lon="-0.22222">
        <ele>133</ele>
        <time>2017-10-31T14:30:02Z</time>
      </trkpt>
      <trkpt lat="46.3025" lon="-0.22226">
        <ele>133</ele>
        <time>2017-10-31T14:30:18Z</time>
      </trkpt>
      <trkpt lat="46.30246" lon="-0.2223">
        <ele>133</ele>
        <time>2017-10-31T14:30:18Z</time>
      </trkpt>
      <trkpt lat="46.30244" lon="-0.22235">
        <ele>133</ele>
        <time>2017-10-31T14:30:18Z</time>
      </trkpt>
      <trkpt lat="46.30239" lon="-0.2224">
        <ele>133</ele>
        <time>2017-10-31T14:30:18Z</time>
      </trkpt>
      <trkpt lat="46.30236" lon="-0.22245">
        <ele>133</ele>
        <time>2017-10-31T14:30:34Z</time>
      </trkpt>
      <trkpt lat="46.30235" lon="-0.2225">
        <ele>133</ele>
        <time>2017-10-31T14:30:34Z</time>
      </trkpt>
      <trkpt lat="46.30233" lon="-0.22255">
        <ele>133</ele>
        <time>2017-10-31T14:30:34Z</time>
      </trkpt>
      <trkpt lat="46.30232" lon="-0.22258">
        <ele>133</ele>
        <time>2017-10-31T14:30:36Z</time>
      </trkpt>
      <trkpt lat="46.30232" lon="-0.22263">
        <ele>133</ele>
        <time>2017-10-31T14:30:50Z</time>
      </trkpt>
      <trkpt lat="46.30231" lon="-0.22268">
        <ele>133</ele>
        <time>2017-10-31T14:30:50Z</time>
      </trkpt>
      <trkpt lat="46.3023" lon="-0.22272">
        <ele>133</ele>
        <time>2017-10-31T14:30:50Z</time>
      </trkpt>
      <trkpt lat="46.3023" lon="-0.22277">
        <ele>133</ele>
        <time>2017-10-31T14:30:50Z</time>
      </trkpt>
      <trkpt lat="46.30228" lon="-0.22283">
        <ele>133</ele>
        <time>2017-10-31T14:31:06Z</time>
      </trkpt>
      <trkpt lat="46.30227" lon="-0.22289">
        <ele>133</ele>
        <time>2017-10-31T14:31:06Z</time>
      </trkpt>
      <trkpt lat="46.30227" lon="-0.22294">
        <ele>132</ele>
        <time>2017-10-31T14:31:06Z</time>
      </trkpt>
      <trkpt lat="46.30227" lon="-0.223">
        <ele>132</ele>
        <time>2017-10-31T14:31:06Z</time>
      </trkpt>
      <trkpt lat="46.30227" lon="-0.22305">
        <ele>132</ele>
        <time>2017-10-31T14:31:22Z</time>
      </trkpt>
      <trkpt lat="46.30226" lon="-0.22314">
        <ele>132</ele>
        <time>2017-10-31T14:31:22Z</time>
      </trkpt>
      <trkpt lat="46.30225" lon="-0.22323">
        <ele>132</ele>
        <time>2017-10-31T14:31:22Z</time>
      </trkpt>
      <trkpt lat="46.30224" lon="-0.22332">
        <ele>132</ele>
        <time>2017-10-31T14:31:22Z</time>
      </trkpt>
      <trkpt lat="46.30222" lon="-0.2234">
        <ele>132</ele>
        <time>2017-10-31T14:31:38Z</time>
      </trkpt>
      <trkpt lat="46.3022" lon="-0.22346">
        <ele>132</ele>
        <time>2017-10-31T14:31:38Z</time>
      </trkpt>
      <trkpt lat="46.30219" lon="-0.22354">
        <ele>132</ele>
        <time>2017-10-31T14:31:38Z</time>
      </trkpt>
      <trkpt lat="46.30218" lon="-0.2236">
        <ele>132</ele>
        <time>2017-10-31T14:31:38Z</time>
      </trkpt>
      <trkpt lat="46.30218" lon="-0.22364">
        <ele>132</ele>
        <time>2017-10-31T14:31:58Z</time>
      </trkpt>
      <trkpt lat="46.30216" lon="-0.22366">
        <ele>132</ele>
        <time>2017-10-31T14:31:58Z</time>
      </trkpt>
      <trkpt lat="46.30215" lon="-0.22368">
        <ele>132</ele>
        <time>2017-10-31T14:31:58Z</time>
      </trkpt>
      <trkpt lat="46.30214" lon="-0.22375">
        <ele>132</ele>
        <time>2017-10-31T14:31:58Z</time>
      </trkpt>
      <trkpt lat="46.30215" lon="-0.22379">
        <ele>132</ele>
        <time>2017-10-31T14:31:58Z</time>
      </trkpt>
      <trkpt lat="46.30215" lon="-0.22383">
        <ele>132</ele>
        <time>2017-10-31T14:32:14Z</time>
      </trkpt>
      <trkpt lat="46.30216" lon="-0.22387">
        <ele>132</ele>
        <time>2017-10-31T14:32:14Z</time>
      </trkpt>
      <trkpt lat="46.30217" lon="-0.22393">
        <ele>132</ele>
        <time>2017-10-31T14:32:14Z</time>
      </trkpt>
      <trkpt lat="46.30218" lon="-0.22401">
        <ele>132</ele>
        <time>2017-10-31T14:32:14Z</time>
      </trkpt>
      <trkpt lat="46.30217" lon="-0.22407">
        <ele>132</ele>
        <time>2017-10-31T14:32:30Z</time>
      </trkpt>
      <trkpt lat="46.30215" lon="-0.22413">
        <ele>132</ele>
        <time>2017-10-31T14:32:30Z</time>
      </trkpt>
      <trkpt lat="46.30215" lon="-0.22423">
        <ele>132</ele>
        <time>2017-10-31T14:32:30Z</time>
      </trkpt>
      <trkpt lat="46.30213" lon="-0.22431">
        <ele>132</ele>
        <time>2017-10-31T14:32:30Z</time>
      </trkpt>
      <trkpt lat="46.30212" lon="-0.22438">
        <ele>132</ele>
        <time>2017-10-31T14:32:46Z</time>
      </trkpt>
      <trkpt lat="46.30211" lon="-0.22442">
        <ele>132</ele>
        <time>2017-10-31T14:32:46Z</time>
      </trkpt>
      <trkpt lat="46.3021" lon="-0.22448">
        <ele>132</ele>
        <time>2017-10-31T14:32:46Z</time>
      </trkpt>
      <trkpt lat="46.30208" lon="-0.22453">
        <ele>128</ele>
        <time>2017-10-31T14:32:46Z</time>
      </trkpt>
      <trkpt lat="46.30207" lon="-0.2246">
        <ele>127</ele>
        <time>2017-10-31T14:33:02Z</time>
      </trkpt>
      <trkpt lat="46.30206" lon="-0.22467">
        <ele>127</ele>
        <time>2017-10-31T14:33:02Z</time>
      </trkpt>
      <trkpt lat="46.30205" lon="-0.22474">
        <ele>127</ele>
        <time>2017-10-31T14:33:02Z</time>
      </trkpt>
      <trkpt lat="46.30204" lon="-0.2248">
        <ele>127</ele>
        <time>2017-10-31T14:33:02Z</time>
      </trkpt>
      <trkpt lat="46.30201" lon="-0.22486">
        <ele>127</ele>
        <time>2017-10-31T14:33:18Z</time>
      </trkpt>
      <trkpt lat="46.30198" lon="-0.22492">
        <ele>127</ele>
        <time>2017-10-31T14:33:18Z</time>
      </trkpt>
      <trkpt lat="46.30195" lon="-0.22497">
        <ele>127</ele>
        <time>2017-10-31T14:33:18Z</time>
      </trkpt>
      <trkpt lat="46.30193" lon="-0.22502">
        <ele>127</ele>
        <time>2017-10-31T14:33:18Z</time>
      </trkpt>
      <trkpt lat="46.30191" lon="-0.22507">
        <ele>127</ele>
        <time>2017-10-31T14:33:34Z</time>
      </trkpt>
      <trkpt lat="46.3019" lon="-0.22514">
        <ele>127</ele>
        <time>2017-10-31T14:33:34Z</time>
      </trkpt>
      <trkpt lat="46.30188" lon="-0.22521">
        <ele>127</ele>
        <time>2017-10-31T14:33:34Z</time>
      </trkpt>
      <trkpt lat="46.30184" lon="-0.2253">
        <ele>127</ele>
        <time>2017-10-31T14:33:34Z</time>
      </trkpt>
      <trkpt lat="46.3018" lon="-0.22535">
        <ele>127</ele>
        <time>2017-10-31T14:33:50Z</time>
      </trkpt>
      <trkpt lat="46.30179" lon="-0.22539">
        <ele>127</ele>
        <time>2017-10-31T14:33:50Z</time>
      </trkpt>
      <trkpt lat="46.30178" lon="-0.22545">
        <ele>128</ele>
        <time>2017-10-31T14:33:50Z</time>
      </trkpt>
      <trkpt lat="46.30176" lon="-0.22551">
        <ele>128</ele>
        <time>2017-10-31T14:33:50Z</time>
      </trkpt>
      <trkpt lat="46.30173" lon="-0.22556">
        <ele>128</ele>
        <time>2017-10-31T14:34:06Z</time>
      </trkpt>
      <trkpt lat="46.3017" lon="-0.22561">
        <ele>128</ele>
        <time>2017-10-31T14:34:06Z</time>
      </trkpt>
      <trkpt lat="46.30168" lon="-0.22566">
        <ele>128</ele>
        <time>2017-10-31T14:34:06Z</time>
      </trkpt>
      <trkpt lat="46.30166" lon="-0.22572">
        <ele>128</ele>
        <time>2017-10-31T14:34:06Z</time>
      </trkpt>
      <trkpt lat="46.30164" lon="-0.22579">
        <ele>128</ele>
        <time>2017-10-31T14:34:22Z</time>
      </trkpt>
      <trkpt lat="46.30162" lon="-0.22586">
        <ele>128</ele>
        <time>2017-10-31T14:34:22Z</time>
      </trkpt>
      <trkpt lat="46.3016" lon="-0.22592">
        <ele>128</ele>
        <time>2017-10-31T14:34:22Z</time>
      </trkpt>
      <trkpt lat="46.30157" lon="-0.22598">
        <ele>128</ele>
        <time>2017-10-31T14:34:22Z</time>
      </trkpt>
      <trkpt lat="46.30155" lon="-0.22604">
        <ele>128</ele>
        <time>2017-10-31T14:34:38Z</time>
      </trkpt>
      <trkpt lat="46.30153" lon="-0.2261">
        <ele>128</ele>
        <time>2017-10-31T14:34:38Z</time>
      </trkpt>
      <trkpt lat="46.30151" lon="-0.22615">
        <ele>128</ele>
        <time>2017-10-31T14:34:38Z</time>
      </trkpt>
      <trkpt lat="46.30149" lon="-0.2262">
        <ele>128</ele>
        <time>2017-10-31T14:34:38Z</time>
      </trkpt>
      <trkpt lat="46.30146" lon="-0.22625">
        <ele>128</ele>
        <time>2017-10-31T14:36:10Z</time>
      </trkpt>
      <trkpt lat="46.30145" lon="-0.22629">
        <ele>130</ele>
        <time>2017-10-31T14:36:10Z</time>
      </trkpt>
      <trkpt lat="46.30143" lon="-0.22635">
        <ele>130</ele>
        <time>2017-10-31T14:36:10Z</time>
      </trkpt>
      <trkpt lat="46.3014" lon="-0.22643">
        <ele>130</ele>
        <time>2017-10-31T14:36:10Z</time>
      </trkpt>
      <trkpt lat="46.30137" lon="-0.2265">
        <ele>130</ele>
        <time>2017-10-31T14:36:10Z</time>
      </trkpt>
      <trkpt lat="46.30135" lon="-0.2266">
        <ele>130</ele>
        <time>2017-10-31T14:36:26Z</time>
      </trkpt>
      <trkpt lat="46.30133" lon="-0.22669">
        <ele>130</ele>
        <time>2017-10-31T14:36:26Z</time>
      </trkpt>
      <trkpt lat="46.30132" lon="-0.22677">
        <ele>130</ele>
        <time>2017-10-31T14:36:26Z</time>
      </trkpt>
      <trkpt lat="46.30131" lon="-0.22685">
        <ele>130</ele>
        <time>2017-10-31T14:36:26Z</time>
      </trkpt>
      <trkpt lat="46.3013" lon="-0.22692">
        <ele>130</ele>
        <time>2017-10-31T14:36:42Z</time>
      </trkpt>
      <trkpt lat="46.30128" lon="-0.227">
        <ele>130</ele>
        <time>2017-10-31T14:36:42Z</time>
      </trkpt>
      <trkpt lat="46.30125" lon="-0.22707">
        <ele>130</ele>
        <time>2017-10-31T14:36:42Z</time>
      </trkpt>
      <trkpt lat="46.30122" lon="-0.22713">
        <ele>129</ele>
        <time>2017-10-31T14:36:42Z</time>
      </trkpt>
      <trkpt lat="46.30118" lon="-0.2272">
        <ele>129</ele>
        <time>2017-10-31T14:36:58Z</time>
      </trkpt>
      <trkpt lat="46.30114" lon="-0.22728">
        <ele>129</ele>
        <time>2017-10-31T14:36:58Z</time>
      </trkpt>
      <trkpt lat="46.30111" lon="-0.22738">
        <ele>129</ele>
        <time>2017-10-31T14:36:58Z</time>
      </trkpt>
      <trkpt lat="46.30108" lon="-0.22747">
        <ele>129</ele>
        <time>2017-10-31T14:36:58Z</time>
      </trkpt>
      <trkpt lat="46.30106" lon="-0.22754">
        <ele>129</ele>
        <time>2017-10-31T14:37:14Z</time>
      </trkpt>
      <trkpt lat="46.30103" lon="-0.22762">
        <ele>129</ele>
        <time>2017-10-31T14:37:14Z</time>
      </trkpt>
      <trkpt lat="46.301" lon="-0.22767">
        <ele>129</ele>
        <time>2017-10-31T14:37:14Z</time>
      </trkpt>
      <trkpt lat="46.30097" lon="-0.22774">
        <ele>129</ele>
        <time>2017-10-31T14:37:14Z</time>
      </trkpt>
      <trkpt lat="46.30095" lon="-0.22779">
        <ele>129</ele>
        <time>2017-10-31T14:37:30Z</time>
      </trkpt>
      <trkpt lat="46.30092" lon="-0.22783">
        <ele>129</ele>
        <time>2017-10-31T14:37:30Z</time>
      </trkpt>
      <trkpt lat="46.30089" lon="-0.22787">
        <ele>129</ele>
        <time>2017-10-31T14:37:32Z</time>
      </trkpt>
      <trkpt lat="46.30085" lon="-0.2279">
        <ele>129</ele>
        <time>2017-10-31T14:37:32Z</time>
      </trkpt>
      <trkpt lat="46.3008" lon="-0.22793">
        <ele>131</ele>
        <time>2017-10-31T14:37:46Z</time>
      </trkpt>
      <trkpt lat="46.30075" lon="-0.22796">
        <ele>131</ele>
        <time>2017-10-31T14:37:46Z</time>
      </trkpt>
      <trkpt lat="46.30069" lon="-0.22801">
        <ele>131</ele>
        <time>2017-10-31T14:37:46Z</time>
      </trkpt>
      <trkpt lat="46.30064" lon="-0.22806">
        <ele>131</ele>
        <time>2017-10-31T14:37:46Z</time>
      </trkpt>
      <trkpt lat="46.30059" lon="-0.22812">
        <ele>131</ele>
        <time>2017-10-31T14:38:02Z</time>
      </trkpt>
      <trkpt lat="46.30055" lon="-0.22816">
        <ele>131</ele>
        <time>2017-10-31T14:38:02Z</time>
      </trkpt>
      <trkpt lat="46.30051" lon="-0.22819">
        <ele>131</ele>
        <time>2017-10-31T14:38:02Z</time>
      </trkpt>
      <trkpt lat="46.30047" lon="-0.22821">
        <ele>131</ele>
        <time>2017-10-31T14:38:02Z</time>
      </trkpt>
      <trkpt lat="46.30043" lon="-0.22824">
        <ele>131</ele>
        <time>2017-10-31T14:38:18Z</time>
      </trkpt>
      <trkpt lat="46.30037" lon="-0.2283">
        <ele>127</ele>
        <time>2017-10-31T14:38:18Z</time>
      </trkpt>
      <trkpt lat="46.30032" lon="-0.22834">
        <ele>127</ele>
        <time>2017-10-31T14:38:18Z</time>
      </trkpt>
      <trkpt lat="46.30027" lon="-0.22838">
        <ele>127</ele>
        <time>2017-10-31T14:38:18Z</time>
      </trkpt>
      <trkpt lat="46.30023" lon="-0.22843">
        <ele>127</ele>
        <time>2017-10-31T14:38:34Z</time>
      </trkpt>
      <trkpt lat="46.30018" lon="-0.22848">
        <ele>127</ele>
        <time>2017-10-31T14:38:34Z</time>
      </trkpt>
      <trkpt lat="46.30012" lon="-0.22851">
        <ele>127</ele>
        <time>2017-10-31T14:38:34Z</time>
      </trkpt>
      <trkpt lat="46.30007" lon="-0.22855">
        <ele>127</ele>
        <time>2017-10-31T14:38:34Z</time>
      </trkpt>
      <trkpt lat="46.30002" lon="-0.22859">
        <ele>127</ele>
        <time>2017-10-31T14:38:50Z</time>
      </trkpt>
      <trkpt lat="46.29998" lon="-0.2286">
        <ele>127</ele>
        <time>2017-10-31T14:38:50Z</time>
      </trkpt>
      <trkpt lat="46.29993" lon="-0.22864">
        <ele>127</ele>
        <time>2017-10-31T14:38:50Z</time>
      </trkpt>
      <trkpt lat="46.29987" lon="-0.22867">
        <ele>127</ele>
        <time>2017-10-31T14:38:50Z</time>
      </trkpt>
      <trkpt lat="46.29982" lon="-0.22869">
        <ele>127</ele>
        <time>2017-10-31T14:39:06Z</time>
      </trkpt>
      <trkpt lat="46.29977" lon="-0.22873">
        <ele>127</ele>
        <time>2017-10-31T14:39:06Z</time>
      </trkpt>
      <trkpt lat="46.29973" lon="-0.22878">
        <ele>130</ele>
        <time>2017-10-31T14:39:06Z</time>
      </trkpt>
      <trkpt lat="46.29971" lon="-0.22885">
        <ele>130</ele>
        <time>2017-10-31T14:39:06Z</time>
      </trkpt>
      <trkpt lat="46.2997" lon="-0.22892">
        <ele>130</ele>
        <time>2017-10-31T14:39:22Z</time>
      </trkpt>
      <trkpt lat="46.29972" lon="-0.22899">
        <ele>130</ele>
        <time>2017-10-31T14:39:22Z</time>
      </trkpt>
      <trkpt lat="46.29972" lon="-0.22904">
        <ele>130</ele>
        <time>2017-10-31T14:39:22Z</time>
      </trkpt>
      <trkpt lat="46.29973" lon="-0.22908">
        <ele>130</ele>
        <time>2017-10-31T14:39:22Z</time>
      </trkpt>
      <trkpt lat="46.29974" lon="-0.22913">
        <ele>130</ele>
        <time>2017-10-31T14:39:38Z</time>
      </trkpt>
      <trkpt lat="46.29976" lon="-0.22917">
        <ele>130</ele>
        <time>2017-10-31T14:39:38Z</time>
      </trkpt>
      <trkpt lat="46.29977" lon="-0.22921">
        <ele>130</ele>
        <time>2017-10-31T14:39:38Z</time>
      </trkpt>
      <trkpt lat="46.29979" lon="-0.22927">
        <ele>130</ele>
        <time>2017-10-31T14:39:38Z</time>
      </trkpt>
      <trkpt lat="46.2998" lon="-0.22932">
        <ele>130</ele>
        <time>2017-10-31T14:39:54Z</time>
      </trkpt>
      <trkpt lat="46.29984" lon="-0.22938">
        <ele>130</ele>
        <time>2017-10-31T14:39:54Z</time>
      </trkpt>
      <trkpt lat="46.29987" lon="-0.22943">
        <ele>130</ele>
        <time>2017-10-31T14:39:54Z</time>
      </trkpt>
      <trkpt lat="46.29989" lon="-0.22948">
        <ele>130</ele>
        <time>2017-10-31T14:39:54Z</time>
      </trkpt>
      <trkpt lat="46.29991" lon="-0.22954">
        <ele>130</ele>
        <time>2017-10-31T14:40:18Z</time>
      </trkpt>
      <trkpt lat="46.29991" lon="-0.22957">
        <ele>130</ele>
        <time>2017-10-31T14:40:18Z</time>
      </trkpt>
      <trkpt lat="46.29992" lon="-0.2296">
        <ele>130</ele>
        <time>2017-10-31T14:40:18Z</time>
      </trkpt>
      <trkpt lat="46.29994" lon="-0.22963">
        <ele>130</ele>
        <time>2017-10-31T14:40:18Z</time>
      </trkpt>
      <trkpt lat="46.29996" lon="-0.22968">
        <ele>130</ele>
        <time>2017-10-31T14:40:18Z</time>
      </trkpt>
      <trkpt lat="46.29998" lon="-0.22973">
        <ele>130</ele>
        <time>2017-10-31T14:40:34Z</time>
      </trkpt>
      <trkpt lat="46.3" lon="-0.22977">
        <ele>130</ele>
        <time>2017-10-31T14:40:34Z</time>
      </trkpt>
      <trkpt lat="46.30003" lon="-0.22982">
        <ele>130</ele>
        <time>2017-10-31T14:40:34Z</time>
      </trkpt>
      <trkpt lat="46.30006" lon="-0.22987">
        <ele>130</ele>
        <time>2017-10-31T14:40:34Z</time>
      </trkpt>
      <trkpt lat="46.30008" lon="-0.2299">
        <ele>130</ele>
        <time>2017-10-31T14:40:50Z</time>
      </trkpt>
      <trkpt lat="46.3001" lon="-0.22994">
        <ele>130</ele>
        <time>2017-10-31T14:40:50Z</time>
      </trkpt>
      <trkpt lat="46.30014" lon="-0.23">
        <ele>130</ele>
        <time>2017-10-31T14:40:50Z</time>
      </trkpt>
      <trkpt lat="46.30019" lon="-0.23005">
        <ele>130</ele>
        <time>2017-10-31T14:40:50Z</time>
      </trkpt>
      <trkpt lat="46.30022" lon="-0.2301">
        <ele>130</ele>
        <time>2017-10-31T14:41:06Z</time>
      </trkpt>
      <trkpt lat="46.30025" lon="-0.23014">
        <ele>130</ele>
        <time>2017-10-31T14:41:06Z</time>
      </trkpt>
      <trkpt lat="46.30029" lon="-0.23019">
        <ele>130</ele>
        <time>2017-10-31T14:41:06Z</time>
      </trkpt>
      <trkpt lat="46.30033" lon="-0.23023">
        <ele>130</ele>
        <time>2017-10-31T14:41:06Z</time>
      </trkpt>
      <trkpt lat="46.30036" lon="-0.23027">
        <ele>130</ele>
        <time>2017-10-31T14:41:26Z</time>
      </trkpt>
      <trkpt lat="46.30038" lon="-0.23033">
        <ele>130</ele>
        <time>2017-10-31T14:41:26Z</time>
      </trkpt>
      <trkpt lat="46.30039" lon="-0.23034">
        <ele>130</ele>
        <time>2017-10-31T14:41:26Z</time>
      </trkpt>
      <trkpt lat="46.30039" lon="-0.23035">
        <ele>130</ele>
        <time>2017-10-31T14:41:26Z</time>
      </trkpt>
      <trkpt lat="46.30041" lon="-0.23038">
        <ele>130</ele>
        <time>2017-10-31T14:41:26Z</time>
      </trkpt>
      <trkpt lat="46.30045" lon="-0.23039">
        <ele>132</ele>
        <time>2017-10-31T14:41:42Z</time>
      </trkpt>
      <trkpt lat="46.30049" lon="-0.23039">
        <ele>132</ele>
        <time>2017-10-31T14:41:42Z</time>
      </trkpt>
      <trkpt lat="46.30054" lon="-0.23037">
        <ele>132</ele>
        <time>2017-10-31T14:41:42Z</time>
      </trkpt>
      <trkpt lat="46.30059" lon="-0.23035">
        <ele>132</ele>
        <time>2017-10-31T14:41:42Z</time>
      </trkpt>
      <trkpt lat="46.30063" lon="-0.23035">
        <ele>132</ele>
        <time>2017-10-31T14:41:58Z</time>
      </trkpt>
      <trkpt lat="46.30069" lon="-0.23035">
        <ele>132</ele>
        <time>2017-10-31T14:41:58Z</time>
      </trkpt>
      <trkpt lat="46.30074" lon="-0.23033">
        <ele>132</ele>
        <time>2017-10-31T14:41:58Z</time>
      </trkpt>
      <trkpt lat="46.30078" lon="-0.23031">
        <ele>132</ele>
        <time>2017-10-31T14:41:58Z</time>
      </trkpt>
      <trkpt lat="46.30083" lon="-0.2303">
        <ele>132</ele>
        <time>2017-10-31T14:42:14Z</time>
      </trkpt>
      <trkpt lat="46.30087" lon="-0.23028">
        <ele>132</ele>
        <time>2017-10-31T14:42:14Z</time>
      </trkpt>
      <trkpt lat="46.30091" lon="-0.23027">
        <ele>132</ele>
        <time>2017-10-31T14:42:14Z</time>
      </trkpt>
      <trkpt lat="46.30095" lon="-0.23024">
        <ele>132</ele>
        <time>2017-10-31T14:42:14Z</time>
      </trkpt>
      <trkpt lat="46.301" lon="-0.23024">
        <ele>132</ele>
        <time>2017-10-31T14:42:30Z</time>
      </trkpt>
      <trkpt lat="46.30104" lon="-0.23021">
        <ele>132</ele>
        <time>2017-10-31T14:42:30Z</time>
      </trkpt>
      <trkpt lat="46.30107" lon="-0.23018">
        <ele>132</ele>
        <time>2017-10-31T14:42:30Z</time>
      </trkpt>
      <trkpt lat="46.30111" lon="-0.23015">
        <ele>132</ele>
        <time>2017-10-31T14:42:30Z</time>
      </trkpt>
      <trkpt lat="46.30115" lon="-0.23015">
        <ele>132</ele>
        <time>2017-10-31T14:42:46Z</time>
      </trkpt>
      <trkpt lat="46.30119" lon="-0.23013">
        <ele>132</ele>
        <time>2017-10-31T14:42:46Z</time>
      </trkpt>
      <trkpt lat="46.30123" lon="-0.23011">
        <ele>132</ele>
        <time>2017-10-31T14:42:46Z</time>
      </trkpt>
      <trkpt lat="46.30128" lon="-0.2301">
        <ele>137</ele>
        <time>2017-10-31T14:42:46Z</time>
      </trkpt>
      <trkpt lat="46.30132" lon="-0.23009">
        <ele>137</ele>
        <time>2017-10-31T14:43:02Z</time>
      </trkpt>
      <trkpt lat="46.30136" lon="-0.23008">
        <ele>137</ele>
        <time>2017-10-31T14:43:02Z</time>
      </trkpt>
      <trkpt lat="46.3014" lon="-0.23006">
        <ele>137</ele>
        <time>2017-10-31T14:43:02Z</time>
      </trkpt>
      <trkpt lat="46.30144" lon="-0.23004">
        <ele>137</ele>
        <time>2017-10-31T14:43:02Z</time>
      </trkpt>
      <trkpt lat="46.30149" lon="-0.23002">
        <ele>137</ele>
        <time>2017-10-31T14:43:18Z</time>
      </trkpt>
      <trkpt lat="46.30155" lon="-0.22999">
        <ele>137</ele>
        <time>2017-10-31T14:43:18Z</time>
      </trkpt>
      <trkpt lat="46.30161" lon="-0.22997">
        <ele>137</ele>
        <time>2017-10-31T14:43:18Z</time>
      </trkpt>
      <trkpt lat="46.30166" lon="-0.22995">
        <ele>137</ele>
        <time>2017-10-31T14:43:18Z</time>
      </trkpt>
      <trkpt lat="46.30171" lon="-0.22994">
        <ele>137</ele>
        <time>2017-10-31T14:43:34Z</time>
      </trkpt>
      <trkpt lat="46.30175" lon="-0.22992">
        <ele>137</ele>
        <time>2017-10-31T14:43:34Z</time>
      </trkpt>
      <trkpt lat="46.3018" lon="-0.2299">
        <ele>137</ele>
        <time>2017-10-31T14:43:34Z</time>
      </trkpt>
      <trkpt lat="46.30185" lon="-0.22989">
        <ele>137</ele>
        <time>2017-10-31T14:43:34Z</time>
      </trkpt>
      <trkpt lat="46.30189" lon="-0.22987">
        <ele>137</ele>
        <time>2017-10-31T14:43:50Z</time>
      </trkpt>
      <trkpt lat="46.30192" lon="-0.22985">
        <ele>137</ele>
        <time>2017-10-31T14:43:50Z</time>
      </trkpt>
      <trkpt lat="46.30196" lon="-0.22984">
        <ele>137</ele>
        <time>2017-10-31T14:43:50Z</time>
      </trkpt>
      <trkpt lat="46.30201" lon="-0.22982">
        <ele>137</ele>
        <time>2017-10-31T14:43:50Z</time>
      </trkpt>
      <trkpt lat="46.30206" lon="-0.22981">
        <ele>137</ele>
        <time>2017-10-31T14:44:06Z</time>
      </trkpt>
      <trkpt lat="46.30211" lon="-0.22979">
        <ele>140</ele>
        <time>2017-10-31T14:44:06Z</time>
      </trkpt>
      <trkpt lat="46.30215" lon="-0.22978">
        <ele>140</ele>
        <time>2017-10-31T14:44:06Z</time>
      </trkpt>
      <trkpt lat="46.3022" lon="-0.22976">
        <ele>140</ele>
        <time>2017-10-31T14:44:06Z</time>
      </trkpt>
      <trkpt lat="46.30225" lon="-0.22974">
        <ele>140</ele>
        <time>2017-10-31T14:44:22Z</time>
      </trkpt>
      <trkpt lat="46.30229" lon="-0.22972">
        <ele>140</ele>
        <time>2017-10-31T14:44:22Z</time>
      </trkpt>
      <trkpt lat="46.30234" lon="-0.2297">
        <ele>140</ele>
        <time>2017-10-31T14:44:22Z</time>
      </trkpt>
      <trkpt lat="46.30238" lon="-0.22968">
        <ele>140</ele>
        <time>2017-10-31T14:44:22Z</time>
      </trkpt>
      <trkpt lat="46.30242" lon="-0.22966">
        <ele>140</ele>
        <time>2017-10-31T14:44:38Z</time>
      </trkpt>
      <trkpt lat="46.30246" lon="-0.22964">
        <ele>140</ele>
        <time>2017-10-31T14:44:38Z</time>
      </trkpt>
      <trkpt lat="46.30248" lon="-0.22963">
        <ele>140</ele>
        <time>2017-10-31T14:44:38Z</time>
      </trkpt>
      <trkpt lat="46.30251" lon="-0.22961">
        <ele>140</ele>
        <time>2017-10-31T14:44:39Z</time>
      </trkpt>
      <trkpt lat="46.30252" lon="-0.2296">
        <ele>140</ele>
        <time>2017-10-31T14:44:58Z</time>
      </trkpt>
      <trkpt lat="46.30254" lon="-0.2296">
        <ele>140</ele>
        <time>2017-10-31T14:44:58Z</time>
      </trkpt>
      <trkpt lat="46.30256" lon="-0.22958">
        <ele>140</ele>
        <time>2017-10-31T14:44:58Z</time>
      </trkpt>
      <trkpt lat="46.30257" lon="-0.22958">
        <ele>140</ele>
        <time>2017-10-31T14:44:58Z</time>
      </trkpt>
      <trkpt lat="46.30261" lon="-0.22959">
        <ele>140</ele>
        <time>2017-10-31T14:44:58Z</time>
      </trkpt>
      <trkpt lat="46.30264" lon="-0.2296">
        <ele>140</ele>
        <time>2017-10-31T14:45:42Z</time>
      </trkpt>
      <trkpt lat="46.30266" lon="-0.22961">
        <ele>140</ele>
        <time>2017-10-31T14:45:42Z</time>
      </trkpt>
      <trkpt lat="46.30271" lon="-0.22962">
        <ele>140</ele>
        <time>2017-10-31T14:45:42Z</time>
      </trkpt>
      <trkpt lat="46.30273" lon="-0.22957">
        <ele>140</ele>
        <time>2017-10-31T14:45:42Z</time>
      </trkpt>
      <trkpt lat="46.30274" lon="-0.22952">
        <ele>140</ele>
        <time>2017-10-31T14:45:58Z</time>
      </trkpt>
      <trkpt lat="46.30276" lon="-0.22946">
        <ele>140</ele>
        <time>2017-10-31T14:45:58Z</time>
      </trkpt>
      <trkpt lat="46.30277" lon="-0.2294">
        <ele>140</ele>
        <time>2017-10-31T14:45:58Z</time>
      </trkpt>
      <trkpt lat="46.30279" lon="-0.22935">
        <ele>140</ele>
        <time>2017-10-31T14:45:58Z</time>
      </trkpt>
      <trkpt lat="46.30281" lon="-0.22932">
        <ele>140</ele>
        <time>2017-10-31T14:46:34Z</time>
      </trkpt>
      <trkpt lat="46.30281" lon="-0.22932">
        <ele>140</ele>
        <time>2017-10-31T14:46:34Z</time>
      </trkpt>
      <trkpt lat="46.30282" lon="-0.22924">
        <ele>140</ele>
        <time>2017-10-31T14:46:34Z</time>
      </trkpt>
      <trkpt lat="46.30284" lon="-0.22917">
        <ele>140</ele>
        <time>2017-10-31T14:46:34Z</time>
      </trkpt>
      <trkpt lat="46.30286" lon="-0.2291">
        <ele>140</ele>
        <time>2017-10-31T14:46:50Z</time>
      </trkpt>
      <trkpt lat="46.30287" lon="-0.22903">
        <ele>140</ele>
        <time>2017-10-31T14:46:50Z</time>
      </trkpt>
      <trkpt lat="46.30289" lon="-0.22896">
        <ele>140</ele>
        <time>2017-10-31T14:46:50Z</time>
      </trkpt>
      <trkpt lat="46.30291" lon="-0.22889">
        <ele>140</ele>
        <time>2017-10-31T14:46:50Z</time>
      </trkpt>
      <trkpt lat="46.30295" lon="-0.22882">
        <ele>141</ele>
        <time>2017-10-31T14:47:06Z</time>
      </trkpt>
      <trkpt lat="46.30301" lon="-0.22881">
        <ele>141</ele>
        <time>2017-10-31T14:47:06Z</time>
      </trkpt>
      <trkpt lat="46.30306" lon="-0.22882">
        <ele>141</ele>
        <time>2017-10-31T14:47:06Z</time>
      </trkpt>
      <trkpt lat="46.30311" lon="-0.22883">
        <ele>141</ele>
        <time>2017-10-31T14:47:06Z</time>
      </trkpt>
      <trkpt lat="46.30315" lon="-0.22883">
        <ele>141</ele>
        <time>2017-10-31T14:47:22Z</time>
      </trkpt>
      <trkpt lat="46.3032" lon="-0.22884">
        <ele>141</ele>
        <time>2017-10-31T14:47:22Z</time>
      </trkpt>
      <trkpt lat="46.30326" lon="-0.22884">
        <ele>141</ele>
        <time>2017-10-31T14:47:22Z</time>
      </trkpt>
      <trkpt lat="46.30331" lon="-0.22885">
        <ele>141</ele>
        <time>2017-10-31T14:47:22Z</time>
      </trkpt>
      <trkpt lat="46.30337" lon="-0.22885">
        <ele>141</ele>
        <time>2017-10-31T14:47:38Z</time>
      </trkpt>
      <trkpt lat="46.30343" lon="-0.22885">
        <ele>141</ele>
        <time>2017-10-31T14:47:38Z</time>
      </trkpt>
      <trkpt lat="46.30348" lon="-0.22885">
        <ele>141</ele>
        <time>2017-10-31T14:47:38Z</time>
      </trkpt>
      <trkpt lat="46.30353" lon="-0.22886">
        <ele>141</ele>
        <time>2017-10-31T14:47:38Z</time>
      </trkpt>
      <trkpt lat="46.30357" lon="-0.22886">
        <ele>141</ele>
        <time>2017-10-31T14:47:54Z</time>
      </trkpt>
      <trkpt lat="46.30361" lon="-0.22885">
        <ele>141</ele>
        <time>2017-10-31T14:47:54Z</time>
      </trkpt>
      <trkpt lat="46.30366" lon="-0.22885">
        <ele>141</ele>
        <time>2017-10-31T14:47:54Z</time>
      </trkpt>
      <trkpt lat="46.30372" lon="-0.22884">
        <ele>141</ele>
        <time>2017-10-31T14:47:54Z</time>
      </trkpt>
      <trkpt lat="46.30379" lon="-0.22883">
        <ele>139</ele>
        <time>2017-10-31T14:48:10Z</time>
      </trkpt>
      <trkpt lat="46.30384" lon="-0.22884">
        <ele>139</ele>
        <time>2017-10-31T14:48:10Z</time>
      </trkpt>
      <trkpt lat="46.30389" lon="-0.22885">
        <ele>139</ele>
        <time>2017-10-31T14:48:10Z</time>
      </trkpt>
      <trkpt lat="46.30394" lon="-0.22886">
        <ele>139</ele>
        <time>2017-10-31T14:48:10Z</time>
      </trkpt>
      <trkpt lat="46.30399" lon="-0.22885">
        <ele>139</ele>
        <time>2017-10-31T14:48:26Z</time>
      </trkpt>
      <trkpt lat="46.30404" lon="-0.22885">
        <ele>139</ele>
        <time>2017-10-31T14:48:26Z</time>
      </trkpt>
      <trkpt lat="46.30409" lon="-0.22886">
        <ele>139</ele>
        <time>2017-10-31T14:48:26Z</time>
      </trkpt>
      <trkpt lat="46.30414" lon="-0.22888">
        <ele>139</ele>
        <time>2017-10-31T14:48:26Z</time>
      </trkpt>
      <trkpt lat="46.30419" lon="-0.22888">
        <ele>139</ele>
        <time>2017-10-31T14:48:42Z</time>
      </trkpt>
      <trkpt lat="46.30423" lon="-0.22889">
        <ele>139</ele>
        <time>2017-10-31T14:48:42Z</time>
      </trkpt>
      <trkpt lat="46.30427" lon="-0.22889">
        <ele>139</ele>
        <time>2017-10-31T14:48:42Z</time>
      </trkpt>
      <trkpt lat="46.30431" lon="-0.22888">
        <ele>139</ele>
        <time>2017-10-31T14:48:42Z</time>
      </trkpt>
      <trkpt lat="46.30435" lon="-0.22889">
        <ele>139</ele>
        <time>2017-10-31T14:48:58Z</time>
      </trkpt>
      <trkpt lat="46.3044" lon="-0.22891">
        <ele>139</ele>
        <time>2017-10-31T14:48:58Z</time>
      </trkpt>
      <trkpt lat="46.30445" lon="-0.22892">
        <ele>139</ele>
        <time>2017-10-31T14:48:58Z</time>
      </trkpt>
      <trkpt lat="46.3045" lon="-0.2289">
        <ele>139</ele>
        <time>2017-10-31T14:48:58Z</time>
      </trkpt>
      <trkpt lat="46.30455" lon="-0.22889">
        <ele>139</ele>
        <time>2017-10-31T14:49:14Z</time>
      </trkpt>
      <trkpt lat="46.30461" lon="-0.22888">
        <ele>136</ele>
        <time>2017-10-31T14:49:14Z</time>
      </trkpt>
      <trkpt lat="46.30466" lon="-0.22889">
        <ele>136</ele>
        <time>2017-10-31T14:49:14Z</time>
      </trkpt>
      <trkpt lat="46.30471" lon="-0.2289">
        <ele>136</ele>
        <time>2017-10-31T14:49:14Z</time>
      </trkpt>
      <trkpt lat="46.30476" lon="-0.22889">
        <ele>136</ele>
        <time>2017-10-31T14:49:30Z</time>
      </trkpt>
      <trkpt lat="46.30481" lon="-0.22889">
        <ele>136</ele>
        <time>2017-10-31T14:49:30Z</time>
      </trkpt>
      <trkpt lat="46.30485" lon="-0.2289">
        <ele>136</ele>
        <time>2017-10-31T14:49:30Z</time>
      </trkpt>
      <trkpt lat="46.3049" lon="-0.22892">
        <ele>136</ele>
        <time>2017-10-31T14:49:30Z</time>
      </trkpt>
      <trkpt lat="46.30494" lon="-0.22894">
        <ele>136</ele>
        <time>2017-10-31T14:49:46Z</time>
      </trkpt>
      <trkpt lat="46.30498" lon="-0.22897">
        <ele>136</ele>
        <time>2017-10-31T14:49:46Z</time>
      </trkpt>
      <trkpt lat="46.30502" lon="-0.229">
        <ele>136</ele>
        <time>2017-10-31T14:49:46Z</time>
      </trkpt>
      <trkpt lat="46.30507" lon="-0.22902">
        <ele>136</ele>
        <time>2017-10-31T14:49:46Z</time>
      </trkpt>
      <trkpt lat="46.30512" lon="-0.22905">
        <ele>136</ele>
        <time>2017-10-31T14:50:02Z</time>
      </trkpt>
      <trkpt lat="46.30517" lon="-0.22907">
        <ele>136</ele>
        <time>2017-10-31T14:50:02Z</time>
      </trkpt>
      <trkpt lat="46.30522" lon="-0.2291">
        <ele>136</ele>
        <time>2017-10-31T14:50:02Z</time>
      </trkpt>
      <trkpt lat="46.30527" lon="-0.22912">
        <ele>136</ele>
        <time>2017-10-31T14:50:02Z</time>
      </trkpt>
      <trkpt lat="46.30532" lon="-0.22916">
        <ele>136</ele>
        <time>2017-10-31T14:50:18Z</time>
      </trkpt>
      <trkpt lat="46.30537" lon="-0.2292">
        <ele>136</ele>
        <time>2017-10-31T14:50:18Z</time>
      </trkpt>
      <trkpt lat="46.30542" lon="-0.22923">
        <ele>131</ele>
        <time>2017-10-31T14:50:18Z</time>
      </trkpt>
      <trkpt lat="46.30547" lon="-0.22925">
        <ele>131</ele>
        <time>2017-10-31T14:50:18Z</time>
      </trkpt>
      <trkpt lat="46.30551" lon="-0.22926">
        <ele>131</ele>
        <time>2017-10-31T14:50:34Z</time>
      </trkpt>
      <trkpt lat="46.30556" lon="-0.22928">
        <ele>131</ele>
        <time>2017-10-31T14:50:34Z</time>
      </trkpt>
      <trkpt lat="46.30561" lon="-0.2293">
        <ele>131</ele>
        <time>2017-10-31T14:50:34Z</time>
      </trkpt>
      <trkpt lat="46.30564" lon="-0.22932">
        <ele>131</ele>
        <time>2017-10-31T14:50:34Z</time>
      </trkpt>
      <trkpt lat="46.30567" lon="-0.22935">
        <ele>131</ele>
        <time>2017-10-31T14:50:50Z</time>
      </trkpt>
      <trkpt lat="46.3057" lon="-0.22938">
        <ele>131</ele>
        <time>2017-10-31T14:50:50Z</time>
      </trkpt>
      <trkpt lat="46.30574" lon="-0.22942">
        <ele>131</ele>
        <time>2017-10-31T14:50:50Z</time>
      </trkpt>
      <trkpt lat="46.30577" lon="-0.22946">
        <ele>131</ele>
        <time>2017-10-31T14:50:50Z</time>
      </trkpt>
      <trkpt lat="46.30578" lon="-0.2295">
        <ele>131</ele>
        <time>2017-10-31T14:51:06Z</time>
      </trkpt>
      <trkpt lat="46.3058" lon="-0.22952">
        <ele>131</ele>
        <time>2017-10-31T14:51:06Z</time>
      </trkpt>
      <trkpt lat="46.30584" lon="-0.22956">
        <ele>131</ele>
        <time>2017-10-31T14:51:06Z</time>
      </trkpt>
      <trkpt lat="46.30587" lon="-0.22962">
        <ele>132</ele>
        <time>2017-10-31T14:51:06Z</time>
      </trkpt>
      <trkpt lat="46.30589" lon="-0.22968">
        <ele>132</ele>
        <time>2017-10-31T14:51:22Z</time>
      </trkpt>
      <trkpt lat="46.30591" lon="-0.22973">
        <ele>132</ele>
        <time>2017-10-31T14:51:22Z</time>
      </trkpt>
      <trkpt lat="46.30593" lon="-0.22979">
        <ele>132</ele>
        <time>2017-10-31T14:51:22Z</time>
      </trkpt>
      <trkpt lat="46.30596" lon="-0.22986">
        <ele>132</ele>
        <time>2017-10-31T14:51:22Z</time>
      </trkpt>
      <trkpt lat="46.306" lon="-0.22993">
        <ele>132</ele>
        <time>2017-10-31T14:51:38Z</time>
      </trkpt>
      <trkpt lat="46.30603" lon="-0.23">
        <ele>132</ele>
        <time>2017-10-31T14:51:38Z</time>
      </trkpt>
      <trkpt lat="46.30606" lon="-0.23005">
        <ele>132</ele>
        <time>2017-10-31T14:51:38Z</time>
      </trkpt>
      <trkpt lat="46.30609" lon="-0.23011">
        <ele>132</ele>
        <time>2017-10-31T14:51:38Z</time>
      </trkpt>
      <trkpt lat="46.30611" lon="-0.23015">
        <ele>132</ele>
        <time>2017-10-31T14:51:54Z</time>
      </trkpt>
      <trkpt lat="46.30613" lon="-0.23023">
        <ele>132</ele>
        <time>2017-10-31T14:51:54Z</time>
      </trkpt>
      <trkpt lat="46.30616" lon="-0.23029">
        <ele>132</ele>
        <time>2017-10-31T14:51:54Z</time>
      </trkpt>
      <trkpt lat="46.30619" lon="-0.23035">
        <ele>132</ele>
        <time>2017-10-31T14:51:54Z</time>
      </trkpt>
      <trkpt lat="46.3062" lon="-0.23043">
        <ele>132</ele>
        <time>2017-10-31T14:52:10Z</time>
      </trkpt>
      <trkpt lat="46.30621" lon="-0.23052">
        <ele>132</ele>
        <time>2017-10-31T14:52:10Z</time>
      </trkpt>
      <trkpt lat="46.30623" lon="-0.23058">
        <ele>132</ele>
        <time>2017-10-31T14:52:10Z</time>
      </trkpt>
      <trkpt lat="46.30626" lon="-0.23064">
        <ele>128</ele>
        <time>2017-10-31T14:52:10Z</time>
      </trkpt>
      <trkpt lat="46.30629" lon="-0.23071">
        <ele>128</ele>
        <time>2017-10-31T14:52:26Z</time>
      </trkpt>
      <trkpt lat="46.30632" lon="-0.23078">
        <ele>128</ele>
        <time>2017-10-31T14:52:26Z</time>
      </trkpt>
      <trkpt lat="46.30634" lon="-0.23085">
        <ele>128</ele>
        <time>2017-10-31T14:52:26Z</time>
      </trkpt>
      <trkpt lat="46.30639" lon="-0.23091">
        <ele>128</ele>
        <time>2017-10-31T14:52:26Z</time>
      </trkpt>
      <trkpt lat="46.30643" lon="-0.23096">
        <ele>128</ele>
        <time>2017-10-31T14:52:42Z</time>
      </trkpt>
      <trkpt lat="46.30646" lon="-0.23102">
        <ele>128</ele>
        <time>2017-10-31T14:52:42Z</time>
      </trkpt>
      <trkpt lat="46.30651" lon="-0.23111">
        <ele>128</ele>
        <time>2017-10-31T14:52:42Z</time>
      </trkpt>
      <trkpt lat="46.30654" lon="-0.23119">
        <ele>128</ele>
        <time>2017-10-31T14:52:42Z</time>
      </trkpt>
      <trkpt lat="46.30657" lon="-0.23124">
        <ele>128</ele>
        <time>2017-10-31T14:52:58Z</time>
      </trkpt>
      <trkpt lat="46.30658" lon="-0.23129">
        <ele>131</ele>
        <time>2017-10-31T14:52:58Z</time>
      </trkpt>
      <trkpt lat="46.30661" lon="-0.23134">
        <ele>131</ele>
        <time>2017-10-31T14:52:58Z</time>
      </trkpt>
      <trkpt lat="46.30663" lon="-0.23139">
        <ele>131</ele>
        <time>2017-10-31T14:52:58Z</time>
      </trkpt>
      <trkpt lat="46.30666" lon="-0.23145">
        <ele>131</ele>
        <time>2017-10-31T14:53:14Z</time>
      </trkpt>
      <trkpt lat="46.30669" lon="-0.23152">
        <ele>131</ele>
        <time>2017-10-31T14:53:14Z</time>
      </trkpt>
      <trkpt lat="46.30672" lon="-0.23159">
        <ele>131</ele>
        <time>2017-10-31T14:53:14Z</time>
      </trkpt>
      <trkpt lat="46.30674" lon="-0.23166">
        <ele>131</ele>
        <time>2017-10-31T14:53:14Z</time>
      </trkpt>
      <trkpt lat="46.30677" lon="-0.23172">
        <ele>131</ele>
        <time>2017-10-31T14:53:30Z</time>
      </trkpt>
      <trkpt lat="46.3068" lon="-0.23179">
        <ele>131</ele>
        <time>2017-10-31T14:53:30Z</time>
      </trkpt>
      <trkpt lat="46.30682" lon="-0.23186">
        <ele>131</ele>
        <time>2017-10-31T14:53:30Z</time>
      </trkpt>
      <trkpt lat="46.30685" lon="-0.23193">
        <ele>131</ele>
        <time>2017-10-31T14:53:30Z</time>
      </trkpt>
      <trkpt lat="46.30687" lon="-0.23199">
        <ele>131</ele>
        <time>2017-10-31T14:53:46Z</time>
      </trkpt>
      <trkpt lat="46.3069" lon="-0.23204">
        <ele>131</ele>
        <time>2017-10-31T14:53:46Z</time>
      </trkpt>
      <trkpt lat="46.30694" lon="-0.23208">
        <ele>131</ele>
        <time>2017-10-31T14:53:46Z</time>
      </trkpt>
      <trkpt lat="46.30697" lon="-0.23213">
        <ele>137</ele>
        <time>2017-10-31T14:53:46Z</time>
      </trkpt>
      <trkpt lat="46.30701" lon="-0.23218">
        <ele>137</ele>
        <time>2017-10-31T14:54:06Z</time>
      </trkpt>
      <trkpt lat="46.30704" lon="-0.23219">
        <ele>137</ele>
        <time>2017-10-31T14:54:06Z</time>
      </trkpt>
      <trkpt lat="46.30706" lon="-0.23217">
        <ele>137</ele>
        <time>2017-10-31T14:54:06Z</time>
      </trkpt>
      <trkpt lat="46.30708" lon="-0.23214">
        <ele>137</ele>
        <time>2017-10-31T14:54:06Z</time>
      </trkpt>
      <trkpt lat="46.30711" lon="-0.2321">
        <ele>132</ele>
        <time>2017-10-31T14:54:06Z</time>
      </trkpt>
      <trkpt lat="46.30714" lon="-0.23206">
        <ele>129</ele>
        <time>2017-10-31T14:54:22Z</time>
      </trkpt>
      <trkpt lat="46.30716" lon="-0.23202">
        <ele>129</ele>
        <time>2017-10-31T14:54:22Z</time>
      </trkpt>
      <trkpt lat="46.30718" lon="-0.23197">
        <ele>129</ele>
        <time>2017-10-31T14:54:22Z</time>
      </trkpt>
      <trkpt lat="46.30722" lon="-0.23192">
        <ele>129</ele>
        <time>2017-10-31T14:54:22Z</time>
      </trkpt>
      <trkpt lat="46.30726" lon="-0.23186">
        <ele>129</ele>
        <time>2017-10-31T14:54:38Z</time>
      </trkpt>
      <trkpt lat="46.30728" lon="-0.23182">
        <ele>129</ele>
        <time>2017-10-31T14:54:38Z</time>
      </trkpt>
      <trkpt lat="46.3073" lon="-0.23177">
        <ele>129</ele>
        <time>2017-10-31T14:54:38Z</time>
      </trkpt>
      <trkpt lat="46.30733" lon="-0.23171">
        <ele>129</ele>
        <time>2017-10-31T14:54:38Z</time>
      </trkpt>
      <trkpt lat="46.30736" lon="-0.23165">
        <ele>129</ele>
        <time>2017-10-31T14:54:54Z</time>
      </trkpt>
      <trkpt lat="46.30741" lon="-0.23159">
        <ele>129</ele>
        <time>2017-10-31T14:54:54Z</time>
      </trkpt>
      <trkpt lat="46.30743" lon="-0.23157">
        <ele>129</ele>
        <time>2017-10-31T14:54:54Z</time>
      </trkpt>
      <trkpt lat="46.30744" lon="-0.23157">
        <ele>129</ele>
        <time>2017-10-31T14:54:54Z</time>
      </trkpt>
      <trkpt lat="46.30748" lon="-0.2315">
        <ele>129</ele>
        <time>2017-10-31T14:55:10Z</time>
      </trkpt>
      <trkpt lat="46.30751" lon="-0.23145">
        <ele>129</ele>
        <time>2017-10-31T14:55:10Z</time>
      </trkpt>
      <trkpt lat="46.30755" lon="-0.2314">
        <ele>129</ele>
        <time>2017-10-31T14:55:10Z</time>
      </trkpt>
      <trkpt lat="46.30759" lon="-0.23134">
        <ele>129</ele>
        <time>2017-10-31T14:55:10Z</time>
      </trkpt>
      <trkpt lat="46.30762" lon="-0.2313">
        <ele>129</ele>
        <time>2017-10-31T14:55:26Z</time>
      </trkpt>
      <trkpt lat="46.30765" lon="-0.23126">
        <ele>129</ele>
        <time>2017-10-31T14:55:26Z</time>
      </trkpt>
      <trkpt lat="46.30766" lon="-0.23123">
        <ele>125</ele>
        <time>2017-10-31T14:55:26Z</time>
      </trkpt>
      <trkpt lat="46.30769" lon="-0.23121">
        <ele>125</ele>
        <time>2017-10-31T14:55:26Z</time>
      </trkpt>
      <trkpt lat="46.3077" lon="-0.2312">
        <ele>125</ele>
        <time>2017-10-31T14:55:46Z</time>
      </trkpt>
      <trkpt lat="46.3077" lon="-0.2312">
        <ele>125</ele>
        <time>2017-10-31T14:55:46Z</time>
      </trkpt>
      <trkpt lat="46.30776" lon="-0.23118">
        <ele>125</ele>
        <time>2017-10-31T14:55:46Z</time>
      </trkpt>
      <trkpt lat="46.30779" lon="-0.23118">
        <ele>125</ele>
        <time>2017-10-31T14:55:46Z</time>
      </trkpt>
      <trkpt lat="46.30781" lon="-0.23117">
        <ele>125</ele>
        <time>2017-10-31T14:55:46Z</time>
      </trkpt>
      <trkpt lat="46.30784" lon="-0.23116">
        <ele>125</ele>
        <time>2017-10-31T14:56:02Z</time>
      </trkpt>
      <trkpt lat="46.30786" lon="-0.23116">
        <ele>125</ele>
        <time>2017-10-31T14:56:02Z</time>
      </trkpt>
      <trkpt lat="46.30789" lon="-0.23115">
        <ele>125</ele>
        <time>2017-10-31T14:56:02Z</time>
      </trkpt>
      <trkpt lat="46.30793" lon="-0.23113">
        <ele>124</ele>
        <time>2017-10-31T14:56:02Z</time>
      </trkpt>
      <trkpt lat="46.30798" lon="-0.23111">
        <ele>124</ele>
        <time>2017-10-31T14:56:18Z</time>
      </trkpt>
      <trkpt lat="46.30802" lon="-0.23108">
        <ele>124</ele>
        <time>2017-10-31T14:56:18Z</time>
      </trkpt>
      <trkpt lat="46.30806" lon="-0.23105">
        <ele>124</ele>
        <time>2017-10-31T14:56:18Z</time>
      </trkpt>
      <trkpt lat="46.30809" lon="-0.23103">
        <ele>124</ele>
        <time>2017-10-31T14:56:18Z</time>
      </trkpt>
      <trkpt lat="46.30813" lon="-0.23099">
        <ele>124</ele>
        <time>2017-10-31T14:56:34Z</time>
      </trkpt>
      <trkpt lat="46.30817" lon="-0.23095">
        <ele>124</ele>
        <time>2017-10-31T14:56:34Z</time>
      </trkpt>
      <trkpt lat="46.30821" lon="-0.23091">
        <ele>124</ele>
        <time>2017-10-31T14:56:34Z</time>
      </trkpt>
      <trkpt lat="46.30825" lon="-0.23087">
        <ele>124</ele>
        <time>2017-10-31T14:56:34Z</time>
      </trkpt>
      <trkpt lat="46.30829" lon="-0.23085">
        <ele>124</ele>
        <time>2017-10-31T14:56:58Z</time>
      </trkpt>
      <trkpt lat="46.3083" lon="-0.23085">
        <ele>124</ele>
        <time>2017-10-31T14:56:58Z</time>
      </trkpt>
      <trkpt lat="46.30834" lon="-0.23087">
        <ele>124</ele>
        <time>2017-10-31T14:56:58Z</time>
      </trkpt>
      <trkpt lat="46.30836" lon="-0.23086">
        <ele>124</ele>
        <time>2017-10-31T14:56:58Z</time>
      </trkpt>
      <trkpt lat="46.3084" lon="-0.23087">
        <ele>124</ele>
        <time>2017-10-31T14:56:58Z</time>
      </trkpt>
      <trkpt lat="46.30839" lon="-0.23083">
        <ele>124</ele>
        <time>2017-10-31T14:57:18Z</time>
      </trkpt>
      <trkpt lat="46.3084" lon="-0.2308">
        <ele>124</ele>
        <time>2017-10-31T14:57:18Z</time>
      </trkpt>
      <trkpt lat="46.30842" lon="-0.23079">
        <ele>124</ele>
        <time>2017-10-31T14:57:18Z</time>
      </trkpt>
      <trkpt lat="46.30844" lon="-0.23075">
        <ele>124</ele>
        <time>2017-10-31T14:57:18Z</time>
      </trkpt>
      <trkpt lat="46.30845" lon="-0.23072">
        <ele>124</ele>
        <time>2017-10-31T14:57:18Z</time>
      </trkpt>
      <trkpt lat="46.30847" lon="-0.23068">
        <ele>124</ele>
        <time>2017-10-31T14:57:34Z</time>
      </trkpt>
      <trkpt lat="46.30851" lon="-0.23065">
        <ele>124</ele>
        <time>2017-10-31T14:57:34Z</time>
      </trkpt>
      <trkpt lat="46.30856" lon="-0.23063">
        <ele>124</ele>
        <time>2017-10-31T14:57:34Z</time>
      </trkpt>
      <trkpt lat="46.30862" lon="-0.23063">
        <ele>124</ele>
        <time>2017-10-31T14:57:34Z</time>
      </trkpt>
      <trkpt lat="46.30867" lon="-0.23063">
        <ele>124</ele>
        <time>2017-10-31T14:57:50Z</time>
      </trkpt>
      <trkpt lat="46.30871" lon="-0.23062">
        <ele>124</ele>
        <time>2017-10-31T14:57:50Z</time>
      </trkpt>
      <trkpt lat="46.30876" lon="-0.23062">
        <ele>125</ele>
        <time>2017-10-31T14:57:50Z</time>
      </trkpt>
      <trkpt lat="46.30881" lon="-0.23062">
        <ele>125</ele>
        <time>2017-10-31T14:57:50Z</time>
      </trkpt>
      <trkpt lat="46.30886" lon="-0.23062">
        <ele>125</ele>
        <time>2017-10-31T14:58:06Z</time>
      </trkpt>
      <trkpt lat="46.3089" lon="-0.23062">
        <ele>125</ele>
        <time>2017-10-31T14:58:06Z</time>
      </trkpt>
      <trkpt lat="46.30894" lon="-0.23061">
        <ele>125</ele>
        <time>2017-10-31T14:58:06Z</time>
      </trkpt>
      <trkpt lat="46.30898" lon="-0.23058">
        <ele>125</ele>
        <time>2017-10-31T14:58:06Z</time>
      </trkpt>
      <trkpt lat="46.30903" lon="-0.23056">
        <ele>125</ele>
        <time>2017-10-31T14:58:22Z</time>
      </trkpt>
      <trkpt lat="46.30905" lon="-0.23052">
        <ele>125</ele>
        <time>2017-10-31T14:58:22Z</time>
      </trkpt>
      <trkpt lat="46.30909" lon="-0.23047">
        <ele>125</ele>
        <time>2017-10-31T14:58:22Z</time>
      </trkpt>
      <trkpt lat="46.30912" lon="-0.23044">
        <ele>125</ele>
        <time>2017-10-31T14:58:22Z</time>
      </trkpt>
      <trkpt lat="46.30919" lon="-0.23036">
        <ele>128</ele>
        <time>2017-10-31T14:59:30Z</time>
      </trkpt>
      <trkpt lat="46.30925" lon="-0.23034">
        <ele>128</ele>
        <time>2017-10-31T14:59:30Z</time>
      </trkpt>
      <trkpt lat="46.30929" lon="-0.23028">
        <ele>128</ele>
        <time>2017-10-31T14:59:30Z</time>
      </trkpt>
      <trkpt lat="46.30932" lon="-0.23025">
        <ele>128</ele>
        <time>2017-10-31T14:59:30Z</time>
      </trkpt>
      <trkpt lat="46.30934" lon="-0.23022">
        <ele>128</ele>
        <time>2017-10-31T14:59:30Z</time>
      </trkpt>
      <trkpt lat="46.30936" lon="-0.2302">
        <ele>128</ele>
        <time>2017-10-31T14:59:46Z</time>
      </trkpt>
      <trkpt lat="46.30939" lon="-0.23017">
        <ele>128</ele>
        <time>2017-10-31T14:59:46Z</time>
      </trkpt>
      <trkpt lat="46.30944" lon="-0.23014">
        <ele>128</ele>
        <time>2017-10-31T14:59:46Z</time>
      </trkpt>
      <trkpt lat="46.30948" lon="-0.23009">
        <ele>128</ele>
        <time>2017-10-31T14:59:46Z</time>
      </trkpt>
      <trkpt lat="46.30952" lon="-0.23003">
        <ele>128</ele>
        <time>2017-10-31T15:00:02Z</time>
      </trkpt>
      <trkpt lat="46.30957" lon="-0.22997">
        <ele>128</ele>
        <time>2017-10-31T15:00:02Z</time>
      </trkpt>
      <trkpt lat="46.30961" lon="-0.22992">
        <ele>126</ele>
        <time>2017-10-31T15:00:02Z</time>
      </trkpt>
      <trkpt lat="46.30963" lon="-0.22988">
        <ele>126</ele>
        <time>2017-10-31T15:00:02Z</time>
      </trkpt>
      <trkpt lat="46.30964" lon="-0.22987">
        <ele>126</ele>
        <time>2017-10-31T15:00:58Z</time>
      </trkpt>
      <trkpt lat="46.30965" lon="-0.22987">
        <ele>126</ele>
        <time>2017-10-31T15:00:58Z</time>
      </trkpt>
      <trkpt lat="46.30971" lon="-0.22977">
        <ele>126</ele>
        <time>2017-10-31T15:00:58Z</time>
      </trkpt>
      <trkpt lat="46.30972" lon="-0.22978">
        <ele>126</ele>
        <time>2017-10-31T15:00:58Z</time>
      </trkpt>
      <trkpt lat="46.30973" lon="-0.22975">
        <ele>126</ele>
        <time>2017-10-31T15:01:34Z</time>
      </trkpt>
      <trkpt lat="46.30972" lon="-0.22971">
        <ele>126</ele>
        <time>2017-10-31T15:01:34Z</time>
      </trkpt>
      <trkpt lat="46.30971" lon="-0.22968">
        <ele>126</ele>
        <time>2017-10-31T15:01:34Z</time>
      </trkpt>
      <trkpt lat="46.30969" lon="-0.22965">
        <ele>126</ele>
        <time>2017-10-31T15:01:34Z</time>
      </trkpt>
      <trkpt lat="46.30967" lon="-0.2296">
        <ele>126</ele>
        <time>2017-10-31T15:01:34Z</time>
      </trkpt>
      <trkpt lat="46.30963" lon="-0.22955">
        <ele>126</ele>
        <time>2017-10-31T15:01:50Z</time>
      </trkpt>
      <trkpt lat="46.30961" lon="-0.22952">
        <ele>126</ele>
        <time>2017-10-31T15:01:50Z</time>
      </trkpt>
      <trkpt lat="46.30958" lon="-0.22948">
        <ele>131</ele>
        <time>2017-10-31T15:01:50Z</time>
      </trkpt>
      <trkpt lat="46.30956" lon="-0.22943">
        <ele>131</ele>
        <time>2017-10-31T15:01:50Z</time>
      </trkpt>
      <trkpt lat="46.30953" lon="-0.22939">
        <ele>131</ele>
        <time>2017-10-31T15:02:06Z</time>
      </trkpt>
      <trkpt lat="46.3095" lon="-0.22935">
        <ele>131</ele>
        <time>2017-10-31T15:02:06Z</time>
      </trkpt>
      <trkpt lat="46.30947" lon="-0.2293">
        <ele>131</ele>
        <time>2017-10-31T15:02:06Z</time>
      </trkpt>
      <trkpt lat="46.30945" lon="-0.22928">
        <ele>131</ele>
        <time>2017-10-31T15:02:06Z</time>
      </trkpt>
      <trkpt lat="46.30944" lon="-0.22925">
        <ele>131</ele>
        <time>2017-10-31T15:02:22Z</time>
      </trkpt>
      <trkpt lat="46.30935" lon="-0.22912">
        <ele>131</ele>
        <time>2017-10-31T15:02:22Z</time>
      </trkpt>
      <trkpt lat="46.30932" lon="-0.22904">
        <ele>131</ele>
        <time>2017-10-31T15:02:22Z</time>
      </trkpt>
      <trkpt lat="46.3093" lon="-0.22898">
        <ele>131</ele>
        <time>2017-10-31T15:02:22Z</time>
      </trkpt>
      <trkpt lat="46.30927" lon="-0.22892">
        <ele>131</ele>
        <time>2017-10-31T15:02:38Z</time>
      </trkpt>
      <trkpt lat="46.30926" lon="-0.22887">
        <ele>131</ele>
        <time>2017-10-31T15:02:38Z</time>
      </trkpt>
      <trkpt lat="46.30926" lon="-0.22883">
        <ele>131</ele>
        <time>2017-10-31T15:02:38Z</time>
      </trkpt>
      <trkpt lat="46.30926" lon="-0.22878">
        <ele>131</ele>
        <time>2017-10-31T15:02:38Z</time>
      </trkpt>
      <trkpt lat="46.30927" lon="-0.22874">
        <ele>133</ele>
        <time>2017-10-31T15:02:58Z</time>
      </trkpt>
      <trkpt lat="46.30927" lon="-0.22871">
        <ele>133</ele>
        <time>2017-10-31T15:02:58Z</time>
      </trkpt>
      <trkpt lat="46.30928" lon="-0.22868">
        <ele>133</ele>
        <time>2017-10-31T15:02:58Z</time>
      </trkpt>
      <trkpt lat="46.30928" lon="-0.22865">
        <ele>133</ele>
        <time>2017-10-31T15:02:58Z</time>
      </trkpt>
      <trkpt lat="46.3093" lon="-0.22861">
        <ele>133</ele>
        <time>2017-10-31T15:02:58Z</time>
      </trkpt>
      <trkpt lat="46.30933" lon="-0.22858">
        <ele>133</ele>
        <time>2017-10-31T15:03:14Z</time>
      </trkpt>
      <trkpt lat="46.30937" lon="-0.22853">
        <ele>133</ele>
        <time>2017-10-31T15:03:14Z</time>
      </trkpt>
      <trkpt lat="46.3094" lon="-0.22849">
        <ele>133</ele>
        <time>2017-10-31T15:03:14Z</time>
      </trkpt>
      <trkpt lat="46.30943" lon="-0.22844">
        <ele>133</ele>
        <time>2017-10-31T15:03:14Z</time>
      </trkpt>
      <trkpt lat="46.30945" lon="-0.2284">
        <ele>133</ele>
        <time>2017-10-31T15:03:30Z</time>
      </trkpt>
      <trkpt lat="46.30947" lon="-0.22836">
        <ele>133</ele>
        <time>2017-10-31T15:03:30Z</time>
      </trkpt>
      <trkpt lat="46.30947" lon="-0.22832">
        <ele>133</ele>
        <time>2017-10-31T15:03:30Z</time>
      </trkpt>
      <trkpt lat="46.30947" lon="-0.22826">
        <ele>133</ele>
        <time>2017-10-31T15:03:30Z</time>
      </trkpt>
      <trkpt lat="46.30947" lon="-0.22822">
        <ele>133</ele>
        <time>2017-10-31T15:03:50Z</time>
      </trkpt>
      <trkpt lat="46.30945" lon="-0.22816">
        <ele>133</ele>
        <time>2017-10-31T15:03:50Z</time>
      </trkpt>
      <trkpt lat="46.30944" lon="-0.22805">
        <ele>133</ele>
        <time>2017-10-31T15:03:50Z</time>
      </trkpt>
      <trkpt lat="46.30943" lon="-0.22798">
        <ele>133</ele>
        <time>2017-10-31T15:03:50Z</time>
      </trkpt>
      <trkpt lat="46.30942" lon="-0.22794">
        <ele>133</ele>
        <time>2017-10-31T15:04:06Z</time>
      </trkpt>
      <trkpt lat="46.3094" lon="-0.22788">
        <ele>135</ele>
        <time>2017-10-31T15:04:06Z</time>
      </trkpt>
      <trkpt lat="46.3094" lon="-0.22784">
        <ele>135</ele>
        <time>2017-10-31T15:04:06Z</time>
      </trkpt>
      <trkpt lat="46.30939" lon="-0.2278">
        <ele>135</ele>
        <time>2017-10-31T15:04:06Z</time>
      </trkpt>
      <trkpt lat="46.30937" lon="-0.2277">
        <ele>135</ele>
        <time>2017-10-31T15:04:58Z</time>
      </trkpt>
      <trkpt lat="46.30931" lon="-0.22764">
        <ele>135</ele>
        <time>2017-10-31T15:04:58Z</time>
      </trkpt>
      <trkpt lat="46.3093" lon="-0.22761">
        <ele>135</ele>
        <time>2017-10-31T15:04:58Z</time>
      </trkpt>
      <trkpt lat="46.3093" lon="-0.22759">
        <ele>135</ele>
        <time>2017-10-31T15:04:58Z</time>
      </trkpt>
      <trkpt lat="46.3093" lon="-0.22755">
        <ele>135</ele>
        <time>2017-10-31T15:04:58Z</time>
      </trkpt>
      <trkpt lat="46.30929" lon="-0.2275">
        <ele>135</ele>
        <time>2017-10-31T15:05:14Z</time>
      </trkpt>
      <trkpt lat="46.30927" lon="-0.22745">
        <ele>135</ele>
        <time>2017-10-31T15:05:14Z</time>
      </trkpt>
      <trkpt lat="46.30925" lon="-0.2274">
        <ele>135</ele>
        <time>2017-10-31T15:05:14Z</time>
      </trkpt>
      <trkpt lat="46.30923" lon="-0.22736">
        <ele>135</ele>
        <time>2017-10-31T15:05:14Z</time>
      </trkpt>
      <trkpt lat="46.30921" lon="-0.22731">
        <ele>135</ele>
        <time>2017-10-31T15:05:30Z</time>
      </trkpt>
      <trkpt lat="46.30918" lon="-0.22728">
        <ele>135</ele>
        <time>2017-10-31T15:05:30Z</time>
      </trkpt>
      <trkpt lat="46.30916" lon="-0.22724">
        <ele>135</ele>
        <time>2017-10-31T15:05:30Z</time>
      </trkpt>
      <trkpt lat="46.30915" lon="-0.22719">
        <ele>135</ele>
        <time>2017-10-31T15:05:30Z</time>
      </trkpt>
      <trkpt lat="46.30914" lon="-0.22714">
        <ele>135</ele>
        <time>2017-10-31T15:05:46Z</time>
      </trkpt>
      <trkpt lat="46.30913" lon="-0.22708">
        <ele>138</ele>
        <time>2017-10-31T15:05:46Z</time>
      </trkpt>
      <trkpt lat="46.30912" lon="-0.227">
        <ele>138</ele>
        <time>2017-10-31T15:05:46Z</time>
      </trkpt>
      <trkpt lat="46.30911" lon="-0.22691">
        <ele>138</ele>
        <time>2017-10-31T15:05:46Z</time>
      </trkpt>
      <trkpt lat="46.30908" lon="-0.22682">
        <ele>138</ele>
        <time>2017-10-31T15:06:02Z</time>
      </trkpt>
      <trkpt lat="46.30904" lon="-0.22674">
        <ele>138</ele>
        <time>2017-10-31T15:06:02Z</time>
      </trkpt>
      <trkpt lat="46.309" lon="-0.22667">
        <ele>138</ele>
        <time>2017-10-31T15:06:02Z</time>
      </trkpt>
      <trkpt lat="46.30896" lon="-0.22659">
        <ele>138</ele>
        <time>2017-10-31T15:06:02Z</time>
      </trkpt>
      <trkpt lat="46.30895" lon="-0.22654">
        <ele>138</ele>
        <time>2017-10-31T15:06:18Z</time>
      </trkpt>
      <trkpt lat="46.30893" lon="-0.22648">
        <ele>138</ele>
        <time>2017-10-31T15:06:18Z</time>
      </trkpt>
      <trkpt lat="46.30891" lon="-0.22642">
        <ele>138</ele>
        <time>2017-10-31T15:06:18Z</time>
      </trkpt>
      <trkpt lat="46.30889" lon="-0.22636">
        <ele>138</ele>
        <time>2017-10-31T15:06:18Z</time>
      </trkpt>
      <trkpt lat="46.30889" lon="-0.22631">
        <ele>138</ele>
        <time>2017-10-31T15:06:34Z</time>
      </trkpt>
      <trkpt lat="46.30888" lon="-0.22625">
        <ele>139</ele>
        <time>2017-10-31T15:06:34Z</time>
      </trkpt>
      <trkpt lat="46.30886" lon="-0.2262">
        <ele>139</ele>
        <time>2017-10-31T15:06:34Z</time>
      </trkpt>
      <trkpt lat="46.30884" lon="-0.22614">
        <ele>139</ele>
        <time>2017-10-31T15:06:34Z</time>
      </trkpt>
      <trkpt lat="46.30884" lon="-0.22608">
        <ele>139</ele>
        <time>2017-10-31T15:06:50Z</time>
      </trkpt>
      <trkpt lat="46.30883" lon="-0.22602">
        <ele>139</ele>
        <time>2017-10-31T15:06:50Z</time>
      </trkpt>
      <trkpt lat="46.30882" lon="-0.22597">
        <ele>139</ele>
        <time>2017-10-31T15:06:50Z</time>
      </trkpt>
      <trkpt lat="46.30881" lon="-0.2259">
        <ele>139</ele>
        <time>2017-10-31T15:06:50Z</time>
      </trkpt>
      <trkpt lat="46.3088" lon="-0.22583">
        <ele>139</ele>
        <time>2017-10-31T15:07:06Z</time>
      </trkpt>
      <trkpt lat="46.30879" lon="-0.22577">
        <ele>139</ele>
        <time>2017-10-31T15:07:06Z</time>
      </trkpt>
      <trkpt lat="46.30879" lon="-0.2257">
        <ele>139</ele>
        <time>2017-10-31T15:07:06Z</time>
      </trkpt>
      <trkpt lat="46.30879" lon="-0.22565">
        <ele>139</ele>
        <time>2017-10-31T15:07:06Z</time>
      </trkpt>
      <trkpt lat="46.3088" lon="-0.22561">
        <ele>139</ele>
        <time>2017-10-31T15:07:22Z</time>
      </trkpt>
      <trkpt lat="46.3088" lon="-0.22555">
        <ele>139</ele>
        <time>2017-10-31T15:07:22Z</time>
      </trkpt>
      <trkpt lat="46.3088" lon="-0.22548">
        <ele>139</ele>
        <time>2017-10-31T15:07:22Z</time>
      </trkpt>
      <trkpt lat="46.30878" lon="-0.22541">
        <ele>139</ele>
        <time>2017-10-31T15:07:22Z</time>
      </trkpt>
      <trkpt lat="46.30876" lon="-0.22532">
        <ele>139</ele>
        <time>2017-10-31T15:07:38Z</time>
      </trkpt>
      <trkpt lat="46.30875" lon="-0.22526">
        <ele>139</ele>
        <time>2017-10-31T15:07:38Z</time>
      </trkpt>
      <trkpt lat="46.30874" lon="-0.22518">
        <ele>138</ele>
        <time>2017-10-31T15:07:38Z</time>
      </trkpt>
      <trkpt lat="46.30872" lon="-0.22509">
        <ele>138</ele>
        <time>2017-10-31T15:07:38Z</time>
      </trkpt>
      <trkpt lat="46.30869" lon="-0.22501">
        <ele>138</ele>
        <time>2017-10-31T15:08:02Z</time>
      </trkpt>
      <trkpt lat="46.30869" lon="-0.22499">
        <ele>138</ele>
        <time>2017-10-31T15:08:02Z</time>
      </trkpt>
      <trkpt lat="46.30867" lon="-0.22496">
        <ele>138</ele>
        <time>2017-10-31T15:08:02Z</time>
      </trkpt>
      <trkpt lat="46.30867" lon="-0.22495">
        <ele>138</ele>
        <time>2017-10-31T15:08:02Z</time>
      </trkpt>
      <trkpt lat="46.30868" lon="-0.22487">
        <ele>138</ele>
        <time>2017-10-31T15:08:02Z</time>
      </trkpt>
      <trkpt lat="46.30868" lon="-0.22483">
        <ele>138</ele>
        <time>2017-10-31T15:08:18Z</time>
      </trkpt>
      <trkpt lat="46.30868" lon="-0.22478">
        <ele>138</ele>
        <time>2017-10-31T15:08:18Z</time>
      </trkpt>
      <trkpt lat="46.30868" lon="-0.22471">
        <ele>138</ele>
        <time>2017-10-31T15:08:18Z</time>
      </trkpt>
      <trkpt lat="46.30867" lon="-0.22463">
        <ele>138</ele>
        <time>2017-10-31T15:08:18Z</time>
      </trkpt>
      <trkpt lat="46.30867" lon="-0.22454">
        <ele>138</ele>
        <time>2017-10-31T15:08:34Z</time>
      </trkpt>
      <trkpt lat="46.30866" lon="-0.22447">
        <ele>138</ele>
        <time>2017-10-31T15:08:34Z</time>
      </trkpt>
      <trkpt lat="46.30865" lon="-0.22439">
        <ele>138</ele>
        <time>2017-10-31T15:08:34Z</time>
      </trkpt>
      <trkpt lat="46.30864" lon="-0.22431">
        <ele>138</ele>
        <time>2017-10-31T15:08:34Z</time>
      </trkpt>
      <trkpt lat="46.30863" lon="-0.22426">
        <ele>138</ele>
        <time>2017-10-31T15:08:50Z</time>
      </trkpt>
      <trkpt lat="46.30861" lon="-0.22422">
        <ele>138</ele>
        <time>2017-10-31T15:08:50Z</time>
      </trkpt>
      <trkpt lat="46.30859" lon="-0.22415">
        <ele>138</ele>
        <time>2017-10-31T15:08:50Z</time>
      </trkpt>
      <trkpt lat="46.3086" lon="-0.22409">
        <ele>138</ele>
        <time>2017-10-31T15:08:50Z</time>
      </trkpt>
      <trkpt lat="46.30859" lon="-0.22402">
        <ele>138</ele>
        <time>2017-10-31T15:09:06Z</time>
      </trkpt>
      <trkpt lat="46.30859" lon="-0.22396">
        <ele>138</ele>
        <time>2017-10-31T15:09:06Z</time>
      </trkpt>
      <trkpt lat="46.3086" lon="-0.22389">
        <ele>138</ele>
        <time>2017-10-31T15:09:06Z</time>
      </trkpt>
      <trkpt lat="46.30859" lon="-0.22384">
        <ele>138</ele>
        <time>2017-10-31T15:09:06Z</time>
      </trkpt>
      <trkpt lat="46.30858" lon="-0.22378">
        <ele>138</ele>
        <time>2017-10-31T15:09:22Z</time>
      </trkpt>
      <trkpt lat="46.30858" lon="-0.22372">
        <ele>140</ele>
        <time>2017-10-31T15:09:22Z</time>
      </trkpt>
      <trkpt lat="46.30858" lon="-0.22365">
        <ele>140</ele>
        <time>2017-10-31T15:09:22Z</time>
      </trkpt>
      <trkpt lat="46.30858" lon="-0.22358">
        <ele>140</ele>
        <time>2017-10-31T15:09:22Z</time>
      </trkpt>
      <trkpt lat="46.30858" lon="-0.22352">
        <ele>140</ele>
        <time>2017-10-31T15:09:38Z</time>
      </trkpt>
      <trkpt lat="46.30858" lon="-0.22344">
        <ele>140</ele>
        <time>2017-10-31T15:09:38Z</time>
      </trkpt>
      <trkpt lat="46.30858" lon="-0.22337">
        <ele>140</ele>
        <time>2017-10-31T15:09:38Z</time>
      </trkpt>
      <trkpt lat="46.30858" lon="-0.2233">
        <ele>140</ele>
        <time>2017-10-31T15:09:38Z</time>
      </trkpt>
      <trkpt lat="46.30857" lon="-0.22323">
        <ele>140</ele>
        <time>2017-10-31T15:09:54Z</time>
      </trkpt>
      <trkpt lat="46.30858" lon="-0.22317">
        <ele>140</ele>
        <time>2017-10-31T15:09:54Z</time>
      </trkpt>
      <trkpt lat="46.30857" lon="-0.2231">
        <ele>140</ele>
        <time>2017-10-31T15:09:54Z</time>
      </trkpt>
      <trkpt lat="46.30857" lon="-0.22303">
        <ele>140</ele>
        <time>2017-10-31T15:09:54Z</time>
      </trkpt>
      <trkpt lat="46.30856" lon="-0.22297">
        <ele>140</ele>
        <time>2017-10-31T15:10:10Z</time>
      </trkpt>
      <trkpt lat="46.30856" lon="-0.22291">
        <ele>141</ele>
        <time>2017-10-31T15:10:10Z</time>
      </trkpt>
      <trkpt lat="46.30856" lon="-0.22283">
        <ele>141</ele>
        <time>2017-10-31T15:10:10Z</time>
      </trkpt>
      <trkpt lat="46.30855" lon="-0.22277">
        <ele>141</ele>
        <time>2017-10-31T15:10:10Z</time>
      </trkpt>
      <trkpt lat="46.30854" lon="-0.22272">
        <ele>141</ele>
        <time>2017-10-31T15:10:26Z</time>
      </trkpt>
      <trkpt lat="46.30854" lon="-0.22266">
        <ele>141</ele>
        <time>2017-10-31T15:10:26Z</time>
      </trkpt>
      <trkpt lat="46.30853" lon="-0.22258">
        <ele>141</ele>
        <time>2017-10-31T15:10:26Z</time>
      </trkpt>
      <trkpt lat="46.30852" lon="-0.2225">
        <ele>141</ele>
        <time>2017-10-31T15:10:26Z</time>
      </trkpt>
      <trkpt lat="46.30853" lon="-0.22244">
        <ele>141</ele>
        <time>2017-10-31T15:10:42Z</time>
      </trkpt>
      <trkpt lat="46.30852" lon="-0.22238">
        <ele>141</ele>
        <time>2017-10-31T15:10:42Z</time>
      </trkpt>
      <trkpt lat="46.30852" lon="-0.22231">
        <ele>141</ele>
        <time>2017-10-31T15:10:42Z</time>
      </trkpt>
      <trkpt lat="46.30851" lon="-0.22224">
        <ele>141</ele>
        <time>2017-10-31T15:10:42Z</time>
      </trkpt>
      <trkpt lat="46.30851" lon="-0.22217">
        <ele>141</ele>
        <time>2017-10-31T15:10:58Z</time>
      </trkpt>
      <trkpt lat="46.30851" lon="-0.22211">
        <ele>141</ele>
        <time>2017-10-31T15:10:58Z</time>
      </trkpt>
      <trkpt lat="46.30851" lon="-0.22205">
        <ele>141</ele>
        <time>2017-10-31T15:10:58Z</time>
      </trkpt>
      <trkpt lat="46.30851" lon="-0.22198">
        <ele>141</ele>
        <time>2017-10-31T15:10:58Z</time>
      </trkpt>
      <trkpt lat="46.30852" lon="-0.22191">
        <ele>141</ele>
        <time>2017-10-31T15:11:14Z</time>
      </trkpt>
      <trkpt lat="46.30853" lon="-0.22185">
        <ele>141</ele>
        <time>2017-10-31T15:11:14Z</time>
      </trkpt>
      <trkpt lat="46.30853" lon="-0.22179">
        <ele>141</ele>
        <time>2017-10-31T15:11:14Z</time>
      </trkpt>
      <trkpt lat="46.30853" lon="-0.22172">
        <ele>141</ele>
        <time>2017-10-31T15:11:14Z</time>
      </trkpt>
      <trkpt lat="46.30853" lon="-0.22166">
        <ele>141</ele>
        <time>2017-10-31T15:11:30Z</time>
      </trkpt>
      <trkpt lat="46.30852" lon="-0.2216">
        <ele>141</ele>
        <time>2017-10-31T15:11:30Z</time>
      </trkpt>
      <trkpt lat="46.30852" lon="-0.22153">
        <ele>141</ele>
        <time>2017-10-31T15:11:30Z</time>
      </trkpt>
      <trkpt lat="46.30851" lon="-0.22148">
        <ele>141</ele>
        <time>2017-10-31T15:11:30Z</time>
      </trkpt>
      <trkpt lat="46.30851" lon="-0.22146">
        <ele>141</ele>
        <time>2017-10-31T15:13:02Z</time>
      </trkpt>
      <trkpt lat="46.3085" lon="-0.22142">
        <ele>141</ele>
        <time>2017-10-31T15:13:02Z</time>
      </trkpt>
      <trkpt lat="46.3085" lon="-0.22141">
        <ele>141</ele>
        <time>2017-10-31T15:13:02Z</time>
      </trkpt>
      <trkpt lat="46.30849" lon="-0.22127">
        <ele>141</ele>
        <time>2017-10-31T15:13:02Z</time>
      </trkpt>
      <trkpt lat="46.30847" lon="-0.2212">
        <ele>141</ele>
        <time>2017-10-31T15:13:22Z</time>
      </trkpt>
      <trkpt lat="46.30847" lon="-0.22117">
        <ele>141</ele>
        <time>2017-10-31T15:13:22Z</time>
      </trkpt>
      <trkpt lat="46.30848" lon="-0.22112">
        <ele>141</ele>
        <time>2017-10-31T15:13:22Z</time>
      </trkpt>
      <trkpt lat="46.30849" lon="-0.22107">
        <ele>141</ele>
        <time>2017-10-31T15:13:22Z</time>
      </trkpt>
      <trkpt lat="46.30847" lon="-0.22096">
        <ele>141</ele>
        <time>2017-10-31T15:13:22Z</time>
      </trkpt>
      <trkpt lat="46.30847" lon="-0.22088">
        <ele>141</ele>
        <time>2017-10-31T15:13:38Z</time>
      </trkpt>
      <trkpt lat="46.30846" lon="-0.22081">
        <ele>141</ele>
        <time>2017-10-31T15:13:38Z</time>
      </trkpt>
      <trkpt lat="46.30846" lon="-0.22072">
        <ele>141</ele>
        <time>2017-10-31T15:13:38Z</time>
      </trkpt>
      <trkpt lat="46.30846" lon="-0.22064">
        <ele>141</ele>
        <time>2017-10-31T15:13:38Z</time>
      </trkpt>
      <trkpt lat="46.30846" lon="-0.22056">
        <ele>141</ele>
        <time>2017-10-31T15:13:54Z</time>
      </trkpt>
      <trkpt lat="46.30846" lon="-0.22051">
        <ele>141</ele>
        <time>2017-10-31T15:13:54Z</time>
      </trkpt>
      <trkpt lat="46.30847" lon="-0.22044">
        <ele>141</ele>
        <time>2017-10-31T15:13:54Z</time>
      </trkpt>
      <trkpt lat="46.30848" lon="-0.22038">
        <ele>141</ele>
        <time>2017-10-31T15:13:54Z</time>
      </trkpt>
      <trkpt lat="46.30849" lon="-0.22033">
        <ele>141</ele>
        <time>2017-10-31T15:14:10Z</time>
      </trkpt>
      <trkpt lat="46.30849" lon="-0.22028">
        <ele>141</ele>
        <time>2017-10-31T15:14:10Z</time>
      </trkpt>
      <trkpt lat="46.3085" lon="-0.22023">
        <ele>141</ele>
        <time>2017-10-31T15:14:10Z</time>
      </trkpt>
      <trkpt lat="46.30851" lon="-0.22018">
        <ele>141</ele>
        <time>2017-10-31T15:14:10Z</time>
      </trkpt>
      <trkpt lat="46.30852" lon="-0.22013">
        <ele>141</ele>
        <time>2017-10-31T15:14:26Z</time>
      </trkpt>
      <trkpt lat="46.30851" lon="-0.22008">
        <ele>141</ele>
        <time>2017-10-31T15:14:26Z</time>
      </trkpt>
      <trkpt lat="46.3085" lon="-0.22001">
        <ele>141</ele>
        <time>2017-10-31T15:14:26Z</time>
      </trkpt>
      <trkpt lat="46.3085" lon="-0.21996">
        <ele>141</ele>
        <time>2017-10-31T15:14:26Z</time>
      </trkpt>
      <trkpt lat="46.30851" lon="-0.21989">
        <ele>141</ele>
        <time>2017-10-31T15:14:42Z</time>
      </trkpt>
      <trkpt lat="46.30853" lon="-0.2198">
        <ele>141</ele>
        <time>2017-10-31T15:14:42Z</time>
      </trkpt>
      <trkpt lat="46.30852" lon="-0.21973">
        <ele>141</ele>
        <time>2017-10-31T15:14:42Z</time>
      </trkpt>
      <trkpt lat="46.30851" lon="-0.21965">
        <ele>141</ele>
        <time>2017-10-31T15:14:42Z</time>
      </trkpt>
      <trkpt lat="46.30852" lon="-0.21956">
        <ele>140</ele>
        <time>2017-10-31T15:14:58Z</time>
      </trkpt>
      <trkpt lat="46.30851" lon="-0.21946">
        <ele>140</ele>
        <time>2017-10-31T15:14:58Z</time>
      </trkpt>
      <trkpt lat="46.30852" lon="-0.21939">
        <ele>140</ele>
        <time>2017-10-31T15:14:58Z</time>
      </trkpt>
      <trkpt lat="46.30853" lon="-0.21931">
        <ele>140</ele>
        <time>2017-10-31T15:14:58Z</time>
      </trkpt>
      <trkpt lat="46.30853" lon="-0.21925">
        <ele>140</ele>
        <time>2017-10-31T15:15:14Z</time>
      </trkpt>
      <trkpt lat="46.30853" lon="-0.21918">
        <ele>140</ele>
        <time>2017-10-31T15:15:14Z</time>
      </trkpt>
      <trkpt lat="46.30852" lon="-0.21912">
        <ele>140</ele>
        <time>2017-10-31T15:15:14Z</time>
      </trkpt>
      <trkpt lat="46.30853" lon="-0.21906">
        <ele>140</ele>
        <time>2017-10-31T15:15:14Z</time>
      </trkpt>
      <trkpt lat="46.30852" lon="-0.21901">
        <ele>140</ele>
        <time>2017-10-31T15:15:30Z</time>
      </trkpt>
      <trkpt lat="46.30852" lon="-0.21895">
        <ele>140</ele>
        <time>2017-10-31T15:15:30Z</time>
      </trkpt>
      <trkpt lat="46.30854" lon="-0.21889">
        <ele>140</ele>
        <time>2017-10-31T15:15:30Z</time>
      </trkpt>
      <trkpt lat="46.30854" lon="-0.21883">
        <ele>140</ele>
        <time>2017-10-31T15:15:30Z</time>
      </trkpt>
      <trkpt lat="46.30855" lon="-0.21876">
        <ele>140</ele>
        <time>2017-10-31T15:15:46Z</time>
      </trkpt>
      <trkpt lat="46.30855" lon="-0.21868">
        <ele>140</ele>
        <time>2017-10-31T15:15:46Z</time>
      </trkpt>
      <trkpt lat="46.30855" lon="-0.21859">
        <ele>140</ele>
        <time>2017-10-31T15:15:46Z</time>
      </trkpt>
      <trkpt lat="46.30855" lon="-0.21852">
        <ele>140</ele>
        <time>2017-10-31T15:15:46Z</time>
      </trkpt>
      <trkpt lat="46.30856" lon="-0.21846">
        <ele>140</ele>
        <time>2017-10-31T15:16:02Z</time>
      </trkpt>
      <trkpt lat="46.30857" lon="-0.2184">
        <ele>140</ele>
        <time>2017-10-31T15:16:02Z</time>
      </trkpt>
      <trkpt lat="46.30856" lon="-0.21833">
        <ele>140</ele>
        <time>2017-10-31T15:16:02Z</time>
      </trkpt>
      <trkpt lat="46.30857" lon="-0.21828">
        <ele>140</ele>
        <time>2017-10-31T15:16:02Z</time>
      </trkpt>
      <trkpt lat="46.30857" lon="-0.21821">
        <ele>140</ele>
        <time>2017-10-31T15:16:18Z</time>
      </trkpt>
      <trkpt lat="46.30857" lon="-0.21814">
        <ele>140</ele>
        <time>2017-10-31T15:16:18Z</time>
      </trkpt>
      <trkpt lat="46.30857" lon="-0.21808">
        <ele>140</ele>
        <time>2017-10-31T15:16:18Z</time>
      </trkpt>
      <trkpt lat="46.30856" lon="-0.21803">
        <ele>140</ele>
        <time>2017-10-31T15:16:18Z</time>
      </trkpt>
      <trkpt lat="46.30856" lon="-0.21797">
        <ele>140</ele>
        <time>2017-10-31T15:16:34Z</time>
      </trkpt>
      <trkpt lat="46.30855" lon="-0.21791">
        <ele>139</ele>
        <time>2017-10-31T15:16:34Z</time>
      </trkpt>
      <trkpt lat="46.30855" lon="-0.21786">
        <ele>139</ele>
        <time>2017-10-31T15:16:34Z</time>
      </trkpt>
      <trkpt lat="46.30855" lon="-0.2178">
        <ele>139</ele>
        <time>2017-10-31T15:16:34Z</time>
      </trkpt>
      <trkpt lat="46.30853" lon="-0.2177">
        <ele>139</ele>
        <time>2017-10-31T15:16:50Z</time>
      </trkpt>
      <trkpt lat="46.30855" lon="-0.21763">
        <ele>139</ele>
        <time>2017-10-31T15:16:50Z</time>
      </trkpt>
      <trkpt lat="46.30855" lon="-0.21755">
        <ele>139</ele>
        <time>2017-10-31T15:16:50Z</time>
      </trkpt>
      <trkpt lat="46.30856" lon="-0.21748">
        <ele>139</ele>
        <time>2017-10-31T15:16:50Z</time>
      </trkpt>
      <trkpt lat="46.30857" lon="-0.21739">
        <ele>139</ele>
        <time>2017-10-31T15:17:06Z</time>
      </trkpt>
      <trkpt lat="46.30858" lon="-0.21728">
        <ele>139</ele>
        <time>2017-10-31T15:17:06Z</time>
      </trkpt>
      <trkpt lat="46.30858" lon="-0.2172">
        <ele>139</ele>
        <time>2017-10-31T15:17:06Z</time>
      </trkpt>
      <trkpt lat="46.30859" lon="-0.21712">
        <ele>139</ele>
        <time>2017-10-31T15:17:06Z</time>
      </trkpt>
      <trkpt lat="46.30859" lon="-0.21704">
        <ele>138</ele>
        <time>2017-10-31T15:17:22Z</time>
      </trkpt>
      <trkpt lat="46.30859" lon="-0.21696">
        <ele>138</ele>
        <time>2017-10-31T15:17:22Z</time>
      </trkpt>
      <trkpt lat="46.30859" lon="-0.21689">
        <ele>138</ele>
        <time>2017-10-31T15:17:22Z</time>
      </trkpt>
      <trkpt lat="46.30859" lon="-0.21682">
        <ele>138</ele>
        <time>2017-10-31T15:17:22Z</time>
      </trkpt>
      <trkpt lat="46.30859" lon="-0.21675">
        <ele>138</ele>
        <time>2017-10-31T15:17:38Z</time>
      </trkpt>
      <trkpt lat="46.30858" lon="-0.21669">
        <ele>138</ele>
        <time>2017-10-31T15:17:38Z</time>
      </trkpt>
      <trkpt lat="46.30858" lon="-0.21663">
        <ele>138</ele>
        <time>2017-10-31T15:17:38Z</time>
      </trkpt>
      <trkpt lat="46.30859" lon="-0.21658">
        <ele>138</ele>
        <time>2017-10-31T15:17:38Z</time>
      </trkpt>
      <trkpt lat="46.3086" lon="-0.21654">
        <ele>138</ele>
        <time>2017-10-31T15:17:54Z</time>
      </trkpt>
      <trkpt lat="46.3086" lon="-0.21647">
        <ele>138</ele>
        <time>2017-10-31T15:17:54Z</time>
      </trkpt>
      <trkpt lat="46.3086" lon="-0.21639">
        <ele>138</ele>
        <time>2017-10-31T15:17:54Z</time>
      </trkpt>
      <trkpt lat="46.3086" lon="-0.21632">
        <ele>138</ele>
        <time>2017-10-31T15:17:54Z</time>
      </trkpt>
      <trkpt lat="46.30861" lon="-0.21625">
        <ele>138</ele>
        <time>2017-10-31T15:18:10Z</time>
      </trkpt>
      <trkpt lat="46.30861" lon="-0.21618">
        <ele>139</ele>
        <time>2017-10-31T15:18:10Z</time>
      </trkpt>
      <trkpt lat="46.30862" lon="-0.21611">
        <ele>139</ele>
        <time>2017-10-31T15:18:10Z</time>
      </trkpt>
      <trkpt lat="46.30863" lon="-0.21605">
        <ele>139</ele>
        <time>2017-10-31T15:18:10Z</time>
      </trkpt>
      <trkpt lat="46.30863" lon="-0.21598">
        <ele>139</ele>
        <time>2017-10-31T15:18:26Z</time>
      </trkpt>
      <trkpt lat="46.30861" lon="-0.21589">
        <ele>139</ele>
        <time>2017-10-31T15:18:26Z</time>
      </trkpt>
      <trkpt lat="46.30861" lon="-0.21581">
        <ele>139</ele>
        <time>2017-10-31T15:18:26Z</time>
      </trkpt>
      <trkpt lat="46.30861" lon="-0.21573">
        <ele>139</ele>
        <time>2017-10-31T15:18:26Z</time>
      </trkpt>
      <trkpt lat="46.30861" lon="-0.21566">
        <ele>139</ele>
        <time>2017-10-31T15:18:42Z</time>
      </trkpt>
      <trkpt lat="46.30862" lon="-0.21559">
        <ele>139</ele>
        <time>2017-10-31T15:18:42Z</time>
      </trkpt>
      <trkpt lat="46.30863" lon="-0.21553">
        <ele>139</ele>
        <time>2017-10-31T15:18:42Z</time>
      </trkpt>
      <trkpt lat="46.30864" lon="-0.21546">
        <ele>139</ele>
        <time>2017-10-31T15:18:42Z</time>
      </trkpt>
      <trkpt lat="46.30865" lon="-0.2154">
        <ele>140</ele>
        <time>2017-10-31T15:18:58Z</time>
      </trkpt>
      <trkpt lat="46.30867" lon="-0.21533">
        <ele>140</ele>
        <time>2017-10-31T15:18:58Z</time>
      </trkpt>
      <trkpt lat="46.30869" lon="-0.21525">
        <ele>140</ele>
        <time>2017-10-31T15:18:58Z</time>
      </trkpt>
      <trkpt lat="46.30871" lon="-0.21518">
        <ele>140</ele>
        <time>2017-10-31T15:18:58Z</time>
      </trkpt>
      <trkpt lat="46.30873" lon="-0.21511">
        <ele>140</ele>
        <time>2017-10-31T15:19:14Z</time>
      </trkpt>
      <trkpt lat="46.30874" lon="-0.21504">
        <ele>140</ele>
        <time>2017-10-31T15:19:14Z</time>
      </trkpt>
      <trkpt lat="46.30875" lon="-0.21498">
        <ele>140</ele>
        <time>2017-10-31T15:19:14Z</time>
      </trkpt>
      <trkpt lat="46.30876" lon="-0.21493">
        <ele>144</ele>
        <time>2017-10-31T15:19:14Z</time>
      </trkpt>
      <trkpt lat="46.30876" lon="-0.21486">
        <ele>144</ele>
        <time>2017-10-31T15:19:30Z</time>
      </trkpt>
      <trkpt lat="46.30878" lon="-0.2148">
        <ele>144</ele>
        <time>2017-10-31T15:19:30Z</time>
      </trkpt>
      <trkpt lat="46.3088" lon="-0.21474">
        <ele>144</ele>
        <time>2017-10-31T15:19:30Z</time>
      </trkpt>
      <trkpt lat="46.3088" lon="-0.21467">
        <ele>144</ele>
        <time>2017-10-31T15:19:30Z</time>
      </trkpt>
      <trkpt lat="46.3088" lon="-0.2146">
        <ele>144</ele>
        <time>2017-10-31T15:19:46Z</time>
      </trkpt>
      <trkpt lat="46.30882" lon="-0.21454">
        <ele>143</ele>
        <time>2017-10-31T15:19:46Z</time>
      </trkpt>
      <trkpt lat="46.30883" lon="-0.21449">
        <ele>143</ele>
        <time>2017-10-31T15:19:46Z</time>
      </trkpt>
      <trkpt lat="46.30885" lon="-0.21443">
        <ele>143</ele>
        <time>2017-10-31T15:19:46Z</time>
      </trkpt>
      <trkpt lat="46.30887" lon="-0.21437">
        <ele>143</ele>
        <time>2017-10-31T15:20:02Z</time>
      </trkpt>
      <trkpt lat="46.30887" lon="-0.21431">
        <ele>143</ele>
        <time>2017-10-31T15:20:02Z</time>
      </trkpt>
      <trkpt lat="46.30889" lon="-0.21424">
        <ele>143</ele>
        <time>2017-10-31T15:20:02Z</time>
      </trkpt>
      <trkpt lat="46.30893" lon="-0.21416">
        <ele>143</ele>
        <time>2017-10-31T15:20:02Z</time>
      </trkpt>
      <trkpt lat="46.30895" lon="-0.21409">
        <ele>143</ele>
        <time>2017-10-31T15:20:18Z</time>
      </trkpt>
      <trkpt lat="46.30897" lon="-0.21403">
        <ele>143</ele>
        <time>2017-10-31T15:20:18Z</time>
      </trkpt>
      <trkpt lat="46.30899" lon="-0.21398">
        <ele>143</ele>
        <time>2017-10-31T15:20:18Z</time>
      </trkpt>
      <trkpt lat="46.30901" lon="-0.21393">
        <ele>143</ele>
        <time>2017-10-31T15:20:18Z</time>
      </trkpt>
      <trkpt lat="46.30903" lon="-0.21386">
        <ele>143</ele>
        <time>2017-10-31T15:20:34Z</time>
      </trkpt>
      <trkpt lat="46.30903" lon="-0.2138">
        <ele>143</ele>
        <time>2017-10-31T15:20:34Z</time>
      </trkpt>
      <trkpt lat="46.30903" lon="-0.21375">
        <ele>144</ele>
        <time>2017-10-31T15:20:34Z</time>
      </trkpt>
      <trkpt lat="46.30903" lon="-0.21369">
        <ele>144</ele>
        <time>2017-10-31T15:20:34Z</time>
      </trkpt>
      <trkpt lat="46.30903" lon="-0.21362">
        <ele>144</ele>
        <time>2017-10-31T15:20:50Z</time>
      </trkpt>
      <trkpt lat="46.30903" lon="-0.21357">
        <ele>144</ele>
        <time>2017-10-31T15:20:50Z</time>
      </trkpt>
      <trkpt lat="46.30903" lon="-0.2135">
        <ele>144</ele>
        <time>2017-10-31T15:20:50Z</time>
      </trkpt>
      <trkpt lat="46.30903" lon="-0.21344">
        <ele>144</ele>
        <time>2017-10-31T15:20:50Z</time>
      </trkpt>
      <trkpt lat="46.30903" lon="-0.21336">
        <ele>144</ele>
        <time>2017-10-31T15:21:06Z</time>
      </trkpt>
      <trkpt lat="46.30903" lon="-0.21332">
        <ele>144</ele>
        <time>2017-10-31T15:21:06Z</time>
      </trkpt>
      <trkpt lat="46.30905" lon="-0.21327">
        <ele>144</ele>
        <time>2017-10-31T15:21:06Z</time>
      </trkpt>
      <trkpt lat="46.30905" lon="-0.21323">
        <ele>144</ele>
        <time>2017-10-31T15:21:06Z</time>
      </trkpt>
      <trkpt lat="46.30909" lon="-0.21316">
        <ele>144</ele>
        <time>2017-10-31T15:22:02Z</time>
      </trkpt>
      <trkpt lat="46.30908" lon="-0.21314">
        <ele>144</ele>
        <time>2017-10-31T15:22:02Z</time>
      </trkpt>
      <trkpt lat="46.30905" lon="-0.2131">
        <ele>144</ele>
        <time>2017-10-31T15:22:02Z</time>
      </trkpt>
      <trkpt lat="46.30902" lon="-0.21307">
        <ele>144</ele>
        <time>2017-10-31T15:22:02Z</time>
      </trkpt>
      <trkpt lat="46.30898" lon="-0.21304">
        <ele>144</ele>
        <time>2017-10-31T15:22:02Z</time>
      </trkpt>
      <trkpt lat="46.30894" lon="-0.213">
        <ele>144</ele>
        <time>2017-10-31T15:22:22Z</time>
      </trkpt>
      <trkpt lat="46.30893" lon="-0.21298">
        <ele>144</ele>
        <time>2017-10-31T15:22:22Z</time>
      </trkpt>
      <trkpt lat="46.3089" lon="-0.21296">
        <ele>144</ele>
        <time>2017-10-31T15:22:22Z</time>
      </trkpt>
      <trkpt lat="46.30887" lon="-0.21295">
        <ele>144</ele>
        <time>2017-10-31T15:22:22Z</time>
      </trkpt>
      <trkpt lat="46.30883" lon="-0.21296">
        <ele>144</ele>
        <time>2017-10-31T15:22:22Z</time>
      </trkpt>
      <trkpt lat="46.30879" lon="-0.21295">
        <ele>144</ele>
        <time>2017-10-31T15:22:38Z</time>
      </trkpt>
      <trkpt lat="46.30875" lon="-0.21293">
        <ele>141</ele>
        <time>2017-10-31T15:22:38Z</time>
      </trkpt>
      <trkpt lat="46.3087" lon="-0.21292">
        <ele>144</ele>
        <time>2017-10-31T15:22:38Z</time>
      </trkpt>
      <trkpt lat="46.30866" lon="-0.2129">
        <ele>144</ele>
        <time>2017-10-31T15:22:38Z</time>
      </trkpt>
      <trkpt lat="46.30863" lon="-0.2129">
        <ele>144</ele>
        <time>2017-10-31T15:22:54Z</time>
      </trkpt>
      <trkpt lat="46.30858" lon="-0.21288">
        <ele>144</ele>
        <time>2017-10-31T15:22:54Z</time>
      </trkpt>
      <trkpt lat="46.30854" lon="-0.21287">
        <ele>144</ele>
        <time>2017-10-31T15:22:54Z</time>
      </trkpt>
      <trkpt lat="46.30849" lon="-0.21287">
        <ele>144</ele>
        <time>2017-10-31T15:22:54Z</time>
      </trkpt>
      <trkpt lat="46.30845" lon="-0.21285">
        <ele>144</ele>
        <time>2017-10-31T15:23:10Z</time>
      </trkpt>
      <trkpt lat="46.3084" lon="-0.21284">
        <ele>144</ele>
        <time>2017-10-31T15:23:10Z</time>
      </trkpt>
      <trkpt lat="46.30835" lon="-0.21284">
        <ele>144</ele>
        <time>2017-10-31T15:23:10Z</time>
      </trkpt>
      <trkpt lat="46.3083" lon="-0.21284">
        <ele>144</ele>
        <time>2017-10-31T15:23:10Z</time>
      </trkpt>
      <trkpt lat="46.30826" lon="-0.21284">
        <ele>144</ele>
        <time>2017-10-31T15:23:26Z</time>
      </trkpt>
      <trkpt lat="46.30821" lon="-0.21284">
        <ele>144</ele>
        <time>2017-10-31T15:23:26Z</time>
      </trkpt>
      <trkpt lat="46.30817" lon="-0.21284">
        <ele>144</ele>
        <time>2017-10-31T15:23:26Z</time>
      </trkpt>
      <trkpt lat="46.30814" lon="-0.21285">
        <ele>144</ele>
        <time>2017-10-31T15:23:26Z</time>
      </trkpt>
      <trkpt lat="46.30809" lon="-0.21285">
        <ele>144</ele>
        <time>2017-10-31T15:23:42Z</time>
      </trkpt>
      <trkpt lat="46.30805" lon="-0.21285">
        <ele>144</ele>
        <time>2017-10-31T15:23:42Z</time>
      </trkpt>
      <trkpt lat="46.30801" lon="-0.21284">
        <ele>144</ele>
        <time>2017-10-31T15:23:42Z</time>
      </trkpt>
      <trkpt lat="46.30796" lon="-0.21285">
        <ele>144</ele>
        <time>2017-10-31T15:23:42Z</time>
      </trkpt>
      <trkpt lat="46.30792" lon="-0.21286">
        <ele>144</ele>
        <time>2017-10-31T15:23:58Z</time>
      </trkpt>
      <trkpt lat="46.30789" lon="-0.21288">
        <ele>145</ele>
        <time>2017-10-31T15:23:58Z</time>
      </trkpt>
      <trkpt lat="46.30784" lon="-0.2129">
        <ele>145</ele>
        <time>2017-10-31T15:23:58Z</time>
      </trkpt>
      <trkpt lat="46.30779" lon="-0.21292">
        <ele>142</ele>
        <time>2017-10-31T15:23:58Z</time>
      </trkpt>
      <trkpt lat="46.30775" lon="-0.21293">
        <ele>142</ele>
        <time>2017-10-31T15:24:14Z</time>
      </trkpt>
      <trkpt lat="46.30773" lon="-0.21294">
        <ele>142</ele>
        <time>2017-10-31T15:24:14Z</time>
      </trkpt>
      <trkpt lat="46.30769" lon="-0.21296">
        <ele>142</ele>
        <time>2017-10-31T15:24:14Z</time>
      </trkpt>
      <trkpt lat="46.30765" lon="-0.21297">
        <ele>142</ele>
        <time>2017-10-31T15:24:14Z</time>
      </trkpt>
      <trkpt lat="46.30763" lon="-0.21298">
        <ele>142</ele>
        <time>2017-10-31T15:24:30Z</time>
      </trkpt>
      <trkpt lat="46.30756" lon="-0.21297">
        <ele>142</ele>
        <time>2017-10-31T15:24:30Z</time>
      </trkpt>
      <trkpt lat="46.30752" lon="-0.21298">
        <ele>142</ele>
        <time>2017-10-31T15:24:30Z</time>
      </trkpt>
      <trkpt lat="46.30747" lon="-0.21298">
        <ele>142</ele>
        <time>2017-10-31T15:24:30Z</time>
      </trkpt>
      <trkpt lat="46.30741" lon="-0.21299">
        <ele>142</ele>
        <time>2017-10-31T15:24:46Z</time>
      </trkpt>
      <trkpt lat="46.30736" lon="-0.21299">
        <ele>142</ele>
        <time>2017-10-31T15:24:46Z</time>
      </trkpt>
      <trkpt lat="46.30729" lon="-0.21302">
        <ele>142</ele>
        <time>2017-10-31T15:24:46Z</time>
      </trkpt>
      <trkpt lat="46.30724" lon="-0.21302">
        <ele>142</ele>
        <time>2017-10-31T15:24:46Z</time>
      </trkpt>
      <trkpt lat="46.3072" lon="-0.21303">
        <ele>142</ele>
        <time>2017-10-31T15:25:02Z</time>
      </trkpt>
      <trkpt lat="46.30713" lon="-0.21305">
        <ele>142</ele>
        <time>2017-10-31T15:25:02Z</time>
      </trkpt>
      <trkpt lat="46.30706" lon="-0.21307">
        <ele>141</ele>
        <time>2017-10-31T15:25:02Z</time>
      </trkpt>
      <trkpt lat="46.30701" lon="-0.21309">
        <ele>141</ele>
        <time>2017-10-31T15:25:02Z</time>
      </trkpt>
      <trkpt lat="46.30695" lon="-0.21309">
        <ele>141</ele>
        <time>2017-10-31T15:25:18Z</time>
      </trkpt>
      <trkpt lat="46.3069" lon="-0.2131">
        <ele>141</ele>
        <time>2017-10-31T15:25:18Z</time>
      </trkpt>
      <trkpt lat="46.30685" lon="-0.2131">
        <ele>141</ele>
        <time>2017-10-31T15:25:18Z</time>
      </trkpt>
      <trkpt lat="46.30681" lon="-0.21311">
        <ele>141</ele>
        <time>2017-10-31T15:25:18Z</time>
      </trkpt>
      <trkpt lat="46.30678" lon="-0.21313">
        <ele>141</ele>
        <time>2017-10-31T15:25:34Z</time>
      </trkpt>
      <trkpt lat="46.30674" lon="-0.21314">
        <ele>141</ele>
        <time>2017-10-31T15:25:34Z</time>
      </trkpt>
      <trkpt lat="46.3067" lon="-0.21314">
        <ele>141</ele>
        <time>2017-10-31T15:25:34Z</time>
      </trkpt>
      <trkpt lat="46.30664" lon="-0.21313">
        <ele>141</ele>
        <time>2017-10-31T15:25:34Z</time>
      </trkpt>
      <trkpt lat="46.30659" lon="-0.21314">
        <ele>141</ele>
        <time>2017-10-31T15:25:50Z</time>
      </trkpt>
      <trkpt lat="46.30652" lon="-0.21314">
        <ele>141</ele>
        <time>2017-10-31T15:25:50Z</time>
      </trkpt>
      <trkpt lat="46.30646" lon="-0.21313">
        <ele>141</ele>
        <time>2017-10-31T15:25:50Z</time>
      </trkpt>
      <trkpt lat="46.30641" lon="-0.21313">
        <ele>141</ele>
        <time>2017-10-31T15:25:50Z</time>
      </trkpt>
      <trkpt lat="46.30635" lon="-0.21312">
        <ele>141</ele>
        <time>2017-10-31T15:26:06Z</time>
      </trkpt>
      <trkpt lat="46.3063" lon="-0.21312">
        <ele>141</ele>
        <time>2017-10-31T15:26:06Z</time>
      </trkpt>
      <trkpt lat="46.30625" lon="-0.21312">
        <ele>141</ele>
        <time>2017-10-31T15:26:06Z</time>
      </trkpt>
      <trkpt lat="46.30622" lon="-0.21312">
        <ele>142</ele>
        <time>2017-10-31T15:26:06Z</time>
      </trkpt>
      <trkpt lat="46.30615" lon="-0.21316">
        <ele>142</ele>
        <time>2017-10-31T15:26:34Z</time>
      </trkpt>
      <trkpt lat="46.30613" lon="-0.21316">
        <ele>142</ele>
        <time>2017-10-31T15:26:34Z</time>
      </trkpt>
      <trkpt lat="46.30613" lon="-0.21316">
        <ele>142</ele>
        <time>2017-10-31T15:26:34Z</time>
      </trkpt>
      <trkpt lat="46.30612" lon="-0.21314">
        <ele>142</ele>
        <time>2017-10-31T15:26:34Z</time>
      </trkpt>
      <trkpt lat="46.3061" lon="-0.2131">
        <ele>142</ele>
        <time>2017-10-31T15:26:34Z</time>
      </trkpt>
      <trkpt lat="46.30609" lon="-0.21305">
        <ele>142</ele>
        <time>2017-10-31T15:26:50Z</time>
      </trkpt>
      <trkpt lat="46.30607" lon="-0.213">
        <ele>142</ele>
        <time>2017-10-31T15:26:50Z</time>
      </trkpt>
      <trkpt lat="46.30603" lon="-0.21296">
        <ele>142</ele>
        <time>2017-10-31T15:26:50Z</time>
      </trkpt>
      <trkpt lat="46.306" lon="-0.21292">
        <ele>142</ele>
        <time>2017-10-31T15:26:50Z</time>
      </trkpt>
      <trkpt lat="46.30601" lon="-0.21291">
        <ele>143</ele>
        <time>2017-10-31T15:27:10Z</time>
      </trkpt>
      <trkpt lat="46.30601" lon="-0.2129">
        <ele>143</ele>
        <time>2017-10-31T15:27:10Z</time>
      </trkpt>
      <trkpt lat="46.30598" lon="-0.21287">
        <ele>143</ele>
        <time>2017-10-31T15:27:10Z</time>
      </trkpt>
      <trkpt lat="46.30596" lon="-0.21284">
        <ele>143</ele>
        <time>2017-10-31T15:27:10Z</time>
      </trkpt>
      <trkpt lat="46.30592" lon="-0.21279">
        <ele>143</ele>
        <time>2017-10-31T15:27:10Z</time>
      </trkpt>
      <trkpt lat="46.30589" lon="-0.21274">
        <ele>143</ele>
        <time>2017-10-31T15:27:26Z</time>
      </trkpt>
      <trkpt lat="46.30586" lon="-0.21269">
        <ele>143</ele>
        <time>2017-10-31T15:27:26Z</time>
      </trkpt>
      <trkpt lat="46.30583" lon="-0.21264">
        <ele>143</ele>
        <time>2017-10-31T15:27:26Z</time>
      </trkpt>
      <trkpt lat="46.3058" lon="-0.21259">
        <ele>143</ele>
        <time>2017-10-31T15:27:26Z</time>
      </trkpt>
      <trkpt lat="46.30576" lon="-0.21254">
        <ele>143</ele>
        <time>2017-10-31T15:27:42Z</time>
      </trkpt>
      <trkpt lat="46.30573" lon="-0.21249">
        <ele>143</ele>
        <time>2017-10-31T15:27:42Z</time>
      </trkpt>
      <trkpt lat="46.3057" lon="-0.21245">
        <ele>143</ele>
        <time>2017-10-31T15:27:42Z</time>
      </trkpt>
      <trkpt lat="46.30566" lon="-0.2124">
        <ele>143</ele>
        <time>2017-10-31T15:27:42Z</time>
      </trkpt>
      <trkpt lat="46.30562" lon="-0.21235">
        <ele>143</ele>
        <time>2017-10-31T15:27:58Z</time>
      </trkpt>
      <trkpt lat="46.30559" lon="-0.21229">
        <ele>143</ele>
        <time>2017-10-31T15:27:58Z</time>
      </trkpt>
      <trkpt lat="46.30555" lon="-0.21223">
        <ele>143</ele>
        <time>2017-10-31T15:27:58Z</time>
      </trkpt>
      <trkpt lat="46.30551" lon="-0.21218">
        <ele>143</ele>
        <time>2017-10-31T15:27:58Z</time>
      </trkpt>
      <trkpt lat="46.30547" lon="-0.21214">
        <ele>143</ele>
        <time>2017-10-31T15:28:14Z</time>
      </trkpt>
      <trkpt lat="46.30543" lon="-0.2121">
        <ele>143</ele>
        <time>2017-10-31T15:28:14Z</time>
      </trkpt>
      <trkpt lat="46.3054" lon="-0.21208">
        <ele>148</ele>
        <time>2017-10-31T15:28:14Z</time>
      </trkpt>
      <trkpt lat="46.30537" lon="-0.21206">
        <ele>148</ele>
        <time>2017-10-31T15:28:14Z</time>
      </trkpt>
      <trkpt lat="46.30534" lon="-0.21203">
        <ele>148</ele>
        <time>2017-10-31T15:28:30Z</time>
      </trkpt>
      <trkpt lat="46.3053" lon="-0.21201">
        <ele>148</ele>
        <time>2017-10-31T15:28:30Z</time>
      </trkpt>
      <trkpt lat="46.30525" lon="-0.21199">
        <ele>148</ele>
        <time>2017-10-31T15:28:30Z</time>
      </trkpt>
      <trkpt lat="46.30521" lon="-0.21198">
        <ele>148</ele>
        <time>2017-10-31T15:28:30Z</time>
      </trkpt>
      <trkpt lat="46.30517" lon="-0.21198">
        <ele>148</ele>
        <time>2017-10-31T15:28:46Z</time>
      </trkpt>
      <trkpt lat="46.30514" lon="-0.21198">
        <ele>148</ele>
        <time>2017-10-31T15:28:46Z</time>
      </trkpt>
      <trkpt lat="46.3051" lon="-0.21198">
        <ele>148</ele>
        <time>2017-10-31T15:28:46Z</time>
      </trkpt>
      <trkpt lat="46.30506" lon="-0.21197">
        <ele>148</ele>
        <time>2017-10-31T15:28:46Z</time>
      </trkpt>
      <trkpt lat="46.30502" lon="-0.21196">
        <ele>148</ele>
        <time>2017-10-31T15:29:02Z</time>
      </trkpt>
      <trkpt lat="46.30497" lon="-0.21195">
        <ele>148</ele>
        <time>2017-10-31T15:29:02Z</time>
      </trkpt>
      <trkpt lat="46.30492" lon="-0.21194">
        <ele>148</ele>
        <time>2017-10-31T15:29:02Z</time>
      </trkpt>
      <trkpt lat="46.30487" lon="-0.21193">
        <ele>148</ele>
        <time>2017-10-31T15:29:02Z</time>
      </trkpt>
      <trkpt lat="46.30483" lon="-0.21193">
        <ele>148</ele>
        <time>2017-10-31T15:29:18Z</time>
      </trkpt>
      <trkpt lat="46.30478" lon="-0.21193">
        <ele>148</ele>
        <time>2017-10-31T15:29:18Z</time>
      </trkpt>
      <trkpt lat="46.30474" lon="-0.21194">
        <ele>148</ele>
        <time>2017-10-31T15:29:18Z</time>
      </trkpt>
      <trkpt lat="46.3047" lon="-0.21195">
        <ele>148</ele>
        <time>2017-10-31T15:29:18Z</time>
      </trkpt>
      <trkpt lat="46.30465" lon="-0.21195">
        <ele>148</ele>
        <time>2017-10-31T15:29:34Z</time>
      </trkpt>
      <trkpt lat="46.30461" lon="-0.21194">
        <ele>148</ele>
        <time>2017-10-31T15:29:34Z</time>
      </trkpt>
      <trkpt lat="46.30456" lon="-0.21194">
        <ele>150</ele>
        <time>2017-10-31T15:29:34Z</time>
      </trkpt>
      <trkpt lat="46.30451" lon="-0.21193">
        <ele>150</ele>
        <time>2017-10-31T15:29:34Z</time>
      </trkpt>
      <trkpt lat="46.30447" lon="-0.21193">
        <ele>150</ele>
        <time>2017-10-31T15:29:50Z</time>
      </trkpt>
      <trkpt lat="46.30443" lon="-0.21192">
        <ele>150</ele>
        <time>2017-10-31T15:29:50Z</time>
      </trkpt>
      <trkpt lat="46.30439" lon="-0.2119">
        <ele>150</ele>
        <time>2017-10-31T15:29:50Z</time>
      </trkpt>
      <trkpt lat="46.30436" lon="-0.21187">
        <ele>150</ele>
        <time>2017-10-31T15:29:50Z</time>
      </trkpt>
      <trkpt lat="46.30432" lon="-0.21184">
        <ele>150</ele>
        <time>2017-10-31T15:30:06Z</time>
      </trkpt>
      <trkpt lat="46.30429" lon="-0.21181">
        <ele>150</ele>
        <time>2017-10-31T15:30:06Z</time>
      </trkpt>
      <trkpt lat="46.30425" lon="-0.21177">
        <ele>150</ele>
        <time>2017-10-31T15:30:06Z</time>
      </trkpt>
      <trkpt lat="46.30421" lon="-0.21174">
        <ele>150</ele>
        <time>2017-10-31T15:30:06Z</time>
      </trkpt>
      <trkpt lat="46.30418" lon="-0.21171">
        <ele>150</ele>
        <time>2017-10-31T15:30:22Z</time>
      </trkpt>
      <trkpt lat="46.30414" lon="-0.21167">
        <ele>150</ele>
        <time>2017-10-31T15:30:22Z</time>
      </trkpt>
      <trkpt lat="46.30411" lon="-0.21164">
        <ele>150</ele>
        <time>2017-10-31T15:30:22Z</time>
      </trkpt>
      <trkpt lat="46.30407" lon="-0.2116">
        <ele>150</ele>
        <time>2017-10-31T15:30:22Z</time>
      </trkpt>
      <trkpt lat="46.30404" lon="-0.21156">
        <ele>150</ele>
        <time>2017-10-31T15:30:38Z</time>
      </trkpt>
      <trkpt lat="46.304" lon="-0.21153">
        <ele>150</ele>
        <time>2017-10-31T15:30:38Z</time>
      </trkpt>
      <trkpt lat="46.30396" lon="-0.2115">
        <ele>150</ele>
        <time>2017-10-31T15:30:38Z</time>
      </trkpt>
      <trkpt lat="46.30393" lon="-0.21146">
        <ele>150</ele>
        <time>2017-10-31T15:30:38Z</time>
      </trkpt>
      <trkpt lat="46.30389" lon="-0.21143">
        <ele>150</ele>
        <time>2017-10-31T15:30:54Z</time>
      </trkpt>
      <trkpt lat="46.30385" lon="-0.2114">
        <ele>150</ele>
        <time>2017-10-31T15:30:54Z</time>
      </trkpt>
      <trkpt lat="46.30382" lon="-0.21137">
        <ele>150</ele>
        <time>2017-10-31T15:30:54Z</time>
      </trkpt>
      <trkpt lat="46.30378" lon="-0.21133">
        <ele>150</ele>
        <time>2017-10-31T15:30:54Z</time>
      </trkpt>
      <trkpt lat="46.30375" lon="-0.2113">
        <ele>151</ele>
        <time>2017-10-31T15:31:10Z</time>
      </trkpt>
      <trkpt lat="46.30372" lon="-0.21127">
        <ele>151</ele>
        <time>2017-10-31T15:31:10Z</time>
      </trkpt>
      <trkpt lat="46.30368" lon="-0.21124">
        <ele>151</ele>
        <time>2017-10-31T15:31:10Z</time>
      </trkpt>
      <trkpt lat="46.30364" lon="-0.2112">
        <ele>151</ele>
        <time>2017-10-31T15:31:10Z</time>
      </trkpt>
      <trkpt lat="46.30359" lon="-0.21117">
        <ele>151</ele>
        <time>2017-10-31T15:31:26Z</time>
      </trkpt>
      <trkpt lat="46.30356" lon="-0.21113">
        <ele>151</ele>
        <time>2017-10-31T15:31:26Z</time>
      </trkpt>
      <trkpt lat="46.30351" lon="-0.21109">
        <ele>151</ele>
        <time>2017-10-31T15:31:26Z</time>
      </trkpt>
      <trkpt lat="46.30347" lon="-0.21107">
        <ele>151</ele>
        <time>2017-10-31T15:31:26Z</time>
      </trkpt>
      <trkpt lat="46.30344" lon="-0.21104">
        <ele>151</ele>
        <time>2017-10-31T15:31:42Z</time>
      </trkpt>
      <trkpt lat="46.3034" lon="-0.21102">
        <ele>151</ele>
        <time>2017-10-31T15:31:42Z</time>
      </trkpt>
      <trkpt lat="46.30336" lon="-0.21099">
        <ele>151</ele>
        <time>2017-10-31T15:31:42Z</time>
      </trkpt>
      <trkpt lat="46.30332" lon="-0.21097">
        <ele>151</ele>
        <time>2017-10-31T15:31:42Z</time>
      </trkpt>
      <trkpt lat="46.30328" lon="-0.21095">
        <ele>151</ele>
        <time>2017-10-31T15:31:58Z</time>
      </trkpt>
      <trkpt lat="46.30324" lon="-0.21092">
        <ele>151</ele>
        <time>2017-10-31T15:31:58Z</time>
      </trkpt>
      <trkpt lat="46.3032" lon="-0.2109">
        <ele>151</ele>
        <time>2017-10-31T15:31:58Z</time>
      </trkpt>
      <trkpt lat="46.30316" lon="-0.21089">
        <ele>151</ele>
        <time>2017-10-31T15:31:58Z</time>
      </trkpt>
      <trkpt lat="46.30311" lon="-0.21087">
        <ele>151</ele>
        <time>2017-10-31T15:32:14Z</time>
      </trkpt>
      <trkpt lat="46.30307" lon="-0.21085">
        <ele>151</ele>
        <time>2017-10-31T15:32:14Z</time>
      </trkpt>
      <trkpt lat="46.30303" lon="-0.21084">
        <ele>151</ele>
        <time>2017-10-31T15:32:14Z</time>
      </trkpt>
      <trkpt lat="46.30298" lon="-0.21084">
        <ele>151</ele>
        <time>2017-10-31T15:32:14Z</time>
      </trkpt>
      <trkpt lat="46.30294" lon="-0.21083">
        <ele>151</ele>
        <time>2017-10-31T15:32:30Z</time>
      </trkpt>
      <trkpt lat="46.30289" lon="-0.21083">
        <ele>149</ele>
        <time>2017-10-31T15:32:30Z</time>
      </trkpt>
      <trkpt lat="46.30285" lon="-0.21082">
        <ele>149</ele>
        <time>2017-10-31T15:32:30Z</time>
      </trkpt>
      <trkpt lat="46.3028" lon="-0.21081">
        <ele>149</ele>
        <time>2017-10-31T15:32:30Z</time>
      </trkpt>
      <trkpt lat="46.30276" lon="-0.21079">
        <ele>149</ele>
        <time>2017-10-31T15:32:46Z</time>
      </trkpt>
      <trkpt lat="46.30271" lon="-0.21078">
        <ele>149</ele>
        <time>2017-10-31T15:32:46Z</time>
      </trkpt>
      <trkpt lat="46.30267" lon="-0.21076">
        <ele>149</ele>
        <time>2017-10-31T15:32:46Z</time>
      </trkpt>
      <trkpt lat="46.30263" lon="-0.21074">
        <ele>149</ele>
        <time>2017-10-31T15:32:46Z</time>
      </trkpt>
      <trkpt lat="46.3026" lon="-0.21073">
        <ele>149</ele>
        <time>2017-10-31T15:33:02Z</time>
      </trkpt>
      <trkpt lat="46.30256" lon="-0.21072">
        <ele>149</ele>
        <time>2017-10-31T15:33:02Z</time>
      </trkpt>
      <trkpt lat="46.30252" lon="-0.21069">
        <ele>149</ele>
        <time>2017-10-31T15:33:02Z</time>
      </trkpt>
      <trkpt lat="46.30248" lon="-0.21066">
        <ele>149</ele>
        <time>2017-10-31T15:33:02Z</time>
      </trkpt>
      <trkpt lat="46.30245" lon="-0.21066">
        <ele>149</ele>
        <time>2017-10-31T15:33:18Z</time>
      </trkpt>
      <trkpt lat="46.30242" lon="-0.21063">
        <ele>149</ele>
        <time>2017-10-31T15:33:18Z</time>
      </trkpt>
      <trkpt lat="46.30238" lon="-0.2106">
        <ele>149</ele>
        <time>2017-10-31T15:33:18Z</time>
      </trkpt>
      <trkpt lat="46.30235" lon="-0.21057">
        <ele>149</ele>
        <time>2017-10-31T15:33:18Z</time>
      </trkpt>
      <trkpt lat="46.30232" lon="-0.21052">
        <ele>149</ele>
        <time>2017-10-31T15:33:34Z</time>
      </trkpt>
      <trkpt lat="46.30227" lon="-0.21047">
        <ele>149</ele>
        <time>2017-10-31T15:33:34Z</time>
      </trkpt>
      <trkpt lat="46.30223" lon="-0.21044">
        <ele>149</ele>
        <time>2017-10-31T15:33:34Z</time>
      </trkpt>
      <trkpt lat="46.3022" lon="-0.2104">
        <ele>144</ele>
        <time>2017-10-31T15:33:34Z</time>
      </trkpt>
      <trkpt lat="46.30217" lon="-0.21037">
        <ele>144</ele>
        <time>2017-10-31T15:33:50Z</time>
      </trkpt>
      <trkpt lat="46.30214" lon="-0.21033">
        <ele>144</ele>
        <time>2017-10-31T15:33:50Z</time>
      </trkpt>
      <trkpt lat="46.30211" lon="-0.21028">
        <ele>144</ele>
        <time>2017-10-31T15:33:50Z</time>
      </trkpt>
      <trkpt lat="46.30206" lon="-0.21024">
        <ele>138</ele>
        <time>2017-10-31T15:33:50Z</time>
      </trkpt>
      <trkpt lat="46.30201" lon="-0.2102">
        <ele>138</ele>
        <time>2017-10-31T15:34:06Z</time>
      </trkpt>
      <trkpt lat="46.30198" lon="-0.21017">
        <ele>138</ele>
        <time>2017-10-31T15:34:06Z</time>
      </trkpt>
      <trkpt lat="46.30193" lon="-0.21012">
        <ele>138</ele>
        <time>2017-10-31T15:34:06Z</time>
      </trkpt>
      <trkpt lat="46.30189" lon="-0.21008">
        <ele>138</ele>
        <time>2017-10-31T15:34:06Z</time>
      </trkpt>
      <trkpt lat="46.30185" lon="-0.21003">
        <ele>138</ele>
        <time>2017-10-31T15:34:22Z</time>
      </trkpt>
      <trkpt lat="46.30182" lon="-0.20999">
        <ele>138</ele>
        <time>2017-10-31T15:34:22Z</time>
      </trkpt>
      <trkpt lat="46.30178" lon="-0.20995">
        <ele>138</ele>
        <time>2017-10-31T15:34:22Z</time>
      </trkpt>
      <trkpt lat="46.30174" lon="-0.20991">
        <ele>138</ele>
        <time>2017-10-31T15:34:22Z</time>
      </trkpt>
      <trkpt lat="46.30169" lon="-0.20987">
        <ele>138</ele>
        <time>2017-10-31T15:34:38Z</time>
      </trkpt>
      <trkpt lat="46.30165" lon="-0.20984">
        <ele>138</ele>
        <time>2017-10-31T15:34:38Z</time>
      </trkpt>
      <trkpt lat="46.30161" lon="-0.20981">
        <ele>138</ele>
        <time>2017-10-31T15:34:38Z</time>
      </trkpt>
      <trkpt lat="46.30159" lon="-0.20978">
        <ele>138</ele>
        <time>2017-10-31T15:34:38Z</time>
      </trkpt>
      <trkpt lat="46.30156" lon="-0.20974">
        <ele>138</ele>
        <time>2017-10-31T15:34:54Z</time>
      </trkpt>
      <trkpt lat="46.30152" lon="-0.20971">
        <ele>138</ele>
        <time>2017-10-31T15:34:54Z</time>
      </trkpt>
      <trkpt lat="46.30149" lon="-0.20968">
        <ele>138</ele>
        <time>2017-10-31T15:34:54Z</time>
      </trkpt>
      <trkpt lat="46.30144" lon="-0.20962">
        <ele>138</ele>
        <time>2017-10-31T15:34:54Z</time>
      </trkpt>
      <trkpt lat="46.30139" lon="-0.20957">
        <ele>134</ele>
        <time>2017-10-31T15:35:10Z</time>
      </trkpt>
      <trkpt lat="46.30135" lon="-0.20951">
        <ele>134</ele>
        <time>2017-10-31T15:35:10Z</time>
      </trkpt>
      <trkpt lat="46.3013" lon="-0.20947">
        <ele>134</ele>
        <time>2017-10-31T15:35:10Z</time>
      </trkpt>
      <trkpt lat="46.30126" lon="-0.20943">
        <ele>134</ele>
        <time>2017-10-31T15:35:10Z</time>
      </trkpt>
      <trkpt lat="46.30122" lon="-0.20938">
        <ele>128</ele>
        <time>2017-10-31T15:35:26Z</time>
      </trkpt>
      <trkpt lat="46.30117" lon="-0.20933">
        <ele>128</ele>
        <time>2017-10-31T15:35:26Z</time>
      </trkpt>
      <trkpt lat="46.30113" lon="-0.20929">
        <ele>128</ele>
        <time>2017-10-31T15:35:26Z</time>
      </trkpt>
      <trkpt lat="46.3011" lon="-0.20925">
        <ele>128</ele>
        <time>2017-10-31T15:35:26Z</time>
      </trkpt>
      <trkpt lat="46.30108" lon="-0.20921">
        <ele>128</ele>
        <time>2017-10-31T15:35:42Z</time>
      </trkpt>
      <trkpt lat="46.30106" lon="-0.20917">
        <ele>128</ele>
        <time>2017-10-31T15:35:42Z</time>
      </trkpt>
      <trkpt lat="46.30103" lon="-0.20914">
        <ele>128</ele>
        <time>2017-10-31T15:35:42Z</time>
      </trkpt>
      <trkpt lat="46.301" lon="-0.20909">
        <ele>128</ele>
        <time>2017-10-31T15:35:42Z</time>
      </trkpt>
      <trkpt lat="46.30097" lon="-0.20906">
        <ele>128</ele>
        <time>2017-10-31T15:35:58Z</time>
      </trkpt>
      <trkpt lat="46.30093" lon="-0.20901">
        <ele>128</ele>
        <time>2017-10-31T15:35:58Z</time>
      </trkpt>
      <trkpt lat="46.30089" lon="-0.20897">
        <ele>128</ele>
        <time>2017-10-31T15:35:58Z</time>
      </trkpt>
      <trkpt lat="46.30085" lon="-0.20893">
        <ele>128</ele>
        <time>2017-10-31T15:35:58Z</time>
      </trkpt>
      <trkpt lat="46.30081" lon="-0.20889">
        <ele>128</ele>
        <time>2017-10-31T15:36:14Z</time>
      </trkpt>
      <trkpt lat="46.30078" lon="-0.20885">
        <ele>128</ele>
        <time>2017-10-31T15:36:14Z</time>
      </trkpt>
      <trkpt lat="46.30075" lon="-0.20882">
        <ele>128</ele>
        <time>2017-10-31T15:36:14Z</time>
      </trkpt>
      <trkpt lat="46.30072" lon="-0.20878">
        <ele>128</ele>
        <time>2017-10-31T15:36:14Z</time>
      </trkpt>
      <trkpt lat="46.3007" lon="-0.20873">
        <ele>125</ele>
        <time>2017-10-31T15:36:30Z</time>
      </trkpt>
      <trkpt lat="46.3007" lon="-0.20869">
        <ele>125</ele>
        <time>2017-10-31T15:36:30Z</time>
      </trkpt>
      <trkpt lat="46.3007" lon="-0.20865">
        <ele>125</ele>
        <time>2017-10-31T15:36:30Z</time>
      </trkpt>
      <trkpt lat="46.30071" lon="-0.2086">
        <ele>125</ele>
        <time>2017-10-31T15:36:30Z</time>
      </trkpt>
      <trkpt lat="46.30072" lon="-0.20859">
        <ele>125</ele>
        <time>2017-10-31T15:36:54Z</time>
      </trkpt>
      <trkpt lat="46.30074" lon="-0.20853">
        <ele>125</ele>
        <time>2017-10-31T15:36:54Z</time>
      </trkpt>
      <trkpt lat="46.30074" lon="-0.20849">
        <ele>125</ele>
        <time>2017-10-31T15:36:54Z</time>
      </trkpt>
      <trkpt lat="46.30077" lon="-0.20845">
        <ele>125</ele>
        <time>2017-10-31T15:36:54Z</time>
      </trkpt>
      <trkpt lat="46.30078" lon="-0.20841">
        <ele>125</ele>
        <time>2017-10-31T15:37:10Z</time>
      </trkpt>
      <trkpt lat="46.30079" lon="-0.20836">
        <ele>125</ele>
        <time>2017-10-31T15:37:10Z</time>
      </trkpt>
      <trkpt lat="46.3008" lon="-0.2083">
        <ele>125</ele>
        <time>2017-10-31T15:37:10Z</time>
      </trkpt>
      <trkpt lat="46.30081" lon="-0.20824">
        <ele>125</ele>
        <time>2017-10-31T15:37:10Z</time>
      </trkpt>
      <trkpt lat="46.30081" lon="-0.20819">
        <ele>125</ele>
        <time>2017-10-31T15:37:26Z</time>
      </trkpt>
      <trkpt lat="46.3008" lon="-0.20812">
        <ele>125</ele>
        <time>2017-10-31T15:37:26Z</time>
      </trkpt>
      <trkpt lat="46.30079" lon="-0.20807">
        <ele>125</ele>
        <time>2017-10-31T15:37:26Z</time>
      </trkpt>
      <trkpt lat="46.30078" lon="-0.20801">
        <ele>125</ele>
        <time>2017-10-31T15:37:26Z</time>
      </trkpt>
      <trkpt lat="46.30075" lon="-0.20797">
        <ele>125</ele>
        <time>2017-10-31T15:37:42Z</time>
      </trkpt>
      <trkpt lat="46.30073" lon="-0.20794">
        <ele>125</ele>
        <time>2017-10-31T15:37:42Z</time>
      </trkpt>
      <trkpt lat="46.30069" lon="-0.20791">
        <ele>122</ele>
        <time>2017-10-31T15:37:42Z</time>
      </trkpt>
      <trkpt lat="46.30065" lon="-0.20788">
        <ele>122</ele>
        <time>2017-10-31T15:37:42Z</time>
      </trkpt>
      <trkpt lat="46.3006" lon="-0.20781">
        <ele>122</ele>
        <time>2017-10-31T15:37:58Z</time>
      </trkpt>
      <trkpt lat="46.30055" lon="-0.20773">
        <ele>122</ele>
        <time>2017-10-31T15:37:58Z</time>
      </trkpt>
      <trkpt lat="46.30051" lon="-0.2077">
        <ele>122</ele>
        <time>2017-10-31T15:37:58Z</time>
      </trkpt>
      <trkpt lat="46.30047" lon="-0.20767">
        <ele>122</ele>
        <time>2017-10-31T15:37:58Z</time>
      </trkpt>
      <trkpt lat="46.30043" lon="-0.20764">
        <ele>122</ele>
        <time>2017-10-31T15:38:19Z</time>
      </trkpt>
      <trkpt lat="46.30039" lon="-0.20762">
        <ele>113</ele>
        <time>2017-10-31T15:38:19Z</time>
      </trkpt>
      <trkpt lat="46.30039" lon="-0.2076">
        <ele>113</ele>
        <time>2017-10-31T15:38:19Z</time>
      </trkpt>
      <trkpt lat="46.3004" lon="-0.20754">
        <ele>113</ele>
        <time>2017-10-31T15:38:19Z</time>
      </trkpt>
      <trkpt lat="46.30041" lon="-0.20749">
        <ele>113</ele>
        <time>2017-10-31T15:38:19Z</time>
      </trkpt>
      <trkpt lat="46.30041" lon="-0.20747">
        <ele>113</ele>
        <time>2017-10-31T15:38:34Z</time>
      </trkpt>
      <trkpt lat="46.30043" lon="-0.20743">
        <ele>122</ele>
        <time>2017-10-31T15:38:34Z</time>
      </trkpt>
      <trkpt lat="46.30045" lon="-0.20739">
        <ele>122</ele>
        <time>2017-10-31T15:38:34Z</time>
      </trkpt>
      <trkpt lat="46.30046" lon="-0.20733">
        <ele>122</ele>
        <time>2017-10-31T15:38:34Z</time>
      </trkpt>
      <trkpt lat="46.30047" lon="-0.20726">
        <ele>122</ele>
        <time>2017-10-31T15:38:50Z</time>
      </trkpt>
      <trkpt lat="46.30048" lon="-0.20719">
        <ele>122</ele>
        <time>2017-10-31T15:38:50Z</time>
      </trkpt>
      <trkpt lat="46.30049" lon="-0.20713">
        <ele>122</ele>
        <time>2017-10-31T15:38:50Z</time>
      </trkpt>
      <trkpt lat="46.30051" lon="-0.20707">
        <ele>118</ele>
        <time>2017-10-31T15:38:50Z</time>
      </trkpt>
      <trkpt lat="46.30054" lon="-0.20702">
        <ele>118</ele>
        <time>2017-10-31T15:39:06Z</time>
      </trkpt>
      <trkpt lat="46.30059" lon="-0.20701">
        <ele>118</ele>
        <time>2017-10-31T15:39:06Z</time>
      </trkpt>
      <trkpt lat="46.30062" lon="-0.207">
        <ele>118</ele>
        <time>2017-10-31T15:39:06Z</time>
      </trkpt>
      <trkpt lat="46.30067" lon="-0.207">
        <ele>118</ele>
        <time>2017-10-31T15:39:06Z</time>
      </trkpt>
      <trkpt lat="46.30072" lon="-0.20697">
        <ele>118</ele>
        <time>2017-10-31T15:39:22Z</time>
      </trkpt>
      <trkpt lat="46.30077" lon="-0.20693">
        <ele>118</ele>
        <time>2017-10-31T15:39:22Z</time>
      </trkpt>
      <trkpt lat="46.30081" lon="-0.20688">
        <ele>118</ele>
        <time>2017-10-31T15:39:22Z</time>
      </trkpt>
      <trkpt lat="46.30084" lon="-0.20683">
        <ele>118</ele>
        <time>2017-10-31T15:39:22Z</time>
      </trkpt>
      <trkpt lat="46.30088" lon="-0.20678">
        <ele>118</ele>
        <time>2017-10-31T15:39:38Z</time>
      </trkpt>
      <trkpt lat="46.30092" lon="-0.20674">
        <ele>118</ele>
        <time>2017-10-31T15:39:38Z</time>
      </trkpt>
      <trkpt lat="46.30096" lon="-0.20669">
        <ele>118</ele>
        <time>2017-10-31T15:39:38Z</time>
      </trkpt>
      <trkpt lat="46.301" lon="-0.20665">
        <ele>118</ele>
        <time>2017-10-31T15:39:38Z</time>
      </trkpt>
      <trkpt lat="46.30104" lon="-0.2066">
        <ele>118</ele>
        <time>2017-10-31T15:39:54Z</time>
      </trkpt>
      <trkpt lat="46.30108" lon="-0.20657">
        <ele>118</ele>
        <time>2017-10-31T15:39:54Z</time>
      </trkpt>
      <trkpt lat="46.30111" lon="-0.20654">
        <ele>118</ele>
        <time>2017-10-31T15:39:54Z</time>
      </trkpt>
      <trkpt lat="46.30115" lon="-0.2065">
        <ele>118</ele>
        <time>2017-10-31T15:39:54Z</time>
      </trkpt>
      <trkpt lat="46.30118" lon="-0.20646">
        <ele>118</ele>
        <time>2017-10-31T15:40:10Z</time>
      </trkpt>
      <trkpt lat="46.30121" lon="-0.2064">
        <ele>118</ele>
        <time>2017-10-31T15:40:10Z</time>
      </trkpt>
      <trkpt lat="46.30123" lon="-0.20635">
        <ele>118</ele>
        <time>2017-10-31T15:40:10Z</time>
      </trkpt>
      <trkpt lat="46.30125" lon="-0.2063">
        <ele>125</ele>
        <time>2017-10-31T15:40:10Z</time>
      </trkpt>
      <trkpt lat="46.30128" lon="-0.20625">
        <ele>120</ele>
        <time>2017-10-31T15:40:26Z</time>
      </trkpt>
      <trkpt lat="46.30129" lon="-0.20618">
        <ele>120</ele>
        <time>2017-10-31T15:40:26Z</time>
      </trkpt>
      <trkpt lat="46.3013" lon="-0.20614">
        <ele>120</ele>
        <time>2017-10-31T15:40:26Z</time>
      </trkpt>
      <trkpt lat="46.30131" lon="-0.2061">
        <ele>120</ele>
        <time>2017-10-31T15:40:26Z</time>
      </trkpt>
      <trkpt lat="46.30132" lon="-0.20605">
        <ele>120</ele>
        <time>2017-10-31T15:40:42Z</time>
      </trkpt>
      <trkpt lat="46.30133" lon="-0.20599">
        <ele>120</ele>
        <time>2017-10-31T15:40:42Z</time>
      </trkpt>
      <trkpt lat="46.30133" lon="-0.20594">
        <ele>120</ele>
        <time>2017-10-31T15:40:42Z</time>
      </trkpt>
      <trkpt lat="46.3013" lon="-0.20586">
        <ele>120</ele>
        <time>2017-10-31T15:40:42Z</time>
      </trkpt>
      <trkpt lat="46.30127" lon="-0.20579">
        <ele>120</ele>
        <time>2017-10-31T15:40:58Z</time>
      </trkpt>
      <trkpt lat="46.30123" lon="-0.20572">
        <ele>115</ele>
        <time>2017-10-31T15:40:58Z</time>
      </trkpt>
      <trkpt lat="46.3012" lon="-0.20567">
        <ele>115</ele>
        <time>2017-10-31T15:40:58Z</time>
      </trkpt>
      <trkpt lat="46.30116" lon="-0.20562">
        <ele>115</ele>
        <time>2017-10-31T15:40:58Z</time>
      </trkpt>
      <trkpt lat="46.30112" lon="-0.2056">
        <ele>115</ele>
        <time>2017-10-31T15:41:14Z</time>
      </trkpt>
      <trkpt lat="46.30108" lon="-0.20558">
        <ele>115</ele>
        <time>2017-10-31T15:41:14Z</time>
      </trkpt>
      <trkpt lat="46.30104" lon="-0.20558">
        <ele>115</ele>
        <time>2017-10-31T15:41:14Z</time>
      </trkpt>
      <trkpt lat="46.301" lon="-0.20559">
        <ele>115</ele>
        <time>2017-10-31T15:41:14Z</time>
      </trkpt>
      <trkpt lat="46.30096" lon="-0.2056">
        <ele>115</ele>
        <time>2017-10-31T15:41:30Z</time>
      </trkpt>
      <trkpt lat="46.30092" lon="-0.20562">
        <ele>115</ele>
        <time>2017-10-31T15:41:30Z</time>
      </trkpt>
      <trkpt lat="46.30088" lon="-0.20564">
        <ele>115</ele>
        <time>2017-10-31T15:41:30Z</time>
      </trkpt>
      <trkpt lat="46.30084" lon="-0.20566">
        <ele>115</ele>
        <time>2017-10-31T15:41:30Z</time>
      </trkpt>
      <trkpt lat="46.30078" lon="-0.20571">
        <ele>115</ele>
        <time>2017-10-31T15:42:06Z</time>
      </trkpt>
      <trkpt lat="46.30075" lon="-0.20572">
        <ele>115</ele>
        <time>2017-10-31T15:42:06Z</time>
      </trkpt>
      <trkpt lat="46.30075" lon="-0.20572">
        <ele>115</ele>
        <time>2017-10-31T15:42:06Z</time>
      </trkpt>
      <trkpt lat="46.30071" lon="-0.20573">
        <ele>115</ele>
        <time>2017-10-31T15:42:06Z</time>
      </trkpt>
      <trkpt lat="46.30069" lon="-0.20574">
        <ele>115</ele>
        <time>2017-10-31T15:42:06Z</time>
      </trkpt>
      <trkpt lat="46.30066" lon="-0.20575">
        <ele>115</ele>
        <time>2017-10-31T15:42:26Z</time>
      </trkpt>
      <trkpt lat="46.30063" lon="-0.20577">
        <ele>115</ele>
        <time>2017-10-31T15:42:26Z</time>
      </trkpt>
      <trkpt lat="46.30061" lon="-0.20579">
        <ele>115</ele>
        <time>2017-10-31T15:42:26Z</time>
      </trkpt>
      <trkpt lat="46.30057" lon="-0.2058">
        <ele>115</ele>
        <time>2017-10-31T15:42:26Z</time>
      </trkpt>
      <trkpt lat="46.30055" lon="-0.20581">
        <ele>115</ele>
        <time>2017-10-31T15:42:26Z</time>
      </trkpt>
      <trkpt lat="46.30052" lon="-0.20582">
        <ele>115</ele>
        <time>2017-10-31T15:42:42Z</time>
      </trkpt>
      <trkpt lat="46.30048" lon="-0.20584">
        <ele>115</ele>
        <time>2017-10-31T15:42:42Z</time>
      </trkpt>
      <trkpt lat="46.30045" lon="-0.20587">
        <ele>115</ele>
        <time>2017-10-31T15:42:42Z</time>
      </trkpt>
      <trkpt lat="46.3004" lon="-0.20589">
        <ele>115</ele>
        <time>2017-10-31T15:42:42Z</time>
      </trkpt>
      <trkpt lat="46.30037" lon="-0.20591">
        <ele>115</ele>
        <time>2017-10-31T15:42:58Z</time>
      </trkpt>
      <trkpt lat="46.30033" lon="-0.20593">
        <ele>115</ele>
        <time>2017-10-31T15:42:58Z</time>
      </trkpt>
      <trkpt lat="46.30029" lon="-0.20595">
        <ele>115</ele>
        <time>2017-10-31T15:42:58Z</time>
      </trkpt>
      <trkpt lat="46.30023" lon="-0.20598">
        <ele>115</ele>
        <time>2017-10-31T15:42:58Z</time>
      </trkpt>
      <trkpt lat="46.30019" lon="-0.20599">
        <ele>115</ele>
        <time>2017-10-31T15:43:14Z</time>
      </trkpt>
      <trkpt lat="46.30015" lon="-0.20602">
        <ele>115</ele>
        <time>2017-10-31T15:43:14Z</time>
      </trkpt>
      <trkpt lat="46.3001" lon="-0.20606">
        <ele>115</ele>
        <time>2017-10-31T15:43:14Z</time>
      </trkpt>
      <trkpt lat="46.30007" lon="-0.20608">
        <ele>115</ele>
        <time>2017-10-31T15:43:14Z</time>
      </trkpt>
      <trkpt lat="46.30003" lon="-0.20611">
        <ele>115</ele>
        <time>2017-10-31T15:43:30Z</time>
      </trkpt>
      <trkpt lat="46.3" lon="-0.20614">
        <ele>115</ele>
        <time>2017-10-31T15:43:30Z</time>
      </trkpt>
      <trkpt lat="46.29997" lon="-0.20616">
        <ele>115</ele>
        <time>2017-10-31T15:43:30Z</time>
      </trkpt>
      <trkpt lat="46.29994" lon="-0.20618">
        <ele>115</ele>
        <time>2017-10-31T15:43:30Z</time>
      </trkpt>
      <trkpt lat="46.29991" lon="-0.2062">
        <ele>115</ele>
        <time>2017-10-31T15:43:46Z</time>
      </trkpt>
      <trkpt lat="46.29987" lon="-0.2062">
        <ele>115</ele>
        <time>2017-10-31T15:43:46Z</time>
      </trkpt>
      <trkpt lat="46.29984" lon="-0.20619">
        <ele>115</ele>
        <time>2017-10-31T15:43:46Z</time>
      </trkpt>
      <trkpt lat="46.29981" lon="-0.20616">
        <ele>115</ele>
        <time>2017-10-31T15:43:46Z</time>
      </trkpt>
      <trkpt lat="46.29979" lon="-0.20614">
        <ele>115</ele>
        <time>2017-10-31T15:44:02Z</time>
      </trkpt>
      <trkpt lat="46.29976" lon="-0.20611">
        <ele>115</ele>
        <time>2017-10-31T15:44:02Z</time>
      </trkpt>
      <trkpt lat="46.29973" lon="-0.20607">
        <ele>115</ele>
        <time>2017-10-31T15:44:02Z</time>
      </trkpt>
      <trkpt lat="46.29971" lon="-0.20603">
        <ele>115</ele>
        <time>2017-10-31T15:44:02Z</time>
      </trkpt>
      <trkpt lat="46.29969" lon="-0.20598">
        <ele>115</ele>
        <time>2017-10-31T15:44:18Z</time>
      </trkpt>
      <trkpt lat="46.29967" lon="-0.20594">
        <ele>115</ele>
        <time>2017-10-31T15:44:18Z</time>
      </trkpt>
      <trkpt lat="46.29964" lon="-0.2059">
        <ele>115</ele>
        <time>2017-10-31T15:44:18Z</time>
      </trkpt>
      <trkpt lat="46.29962" lon="-0.20587">
        <ele>115</ele>
        <time>2017-10-31T15:44:18Z</time>
      </trkpt>
      <trkpt lat="46.29958" lon="-0.20583">
        <ele>112</ele>
        <time>2017-10-31T15:44:34Z</time>
      </trkpt>
      <trkpt lat="46.29956" lon="-0.2058">
        <ele>112</ele>
        <time>2017-10-31T15:44:34Z</time>
      </trkpt>
      <trkpt lat="46.29954" lon="-0.20575">
        <ele>112</ele>
        <time>2017-10-31T15:44:35Z</time>
      </trkpt>
      <trkpt lat="46.29952" lon="-0.20571">
        <ele>112</ele>
        <time>2017-10-31T15:44:36Z</time>
      </trkpt>
      <trkpt lat="46.29949" lon="-0.20567">
        <ele>112</ele>
        <time>2017-10-31T15:44:50Z</time>
      </trkpt>
      <trkpt lat="46.29946" lon="-0.20564">
        <ele>112</ele>
        <time>2017-10-31T15:44:50Z</time>
      </trkpt>
      <trkpt lat="46.29942" lon="-0.20555">
        <ele>112</ele>
        <time>2017-10-31T15:44:50Z</time>
      </trkpt>
      <trkpt lat="46.29938" lon="-0.20548">
        <ele>112</ele>
        <time>2017-10-31T15:44:50Z</time>
      </trkpt>
      <trkpt lat="46.29935" lon="-0.20543">
        <ele>112</ele>
        <time>2017-10-31T15:45:06Z</time>
      </trkpt>
      <trkpt lat="46.29932" lon="-0.20538">
        <ele>118</ele>
        <time>2017-10-31T15:45:06Z</time>
      </trkpt>
      <trkpt lat="46.2993" lon="-0.20534">
        <ele>118</ele>
        <time>2017-10-31T15:45:06Z</time>
      </trkpt>
      <trkpt lat="46.29927" lon="-0.20529">
        <ele>118</ele>
        <time>2017-10-31T15:45:06Z</time>
      </trkpt>
      <trkpt lat="46.29925" lon="-0.20524">
        <ele>118</ele>
        <time>2017-10-31T15:45:26Z</time>
      </trkpt>
      <trkpt lat="46.29925" lon="-0.20523">
        <ele>118</ele>
        <time>2017-10-31T15:45:26Z</time>
      </trkpt>
      <trkpt lat="46.29924" lon="-0.20519">
        <ele>118</ele>
        <time>2017-10-31T15:45:26Z</time>
      </trkpt>
      <trkpt lat="46.29924" lon="-0.20514">
        <ele>118</ele>
        <time>2017-10-31T15:45:26Z</time>
      </trkpt>
      <trkpt lat="46.29924" lon="-0.20508">
        <ele>118</ele>
        <time>2017-10-31T15:45:26Z</time>
      </trkpt>
      <trkpt lat="46.29924" lon="-0.20503">
        <ele>118</ele>
        <time>2017-10-31T15:45:46Z</time>
      </trkpt>
      <trkpt lat="46.29924" lon="-0.20502">
        <ele>118</ele>
        <time>2017-10-31T15:45:46Z</time>
      </trkpt>
      <trkpt lat="46.29919" lon="-0.20483">
        <ele>118</ele>
        <time>2017-10-31T15:45:46Z</time>
      </trkpt>
      <trkpt lat="46.29916" lon="-0.20479">
        <ele>118</ele>
        <time>2017-10-31T15:45:46Z</time>
      </trkpt>
      <trkpt lat="46.29913" lon="-0.20476">
        <ele>118</ele>
        <time>2017-10-31T15:46:02Z</time>
      </trkpt>
      <trkpt lat="46.2991" lon="-0.20469">
        <ele>118</ele>
        <time>2017-10-31T15:46:02Z</time>
      </trkpt>
      <trkpt lat="46.29906" lon="-0.20463">
        <ele>118</ele>
        <time>2017-10-31T15:46:02Z</time>
      </trkpt>
      <trkpt lat="46.29901" lon="-0.20456">
        <ele>122</ele>
        <time>2017-10-31T15:46:02Z</time>
      </trkpt>
      <trkpt lat="46.29897" lon="-0.20448">
        <ele>122</ele>
        <time>2017-10-31T15:46:18Z</time>
      </trkpt>
      <trkpt lat="46.29892" lon="-0.20441">
        <ele>122</ele>
        <time>2017-10-31T15:46:18Z</time>
      </trkpt>
      <trkpt lat="46.29888" lon="-0.20436">
        <ele>122</ele>
        <time>2017-10-31T15:46:18Z</time>
      </trkpt>
      <trkpt lat="46.29884" lon="-0.20431">
        <ele>122</ele>
        <time>2017-10-31T15:46:18Z</time>
      </trkpt>
      <trkpt lat="46.2988" lon="-0.20429">
        <ele>122</ele>
        <time>2017-10-31T15:46:34Z</time>
      </trkpt>
      <trkpt lat="46.29876" lon="-0.20427">
        <ele>122</ele>
        <time>2017-10-31T15:46:34Z</time>
      </trkpt>
      <trkpt lat="46.29874" lon="-0.20424">
        <ele>116</ele>
        <time>2017-10-31T15:46:34Z</time>
      </trkpt>
      <trkpt lat="46.2987" lon="-0.20421">
        <ele>116</ele>
        <time>2017-10-31T15:46:34Z</time>
      </trkpt>
      <trkpt lat="46.29867" lon="-0.20419">
        <ele>116</ele>
        <time>2017-10-31T15:46:50Z</time>
      </trkpt>
      <trkpt lat="46.29863" lon="-0.20416">
        <ele>116</ele>
        <time>2017-10-31T15:46:50Z</time>
      </trkpt>
      <trkpt lat="46.2986" lon="-0.20414">
        <ele>116</ele>
        <time>2017-10-31T15:46:50Z</time>
      </trkpt>
      <trkpt lat="46.29857" lon="-0.2041">
        <ele>116</ele>
        <time>2017-10-31T15:46:50Z</time>
      </trkpt>
      <trkpt lat="46.29854" lon="-0.20407">
        <ele>116</ele>
        <time>2017-10-31T15:47:06Z</time>
      </trkpt>
      <trkpt lat="46.29851" lon="-0.20404">
        <ele>116</ele>
        <time>2017-10-31T15:47:06Z</time>
      </trkpt>
      <trkpt lat="46.2985" lon="-0.20401">
        <ele>116</ele>
        <time>2017-10-31T15:47:06Z</time>
      </trkpt>
      <trkpt lat="46.29847" lon="-0.20398">
        <ele>116</ele>
        <time>2017-10-31T15:47:06Z</time>
      </trkpt>
      <trkpt lat="46.29844" lon="-0.20392">
        <ele>116</ele>
        <time>2017-10-31T15:47:22Z</time>
      </trkpt>
      <trkpt lat="46.2984" lon="-0.20384">
        <ele>116</ele>
        <time>2017-10-31T15:47:22Z</time>
      </trkpt>
      <trkpt lat="46.29835" lon="-0.20373">
        <ele>121</ele>
        <time>2017-10-31T15:47:22Z</time>
      </trkpt>
      <trkpt lat="46.29833" lon="-0.20364">
        <ele>121</ele>
        <time>2017-10-31T15:47:22Z</time>
      </trkpt>
      <trkpt lat="46.29831" lon="-0.20357">
        <ele>121</ele>
        <time>2017-10-31T15:47:38Z</time>
      </trkpt>
      <trkpt lat="46.2983" lon="-0.20352">
        <ele>121</ele>
        <time>2017-10-31T15:47:38Z</time>
      </trkpt>
      <trkpt lat="46.29828" lon="-0.20348">
        <ele>121</ele>
        <time>2017-10-31T15:47:38Z</time>
      </trkpt>
      <trkpt lat="46.29825" lon="-0.20343">
        <ele>121</ele>
        <time>2017-10-31T15:47:38Z</time>
      </trkpt>
      <trkpt lat="46.29822" lon="-0.20338">
        <ele>121</ele>
        <time>2017-10-31T15:47:54Z</time>
      </trkpt>
      <trkpt lat="46.29818" lon="-0.20334">
        <ele>121</ele>
        <time>2017-10-31T15:47:54Z</time>
      </trkpt>
      <trkpt lat="46.29814" lon="-0.20329">
        <ele>121</ele>
        <time>2017-10-31T15:47:54Z</time>
      </trkpt>
      <trkpt lat="46.29811" lon="-0.20325">
        <ele>121</ele>
        <time>2017-10-31T15:47:54Z</time>
      </trkpt>
      <trkpt lat="46.29806" lon="-0.20322">
        <ele>121</ele>
        <time>2017-10-31T15:48:10Z</time>
      </trkpt>
      <trkpt lat="46.29801" lon="-0.2032">
        <ele>121</ele>
        <time>2017-10-31T15:48:10Z</time>
      </trkpt>
      <trkpt lat="46.29796" lon="-0.20317">
        <ele>121</ele>
        <time>2017-10-31T15:48:10Z</time>
      </trkpt>
      <trkpt lat="46.2979" lon="-0.20314">
        <ele>115</ele>
        <time>2017-10-31T15:48:10Z</time>
      </trkpt>
      <trkpt lat="46.29786" lon="-0.2031">
        <ele>115</ele>
        <time>2017-10-31T15:48:26Z</time>
      </trkpt>
      <trkpt lat="46.29782" lon="-0.20307">
        <ele>115</ele>
        <time>2017-10-31T15:48:26Z</time>
      </trkpt>
      <trkpt lat="46.29778" lon="-0.20304">
        <ele>115</ele>
        <time>2017-10-31T15:48:26Z</time>
      </trkpt>
      <trkpt lat="46.29775" lon="-0.20299">
        <ele>115</ele>
        <time>2017-10-31T15:48:26Z</time>
      </trkpt>
      <trkpt lat="46.29772" lon="-0.20296">
        <ele>115</ele>
        <time>2017-10-31T15:48:42Z</time>
      </trkpt>
      <trkpt lat="46.29768" lon="-0.20292">
        <ele>117</ele>
        <time>2017-10-31T15:48:42Z</time>
      </trkpt>
      <trkpt lat="46.29765" lon="-0.20289">
        <ele>117</ele>
        <time>2017-10-31T15:48:42Z</time>
      </trkpt>
      <trkpt lat="46.29763" lon="-0.20287">
        <ele>117</ele>
        <time>2017-10-31T15:48:42Z</time>
      </trkpt>
      <trkpt lat="46.29761" lon="-0.20284">
        <ele>117</ele>
        <time>2017-10-31T15:48:58Z</time>
      </trkpt>
      <trkpt lat="46.29759" lon="-0.2028">
        <ele>117</ele>
        <time>2017-10-31T15:48:58Z</time>
      </trkpt>
      <trkpt lat="46.29755" lon="-0.20276">
        <ele>117</ele>
        <time>2017-10-31T15:48:58Z</time>
      </trkpt>
      <trkpt lat="46.29752" lon="-0.2027">
        <ele>117</ele>
        <time>2017-10-31T15:48:58Z</time>
      </trkpt>
      <trkpt lat="46.2975" lon="-0.20265">
        <ele>117</ele>
        <time>2017-10-31T15:49:14Z</time>
      </trkpt>
      <trkpt lat="46.29747" lon="-0.20262">
        <ele>117</ele>
        <time>2017-10-31T15:49:14Z</time>
      </trkpt>
      <trkpt lat="46.29744" lon="-0.20259">
        <ele>117</ele>
        <time>2017-10-31T15:49:14Z</time>
      </trkpt>
      <trkpt lat="46.29742" lon="-0.20255">
        <ele>117</ele>
        <time>2017-10-31T15:49:14Z</time>
      </trkpt>
      <trkpt lat="46.2974" lon="-0.20252">
        <ele>117</ele>
        <time>2017-10-31T15:49:30Z</time>
      </trkpt>
      <trkpt lat="46.29736" lon="-0.2025">
        <ele>117</ele>
        <time>2017-10-31T15:49:30Z</time>
      </trkpt>
      <trkpt lat="46.29734" lon="-0.20245">
        <ele>117</ele>
        <time>2017-10-31T15:49:30Z</time>
      </trkpt>
      <trkpt lat="46.29731" lon="-0.20238">
        <ele>117</ele>
        <time>2017-10-31T15:49:30Z</time>
      </trkpt>
      <trkpt lat="46.29728" lon="-0.20231">
        <ele>117</ele>
        <time>2017-10-31T15:49:46Z</time>
      </trkpt>
      <trkpt lat="46.29726" lon="-0.20226">
        <ele>117</ele>
        <time>2017-10-31T15:49:46Z</time>
      </trkpt>
      <trkpt lat="46.29723" lon="-0.20222">
        <ele>117</ele>
        <time>2017-10-31T15:49:46Z</time>
      </trkpt>
      <trkpt lat="46.29721" lon="-0.20218">
        <ele>117</ele>
        <time>2017-10-31T15:49:46Z</time>
      </trkpt>
      <trkpt lat="46.29719" lon="-0.20212">
        <ele>117</ele>
        <time>2017-10-31T15:50:02Z</time>
      </trkpt>
      <trkpt lat="46.29716" lon="-0.20208">
        <ele>124</ele>
        <time>2017-10-31T15:50:02Z</time>
      </trkpt>
      <trkpt lat="46.29713" lon="-0.20205">
        <ele>124</ele>
        <time>2017-10-31T15:50:02Z</time>
      </trkpt>
      <trkpt lat="46.29709" lon="-0.202">
        <ele>124</ele>
        <time>2017-10-31T15:50:02Z</time>
      </trkpt>
      <trkpt lat="46.29705" lon="-0.20191">
        <ele>115</ele>
        <time>2017-10-31T15:50:18Z</time>
      </trkpt>
      <trkpt lat="46.297" lon="-0.20184">
        <ele>115</ele>
        <time>2017-10-31T15:50:18Z</time>
      </trkpt>
      <trkpt lat="46.29696" lon="-0.20176">
        <ele>115</ele>
        <time>2017-10-31T15:50:18Z</time>
      </trkpt>
      <trkpt lat="46.29692" lon="-0.2017">
        <ele>115</ele>
        <time>2017-10-31T15:50:18Z</time>
      </trkpt>
      <trkpt lat="46.2969" lon="-0.20166">
        <ele>115</ele>
        <time>2017-10-31T15:50:34Z</time>
      </trkpt>
      <trkpt lat="46.29687" lon="-0.20161">
        <ele>115</ele>
        <time>2017-10-31T15:50:34Z</time>
      </trkpt>
      <trkpt lat="46.29684" lon="-0.20157">
        <ele>115</ele>
        <time>2017-10-31T15:50:34Z</time>
      </trkpt>
      <trkpt lat="46.29681" lon="-0.20153">
        <ele>115</ele>
        <time>2017-10-31T15:50:34Z</time>
      </trkpt>
      <trkpt lat="46.29678" lon="-0.20148">
        <ele>115</ele>
        <time>2017-10-31T15:50:50Z</time>
      </trkpt>
      <trkpt lat="46.29676" lon="-0.20143">
        <ele>115</ele>
        <time>2017-10-31T15:50:50Z</time>
      </trkpt>
      <trkpt lat="46.29672" lon="-0.20137">
        <ele>115</ele>
        <time>2017-10-31T15:50:50Z</time>
      </trkpt>
      <trkpt lat="46.2967" lon="-0.20132">
        <ele>115</ele>
        <time>2017-10-31T15:50:50Z</time>
      </trkpt>
      <trkpt lat="46.29668" lon="-0.20126">
        <ele>115</ele>
        <time>2017-10-31T15:51:06Z</time>
      </trkpt>
      <trkpt lat="46.29665" lon="-0.20122">
        <ele>119</ele>
        <time>2017-10-31T15:51:06Z</time>
      </trkpt>
      <trkpt lat="46.29663" lon="-0.20118">
        <ele>119</ele>
        <time>2017-10-31T15:51:06Z</time>
      </trkpt>
      <trkpt lat="46.29662" lon="-0.20114">
        <ele>119</ele>
        <time>2017-10-31T15:51:06Z</time>
      </trkpt>
      <trkpt lat="46.29661" lon="-0.20109">
        <ele>119</ele>
        <time>2017-10-31T15:51:22Z</time>
      </trkpt>
      <trkpt lat="46.2966" lon="-0.20102">
        <ele>119</ele>
        <time>2017-10-31T15:51:22Z</time>
      </trkpt>
      <trkpt lat="46.29659" lon="-0.20097">
        <ele>119</ele>
        <time>2017-10-31T15:51:22Z</time>
      </trkpt>
      <trkpt lat="46.29657" lon="-0.20092">
        <ele>119</ele>
        <time>2017-10-31T15:51:22Z</time>
      </trkpt>
      <trkpt lat="46.29656" lon="-0.20086">
        <ele>119</ele>
        <time>2017-10-31T15:51:38Z</time>
      </trkpt>
      <trkpt lat="46.29655" lon="-0.2008">
        <ele>119</ele>
        <time>2017-10-31T15:51:38Z</time>
      </trkpt>
      <trkpt lat="46.29654" lon="-0.20074">
        <ele>119</ele>
        <time>2017-10-31T15:51:38Z</time>
      </trkpt>
      <trkpt lat="46.29654" lon="-0.20068">
        <ele>119</ele>
        <time>2017-10-31T15:51:38Z</time>
      </trkpt>
      <trkpt lat="46.29654" lon="-0.20061">
        <ele>119</ele>
        <time>2017-10-31T15:51:54Z</time>
      </trkpt>
      <trkpt lat="46.29654" lon="-0.20055">
        <ele>119</ele>
        <time>2017-10-31T15:51:54Z</time>
      </trkpt>
      <trkpt lat="46.29653" lon="-0.20048">
        <ele>119</ele>
        <time>2017-10-31T15:51:54Z</time>
      </trkpt>
      <trkpt lat="46.29653" lon="-0.20041">
        <ele>120</ele>
        <time>2017-10-31T15:51:54Z</time>
      </trkpt>
      <trkpt lat="46.29652" lon="-0.20034">
        <ele>120</ele>
        <time>2017-10-31T15:52:10Z</time>
      </trkpt>
      <trkpt lat="46.29652" lon="-0.20027">
        <ele>120</ele>
        <time>2017-10-31T15:52:10Z</time>
      </trkpt>
      <trkpt lat="46.29652" lon="-0.20021">
        <ele>120</ele>
        <time>2017-10-31T15:52:10Z</time>
      </trkpt>
      <trkpt lat="46.29651" lon="-0.20014">
        <ele>120</ele>
        <time>2017-10-31T15:52:10Z</time>
      </trkpt>
      <trkpt lat="46.29651" lon="-0.20008">
        <ele>120</ele>
        <time>2017-10-31T15:52:26Z</time>
      </trkpt>
      <trkpt lat="46.2965" lon="-0.20002">
        <ele>120</ele>
        <time>2017-10-31T15:52:26Z</time>
      </trkpt>
      <trkpt lat="46.2965" lon="-0.19996">
        <ele>120</ele>
        <time>2017-10-31T15:52:26Z</time>
      </trkpt>
      <trkpt lat="46.29649" lon="-0.19992">
        <ele>120</ele>
        <time>2017-10-31T15:52:26Z</time>
      </trkpt>
      <trkpt lat="46.29647" lon="-0.19988">
        <ele>120</ele>
        <time>2017-10-31T15:52:42Z</time>
      </trkpt>
      <trkpt lat="46.29647" lon="-0.19984">
        <ele>120</ele>
        <time>2017-10-31T15:52:42Z</time>
      </trkpt>
      <trkpt lat="46.29648" lon="-0.1998">
        <ele>120</ele>
        <time>2017-10-31T15:52:42Z</time>
      </trkpt>
      <trkpt lat="46.29649" lon="-0.19974">
        <ele>120</ele>
        <time>2017-10-31T15:52:42Z</time>
      </trkpt>
      <trkpt lat="46.2965" lon="-0.19968">
        <ele>120</ele>
        <time>2017-10-31T15:52:58Z</time>
      </trkpt>
      <trkpt lat="46.29651" lon="-0.19961">
        <ele>120</ele>
        <time>2017-10-31T15:52:58Z</time>
      </trkpt>
      <trkpt lat="46.29651" lon="-0.19953">
        <ele>120</ele>
        <time>2017-10-31T15:52:58Z</time>
      </trkpt>
      <trkpt lat="46.29652" lon="-0.19947">
        <ele>120</ele>
        <time>2017-10-31T15:52:58Z</time>
      </trkpt>
      <trkpt lat="46.29653" lon="-0.19941">
        <ele>120</ele>
        <time>2017-10-31T15:53:14Z</time>
      </trkpt>
      <trkpt lat="46.29653" lon="-0.19933">
        <ele>120</ele>
        <time>2017-10-31T15:53:14Z</time>
      </trkpt>
      <trkpt lat="46.29653" lon="-0.19925">
        <ele>120</ele>
        <time>2017-10-31T15:53:14Z</time>
      </trkpt>
      <trkpt lat="46.29653" lon="-0.19918">
        <ele>120</ele>
        <time>2017-10-31T15:53:14Z</time>
      </trkpt>
      <trkpt lat="46.29654" lon="-0.19911">
        <ele>120</ele>
        <time>2017-10-31T15:53:30Z</time>
      </trkpt>
      <trkpt lat="46.29655" lon="-0.19905">
        <ele>120</ele>
        <time>2017-10-31T15:53:30Z</time>
      </trkpt>
      <trkpt lat="46.29656" lon="-0.199">
        <ele>120</ele>
        <time>2017-10-31T15:53:30Z</time>
      </trkpt>
      <trkpt lat="46.29658" lon="-0.19895">
        <ele>120</ele>
        <time>2017-10-31T15:53:30Z</time>
      </trkpt>
      <trkpt lat="46.29658" lon="-0.1989">
        <ele>120</ele>
        <time>2017-10-31T15:53:46Z</time>
      </trkpt>
      <trkpt lat="46.2966" lon="-0.19885">
        <ele>120</ele>
        <time>2017-10-31T15:53:46Z</time>
      </trkpt>
      <trkpt lat="46.29661" lon="-0.19877">
        <ele>120</ele>
        <time>2017-10-31T15:53:46Z</time>
      </trkpt>
      <trkpt lat="46.29663" lon="-0.19868">
        <ele>116</ele>
        <time>2017-10-31T15:53:46Z</time>
      </trkpt>
      <trkpt lat="46.29665" lon="-0.19861">
        <ele>116</ele>
        <time>2017-10-31T15:54:02Z</time>
      </trkpt>
      <trkpt lat="46.29667" lon="-0.19855">
        <ele>116</ele>
        <time>2017-10-31T15:54:02Z</time>
      </trkpt>
      <trkpt lat="46.29669" lon="-0.19848">
        <ele>116</ele>
        <time>2017-10-31T15:54:02Z</time>
      </trkpt>
      <trkpt lat="46.29672" lon="-0.19844">
        <ele>116</ele>
        <time>2017-10-31T15:54:02Z</time>
      </trkpt>
      <trkpt lat="46.29675" lon="-0.19838">
        <ele>116</ele>
        <time>2017-10-31T15:54:18Z</time>
      </trkpt>
      <trkpt lat="46.29677" lon="-0.19835">
        <ele>116</ele>
        <time>2017-10-31T15:54:18Z</time>
      </trkpt>
      <trkpt lat="46.29678" lon="-0.19832">
        <ele>116</ele>
        <time>2017-10-31T15:54:18Z</time>
      </trkpt>
      <trkpt lat="46.2968" lon="-0.19827">
        <ele>116</ele>
        <time>2017-10-31T15:54:18Z</time>
      </trkpt>
      <trkpt lat="46.29682" lon="-0.19822">
        <ele>116</ele>
        <time>2017-10-31T15:54:34Z</time>
      </trkpt>
      <trkpt lat="46.29687" lon="-0.19817">
        <ele>116</ele>
        <time>2017-10-31T15:54:34Z</time>
      </trkpt>
      <trkpt lat="46.29691" lon="-0.19809">
        <ele>116</ele>
        <time>2017-10-31T15:54:34Z</time>
      </trkpt>
      <trkpt lat="46.29695" lon="-0.19802">
        <ele>116</ele>
        <time>2017-10-31T15:54:34Z</time>
      </trkpt>
      <trkpt lat="46.29697" lon="-0.19794">
        <ele>116</ele>
        <time>2017-10-31T15:54:50Z</time>
      </trkpt>
      <trkpt lat="46.297" lon="-0.19788">
        <ele>112</ele>
        <time>2017-10-31T15:54:50Z</time>
      </trkpt>
      <trkpt lat="46.29702" lon="-0.19783">
        <ele>112</ele>
        <time>2017-10-31T15:54:50Z</time>
      </trkpt>
      <trkpt lat="46.29706" lon="-0.19778">
        <ele>112</ele>
        <time>2017-10-31T15:54:50Z</time>
      </trkpt>
      <trkpt lat="46.29709" lon="-0.19773">
        <ele>119</ele>
        <time>2017-10-31T15:55:06Z</time>
      </trkpt>
      <trkpt lat="46.29712" lon="-0.19767">
        <ele>119</ele>
        <time>2017-10-31T15:55:06Z</time>
      </trkpt>
      <trkpt lat="46.29715" lon="-0.19762">
        <ele>119</ele>
        <time>2017-10-31T15:55:06Z</time>
      </trkpt>
      <trkpt lat="46.29718" lon="-0.19756">
        <ele>119</ele>
        <time>2017-10-31T15:55:06Z</time>
      </trkpt>
      <trkpt lat="46.2972" lon="-0.19751">
        <ele>119</ele>
        <time>2017-10-31T15:55:22Z</time>
      </trkpt>
      <trkpt lat="46.29723" lon="-0.19745">
        <ele>119</ele>
        <time>2017-10-31T15:55:22Z</time>
      </trkpt>
      <trkpt lat="46.29727" lon="-0.19739">
        <ele>119</ele>
        <time>2017-10-31T15:55:22Z</time>
      </trkpt>
      <trkpt lat="46.2973" lon="-0.19733">
        <ele>119</ele>
        <time>2017-10-31T15:55:22Z</time>
      </trkpt>
      <trkpt lat="46.29733" lon="-0.19727">
        <ele>119</ele>
        <time>2017-10-31T15:55:38Z</time>
      </trkpt>
      <trkpt lat="46.29736" lon="-0.1972">
        <ele>119</ele>
        <time>2017-10-31T15:55:38Z</time>
      </trkpt>
      <trkpt lat="46.2974" lon="-0.19715">
        <ele>119</ele>
        <time>2017-10-31T15:55:38Z</time>
      </trkpt>
      <trkpt lat="46.29742" lon="-0.19711">
        <ele>119</ele>
        <time>2017-10-31T15:55:38Z</time>
      </trkpt>
      <trkpt lat="46.29743" lon="-0.19708">
        <ele>113</ele>
        <time>2017-10-31T15:55:54Z</time>
      </trkpt>
      <trkpt lat="46.29745" lon="-0.19702">
        <ele>113</ele>
        <time>2017-10-31T15:55:54Z</time>
      </trkpt>
      <trkpt lat="46.29748" lon="-0.19698">
        <ele>113</ele>
        <time>2017-10-31T15:55:54Z</time>
      </trkpt>
      <trkpt lat="46.29751" lon="-0.19693">
        <ele>113</ele>
        <time>2017-10-31T15:55:54Z</time>
      </trkpt>
      <trkpt lat="46.29754" lon="-0.19688">
        <ele>113</ele>
        <time>2017-10-31T15:56:10Z</time>
      </trkpt>
      <trkpt lat="46.29757" lon="-0.19683">
        <ele>113</ele>
        <time>2017-10-31T15:56:10Z</time>
      </trkpt>
      <trkpt lat="46.2976" lon="-0.19677">
        <ele>113</ele>
        <time>2017-10-31T15:56:10Z</time>
      </trkpt>
      <trkpt lat="46.29762" lon="-0.19672">
        <ele>113</ele>
        <time>2017-10-31T15:56:10Z</time>
      </trkpt>
      <trkpt lat="46.29763" lon="-0.19666">
        <ele>113</ele>
        <time>2017-10-31T15:56:26Z</time>
      </trkpt>
      <trkpt lat="46.29762" lon="-0.19661">
        <ele>113</ele>
        <time>2017-10-31T15:56:26Z</time>
      </trkpt>
      <trkpt lat="46.2976" lon="-0.19655">
        <ele>113</ele>
        <time>2017-10-31T15:56:26Z</time>
      </trkpt>
      <trkpt lat="46.29757" lon="-0.19649">
        <ele>113</ele>
        <time>2017-10-31T15:56:26Z</time>
      </trkpt>
      <trkpt lat="46.29753" lon="-0.19644">
        <ele>113</ele>
        <time>2017-10-31T15:56:42Z</time>
      </trkpt>
      <trkpt lat="46.2975" lon="-0.1964">
        <ele>113</ele>
        <time>2017-10-31T15:56:42Z</time>
      </trkpt>
      <trkpt lat="46.29748" lon="-0.19637">
        <ele>113</ele>
        <time>2017-10-31T15:56:42Z</time>
      </trkpt>
      <trkpt lat="46.29745" lon="-0.19633">
        <ele>113</ele>
        <time>2017-10-31T15:56:42Z</time>
      </trkpt>
      <trkpt lat="46.29741" lon="-0.19628">
        <ele>113</ele>
        <time>2017-10-31T15:56:58Z</time>
      </trkpt>
      <trkpt lat="46.29736" lon="-0.19625">
        <ele>112</ele>
        <time>2017-10-31T15:56:58Z</time>
      </trkpt>
      <trkpt lat="46.29732" lon="-0.19622">
        <ele>112</ele>
        <time>2017-10-31T15:56:58Z</time>
      </trkpt>
      <trkpt lat="46.29729" lon="-0.19619">
        <ele>112</ele>
        <time>2017-10-31T15:56:58Z</time>
      </trkpt>
      <trkpt lat="46.29725" lon="-0.19616">
        <ele>112</ele>
        <time>2017-10-31T15:57:14Z</time>
      </trkpt>
      <trkpt lat="46.29721" lon="-0.19614">
        <ele>112</ele>
        <time>2017-10-31T15:57:14Z</time>
      </trkpt>
      <trkpt lat="46.29716" lon="-0.1961">
        <ele>112</ele>
        <time>2017-10-31T15:57:14Z</time>
      </trkpt>
      <trkpt lat="46.29712" lon="-0.19606">
        <ele>112</ele>
        <time>2017-10-31T15:57:14Z</time>
      </trkpt>
      <trkpt lat="46.29707" lon="-0.19604">
        <ele>113</ele>
        <time>2017-10-31T15:57:30Z</time>
      </trkpt>
      <trkpt lat="46.29704" lon="-0.19601">
        <ele>113</ele>
        <time>2017-10-31T15:57:30Z</time>
      </trkpt>
      <trkpt lat="46.297" lon="-0.19601">
        <ele>113</ele>
        <time>2017-10-31T15:57:30Z</time>
      </trkpt>
      <trkpt lat="46.29696" lon="-0.19601">
        <ele>113</ele>
        <time>2017-10-31T15:57:30Z</time>
      </trkpt>
      <trkpt lat="46.29692" lon="-0.19602">
        <ele>113</ele>
        <time>2017-10-31T15:57:46Z</time>
      </trkpt>
      <trkpt lat="46.29689" lon="-0.19603">
        <ele>113</ele>
        <time>2017-10-31T15:57:46Z</time>
      </trkpt>
      <trkpt lat="46.29686" lon="-0.19605">
        <ele>113</ele>
        <time>2017-10-31T15:57:46Z</time>
      </trkpt>
      <trkpt lat="46.29681" lon="-0.19608">
        <ele>113</ele>
        <time>2017-10-31T15:57:46Z</time>
      </trkpt>
      <trkpt lat="46.29676" lon="-0.19611">
        <ele>113</ele>
        <time>2017-10-31T15:58:02Z</time>
      </trkpt>
      <trkpt lat="46.29671" lon="-0.19614">
        <ele>113</ele>
        <time>2017-10-31T15:58:02Z</time>
      </trkpt>
      <trkpt lat="46.29667" lon="-0.19617">
        <ele>113</ele>
        <time>2017-10-31T15:58:02Z</time>
      </trkpt>
      <trkpt lat="46.29663" lon="-0.19621">
        <ele>113</ele>
        <time>2017-10-31T15:58:02Z</time>
      </trkpt>
      <trkpt lat="46.2966" lon="-0.19624">
        <ele>113</ele>
        <time>2017-10-31T15:58:18Z</time>
      </trkpt>
      <trkpt lat="46.29656" lon="-0.19625">
        <ele>113</ele>
        <time>2017-10-31T15:58:18Z</time>
      </trkpt>
      <trkpt lat="46.29654" lon="-0.19628">
        <ele>112</ele>
        <time>2017-10-31T15:58:18Z</time>
      </trkpt>
      <trkpt lat="46.2965" lon="-0.19632">
        <ele>112</ele>
        <time>2017-10-31T15:58:18Z</time>
      </trkpt>
      <trkpt lat="46.29646" lon="-0.19635">
        <ele>112</ele>
        <time>2017-10-31T15:58:34Z</time>
      </trkpt>
      <trkpt lat="46.29642" lon="-0.19638">
        <ele>112</ele>
        <time>2017-10-31T15:58:34Z</time>
      </trkpt>
      <trkpt lat="46.29638" lon="-0.19642">
        <ele>112</ele>
        <time>2017-10-31T15:58:34Z</time>
      </trkpt>
      <trkpt lat="46.29635" lon="-0.19644">
        <ele>112</ele>
        <time>2017-10-31T15:58:34Z</time>
      </trkpt>
      <trkpt lat="46.29632" lon="-0.19646">
        <ele>112</ele>
        <time>2017-10-31T15:58:50Z</time>
      </trkpt>
      <trkpt lat="46.29629" lon="-0.1965">
        <ele>112</ele>
        <time>2017-10-31T15:58:50Z</time>
      </trkpt>
      <trkpt lat="46.29626" lon="-0.19654">
        <ele>112</ele>
        <time>2017-10-31T15:58:50Z</time>
      </trkpt>
      <trkpt lat="46.29623" lon="-0.19657">
        <ele>118</ele>
        <time>2017-10-31T15:58:50Z</time>
      </trkpt>
      <trkpt lat="46.2962" lon="-0.19662">
        <ele>118</ele>
        <time>2017-10-31T15:59:06Z</time>
      </trkpt>
      <trkpt lat="46.29618" lon="-0.19666">
        <ele>118</ele>
        <time>2017-10-31T15:59:06Z</time>
      </trkpt>
      <trkpt lat="46.29614" lon="-0.1967">
        <ele>118</ele>
        <time>2017-10-31T15:59:06Z</time>
      </trkpt>
      <trkpt lat="46.29611" lon="-0.19674">
        <ele>118</ele>
        <time>2017-10-31T15:59:06Z</time>
      </trkpt>
      <trkpt lat="46.29608" lon="-0.19678">
        <ele>118</ele>
        <time>2017-10-31T15:59:22Z</time>
      </trkpt>
      <trkpt lat="46.29605" lon="-0.19683">
        <ele>118</ele>
        <time>2017-10-31T15:59:22Z</time>
      </trkpt>
      <trkpt lat="46.29601" lon="-0.19687">
        <ele>118</ele>
        <time>2017-10-31T15:59:22Z</time>
      </trkpt>
      <trkpt lat="46.29598" lon="-0.19692">
        <ele>118</ele>
        <time>2017-10-31T15:59:22Z</time>
      </trkpt>
      <trkpt lat="46.29594" lon="-0.19697">
        <ele>118</ele>
        <time>2017-10-31T15:59:38Z</time>
      </trkpt>
      <trkpt lat="46.29591" lon="-0.19701">
        <ele>118</ele>
        <time>2017-10-31T15:59:38Z</time>
      </trkpt>
      <trkpt lat="46.29589" lon="-0.19705">
        <ele>118</ele>
        <time>2017-10-31T15:59:38Z</time>
      </trkpt>
      <trkpt lat="46.29586" lon="-0.1971">
        <ele>114</ele>
        <time>2017-10-31T15:59:38Z</time>
      </trkpt>
      <trkpt lat="46.29584" lon="-0.19715">
        <ele>114</ele>
        <time>2017-10-31T15:59:54Z</time>
      </trkpt>
      <trkpt lat="46.29582" lon="-0.1972">
        <ele>114</ele>
        <time>2017-10-31T15:59:54Z</time>
      </trkpt>
      <trkpt lat="46.29581" lon="-0.19724">
        <ele>114</ele>
        <time>2017-10-31T15:59:54Z</time>
      </trkpt>
      <trkpt lat="46.29578" lon="-0.19729">
        <ele>114</ele>
        <time>2017-10-31T15:59:54Z</time>
      </trkpt>
      <trkpt lat="46.29577" lon="-0.19733">
        <ele>114</ele>
        <time>2017-10-31T16:00:14Z</time>
      </trkpt>
      <trkpt lat="46.29576" lon="-0.19736">
        <ele>114</ele>
        <time>2017-10-31T16:00:14Z</time>
      </trkpt>
      <trkpt lat="46.29574" lon="-0.19741">
        <ele>114</ele>
        <time>2017-10-31T16:00:14Z</time>
      </trkpt>
      <trkpt lat="46.29573" lon="-0.19744">
        <ele>114</ele>
        <time>2017-10-31T16:00:14Z</time>
      </trkpt>
      <trkpt lat="46.29571" lon="-0.19748">
        <ele>114</ele>
        <time>2017-10-31T16:00:14Z</time>
      </trkpt>
      <trkpt lat="46.29568" lon="-0.19757">
        <ele>114</ele>
        <time>2017-10-31T16:00:30Z</time>
      </trkpt>
      <trkpt lat="46.29566" lon="-0.19765">
        <ele>114</ele>
        <time>2017-10-31T16:00:30Z</time>
      </trkpt>
      <trkpt lat="46.29563" lon="-0.19772">
        <ele>114</ele>
        <time>2017-10-31T16:00:30Z</time>
      </trkpt>
      <trkpt lat="46.29561" lon="-0.19778">
        <ele>114</ele>
        <time>2017-10-31T16:00:30Z</time>
      </trkpt>
      <trkpt lat="46.2956" lon="-0.19784">
        <ele>114</ele>
        <time>2017-10-31T16:00:46Z</time>
      </trkpt>
      <trkpt lat="46.29558" lon="-0.1979">
        <ele>114</ele>
        <time>2017-10-31T16:00:46Z</time>
      </trkpt>
      <trkpt lat="46.29556" lon="-0.19795">
        <ele>113</ele>
        <time>2017-10-31T16:00:46Z</time>
      </trkpt>
      <trkpt lat="46.29554" lon="-0.19803">
        <ele>113</ele>
        <time>2017-10-31T16:00:46Z</time>
      </trkpt>
      <trkpt lat="46.29552" lon="-0.19809">
        <ele>113</ele>
        <time>2017-10-31T16:01:02Z</time>
      </trkpt>
      <trkpt lat="46.29551" lon="-0.19814">
        <ele>113</ele>
        <time>2017-10-31T16:01:02Z</time>
      </trkpt>
      <trkpt lat="46.29549" lon="-0.19819">
        <ele>113</ele>
        <time>2017-10-31T16:01:02Z</time>
      </trkpt>
      <trkpt lat="46.29548" lon="-0.19823">
        <ele>113</ele>
        <time>2017-10-31T16:01:02Z</time>
      </trkpt>
      <trkpt lat="46.29545" lon="-0.19827">
        <ele>113</ele>
        <time>2017-10-31T16:01:18Z</time>
      </trkpt>
      <trkpt lat="46.29543" lon="-0.19829">
        <ele>113</ele>
        <time>2017-10-31T16:01:18Z</time>
      </trkpt>
      <trkpt lat="46.29542" lon="-0.19835">
        <ele>113</ele>
        <time>2017-10-31T16:01:18Z</time>
      </trkpt>
      <trkpt lat="46.29541" lon="-0.19842">
        <ele>128</ele>
        <time>2017-10-31T16:01:18Z</time>
      </trkpt>
      <trkpt lat="46.29539" lon="-0.19848">
        <ele>128</ele>
        <time>2017-10-31T16:01:34Z</time>
      </trkpt>
      <trkpt lat="46.29536" lon="-0.19852">
        <ele>128</ele>
        <time>2017-10-31T16:01:34Z</time>
      </trkpt>
      <trkpt lat="46.29533" lon="-0.19862">
        <ele>128</ele>
        <time>2017-10-31T16:01:34Z</time>
      </trkpt>
      <trkpt lat="46.29533" lon="-0.19866">
        <ele>128</ele>
        <time>2017-10-31T16:01:34Z</time>
      </trkpt>
      <trkpt lat="46.29533" lon="-0.19869">
        <ele>128</ele>
        <time>2017-10-31T16:01:54Z</time>
      </trkpt>
      <trkpt lat="46.29531" lon="-0.19873">
        <ele>128</ele>
        <time>2017-10-31T16:01:54Z</time>
      </trkpt>
      <trkpt lat="46.2953" lon="-0.19879">
        <ele>124</ele>
        <time>2017-10-31T16:01:54Z</time>
      </trkpt>
      <trkpt lat="46.29529" lon="-0.19885">
        <ele>124</ele>
        <time>2017-10-31T16:01:54Z</time>
      </trkpt>
      <trkpt lat="46.29527" lon="-0.1989">
        <ele>124</ele>
        <time>2017-10-31T16:02:10Z</time>
      </trkpt>
      <trkpt lat="46.29525" lon="-0.19898">
        <ele>124</ele>
        <time>2017-10-31T16:02:10Z</time>
      </trkpt>
      <trkpt lat="46.29522" lon="-0.19904">
        <ele>124</ele>
        <time>2017-10-31T16:02:10Z</time>
      </trkpt>
      <trkpt lat="46.2952" lon="-0.19913">
        <ele>124</ele>
        <time>2017-10-31T16:02:10Z</time>
      </trkpt>
      <trkpt lat="46.29519" lon="-0.19919">
        <ele>124</ele>
        <time>2017-10-31T16:02:26Z</time>
      </trkpt>
      <trkpt lat="46.29519" lon="-0.19926">
        <ele>124</ele>
        <time>2017-10-31T16:02:26Z</time>
      </trkpt>
      <trkpt lat="46.29518" lon="-0.19933">
        <ele>124</ele>
        <time>2017-10-31T16:02:26Z</time>
      </trkpt>
      <trkpt lat="46.29519" lon="-0.19939">
        <ele>124</ele>
        <time>2017-10-31T16:02:26Z</time>
      </trkpt>
      <trkpt lat="46.29518" lon="-0.19945">
        <ele>124</ele>
        <time>2017-10-31T16:02:42Z</time>
      </trkpt>
      <trkpt lat="46.29517" lon="-0.1995">
        <ele>124</ele>
        <time>2017-10-31T16:02:42Z</time>
      </trkpt>
      <trkpt lat="46.29516" lon="-0.19956">
        <ele>124</ele>
        <time>2017-10-31T16:02:42Z</time>
      </trkpt>
      <trkpt lat="46.29515" lon="-0.19965">
        <ele>119</ele>
        <time>2017-10-31T16:02:42Z</time>
      </trkpt>
      <trkpt lat="46.29515" lon="-0.19979">
        <ele>119</ele>
        <time>2017-10-31T16:02:58Z</time>
      </trkpt>
      <trkpt lat="46.29513" lon="-0.19985">
        <ele>119</ele>
        <time>2017-10-31T16:02:58Z</time>
      </trkpt>
      <trkpt lat="46.29514" lon="-0.19993">
        <ele>119</ele>
        <time>2017-10-31T16:02:58Z</time>
      </trkpt>
      <trkpt lat="46.29516" lon="-0.20001">
        <ele>119</ele>
        <time>2017-10-31T16:02:58Z</time>
      </trkpt>
      <trkpt lat="46.29518" lon="-0.20011">
        <ele>119</ele>
        <time>2017-10-31T16:03:14Z</time>
      </trkpt>
      <trkpt lat="46.29518" lon="-0.20018">
        <ele>119</ele>
        <time>2017-10-31T16:03:14Z</time>
      </trkpt>
      <trkpt lat="46.29518" lon="-0.20027">
        <ele>119</ele>
        <time>2017-10-31T16:03:14Z</time>
      </trkpt>
      <trkpt lat="46.29519" lon="-0.20035">
        <ele>119</ele>
        <time>2017-10-31T16:03:14Z</time>
      </trkpt>
      <trkpt lat="46.2952" lon="-0.20042">
        <ele>120</ele>
        <time>2017-10-31T16:03:30Z</time>
      </trkpt>
      <trkpt lat="46.29521" lon="-0.20049">
        <ele>120</ele>
        <time>2017-10-31T16:03:30Z</time>
      </trkpt>
      <trkpt lat="46.29522" lon="-0.20058">
        <ele>120</ele>
        <time>2017-10-31T16:03:30Z</time>
      </trkpt>
      <trkpt lat="46.29522" lon="-0.20065">
        <ele>120</ele>
        <time>2017-10-31T16:03:30Z</time>
      </trkpt>
      <trkpt lat="46.29524" lon="-0.20071">
        <ele>120</ele>
        <time>2017-10-31T16:03:46Z</time>
      </trkpt>
      <trkpt lat="46.29525" lon="-0.20078">
        <ele>120</ele>
        <time>2017-10-31T16:03:46Z</time>
      </trkpt>
      <trkpt lat="46.29527" lon="-0.20084">
        <ele>120</ele>
        <time>2017-10-31T16:03:46Z</time>
      </trkpt>
      <trkpt lat="46.29529" lon="-0.20089">
        <ele>120</ele>
        <time>2017-10-31T16:03:46Z</time>
      </trkpt>
      <trkpt lat="46.29529" lon="-0.20095">
        <ele>120</ele>
        <time>2017-10-31T16:04:02Z</time>
      </trkpt>
      <trkpt lat="46.29531" lon="-0.20102">
        <ele>120</ele>
        <time>2017-10-31T16:04:02Z</time>
      </trkpt>
      <trkpt lat="46.29532" lon="-0.20108">
        <ele>120</ele>
        <time>2017-10-31T16:04:02Z</time>
      </trkpt>
      <trkpt lat="46.29533" lon="-0.20117">
        <ele>120</ele>
        <time>2017-10-31T16:04:02Z</time>
      </trkpt>
      <trkpt lat="46.29535" lon="-0.20124">
        <ele>120</ele>
        <time>2017-10-31T16:04:18Z</time>
      </trkpt>
      <trkpt lat="46.29536" lon="-0.20132">
        <ele>125</ele>
        <time>2017-10-31T16:04:18Z</time>
      </trkpt>
      <trkpt lat="46.29538" lon="-0.20137">
        <ele>125</ele>
        <time>2017-10-31T16:04:18Z</time>
      </trkpt>
      <trkpt lat="46.29539" lon="-0.20143">
        <ele>125</ele>
        <time>2017-10-31T16:04:18Z</time>
      </trkpt>
      <trkpt lat="46.29541" lon="-0.20149">
        <ele>125</ele>
        <time>2017-10-31T16:04:34Z</time>
      </trkpt>
      <trkpt lat="46.29543" lon="-0.20155">
        <ele>112</ele>
        <time>2017-10-31T16:04:34Z</time>
      </trkpt>
      <trkpt lat="46.29545" lon="-0.20162">
        <ele>112</ele>
        <time>2017-10-31T16:04:34Z</time>
      </trkpt>
      <trkpt lat="46.29548" lon="-0.20168">
        <ele>112</ele>
        <time>2017-10-31T16:04:34Z</time>
      </trkpt>
      <trkpt lat="46.2955" lon="-0.20174">
        <ele>112</ele>
        <time>2017-10-31T16:04:50Z</time>
      </trkpt>
      <trkpt lat="46.29552" lon="-0.2018">
        <ele>112</ele>
        <time>2017-10-31T16:04:50Z</time>
      </trkpt>
      <trkpt lat="46.29553" lon="-0.20185">
        <ele>112</ele>
        <time>2017-10-31T16:04:50Z</time>
      </trkpt>
      <trkpt lat="46.29554" lon="-0.2019">
        <ele>112</ele>
        <time>2017-10-31T16:04:50Z</time>
      </trkpt>
      <trkpt lat="46.29558" lon="-0.20197">
        <ele>112</ele>
        <time>2017-10-31T16:05:06Z</time>
      </trkpt>
      <trkpt lat="46.29561" lon="-0.20203">
        <ele>112</ele>
        <time>2017-10-31T16:05:06Z</time>
      </trkpt>
      <trkpt lat="46.29564" lon="-0.2021">
        <ele>117</ele>
        <time>2017-10-31T16:05:06Z</time>
      </trkpt>
      <trkpt lat="46.29566" lon="-0.20213">
        <ele>117</ele>
        <time>2017-10-31T16:05:06Z</time>
      </trkpt>
      <trkpt lat="46.29569" lon="-0.20218">
        <ele>117</ele>
        <time>2017-10-31T16:05:22Z</time>
      </trkpt>
      <trkpt lat="46.29571" lon="-0.20224">
        <ele>117</ele>
        <time>2017-10-31T16:05:22Z</time>
      </trkpt>
      <trkpt lat="46.29575" lon="-0.20232">
        <ele>117</ele>
        <time>2017-10-31T16:05:22Z</time>
      </trkpt>
      <trkpt lat="46.29578" lon="-0.2024">
        <ele>117</ele>
        <time>2017-10-31T16:05:22Z</time>
      </trkpt>
      <trkpt lat="46.29582" lon="-0.20247">
        <ele>117</ele>
        <time>2017-10-31T16:05:38Z</time>
      </trkpt>
      <trkpt lat="46.29585" lon="-0.20253">
        <ele>117</ele>
        <time>2017-10-31T16:05:38Z</time>
      </trkpt>
      <trkpt lat="46.29587" lon="-0.20259">
        <ele>117</ele>
        <time>2017-10-31T16:05:38Z</time>
      </trkpt>
      <trkpt lat="46.29591" lon="-0.20264">
        <ele>117</ele>
        <time>2017-10-31T16:05:38Z</time>
      </trkpt>
      <trkpt lat="46.29595" lon="-0.20271">
        <ele>117</ele>
        <time>2017-10-31T16:05:54Z</time>
      </trkpt>
      <trkpt lat="46.29598" lon="-0.20275">
        <ele>117</ele>
        <time>2017-10-31T16:05:54Z</time>
      </trkpt>
      <trkpt lat="46.29601" lon="-0.2028">
        <ele>117</ele>
        <time>2017-10-31T16:05:54Z</time>
      </trkpt>
      <trkpt lat="46.29603" lon="-0.20284">
        <ele>117</ele>
        <time>2017-10-31T16:05:54Z</time>
      </trkpt>
      <trkpt lat="46.29605" lon="-0.2029">
        <ele>117</ele>
        <time>2017-10-31T16:06:10Z</time>
      </trkpt>
      <trkpt lat="46.29606" lon="-0.20295">
        <ele>122</ele>
        <time>2017-10-31T16:06:10Z</time>
      </trkpt>
      <trkpt lat="46.29608" lon="-0.20299">
        <ele>122</ele>
        <time>2017-10-31T16:06:10Z</time>
      </trkpt>
      <trkpt lat="46.29613" lon="-0.20305">
        <ele>122</ele>
        <time>2017-10-31T16:06:10Z</time>
      </trkpt>
      <trkpt lat="46.29615" lon="-0.2031">
        <ele>122</ele>
        <time>2017-10-31T16:06:26Z</time>
      </trkpt>
      <trkpt lat="46.29617" lon="-0.20319">
        <ele>122</ele>
        <time>2017-10-31T16:06:26Z</time>
      </trkpt>
      <trkpt lat="46.29619" lon="-0.20327">
        <ele>122</ele>
        <time>2017-10-31T16:06:26Z</time>
      </trkpt>
      <trkpt lat="46.29622" lon="-0.20333">
        <ele>122</ele>
        <time>2017-10-31T16:06:26Z</time>
      </trkpt>
      <trkpt lat="46.29623" lon="-0.20338">
        <ele>122</ele>
        <time>2017-10-31T16:06:42Z</time>
      </trkpt>
      <trkpt lat="46.29625" lon="-0.20344">
        <ele>122</ele>
        <time>2017-10-31T16:06:42Z</time>
      </trkpt>
      <trkpt lat="46.29626" lon="-0.20348">
        <ele>112</ele>
        <time>2017-10-31T16:06:42Z</time>
      </trkpt>
      <trkpt lat="46.29627" lon="-0.20351">
        <ele>112</ele>
        <time>2017-10-31T16:06:42Z</time>
      </trkpt>
      <trkpt lat="46.29628" lon="-0.20352">
        <ele>112</ele>
        <time>2017-10-31T16:07:02Z</time>
      </trkpt>
      <trkpt lat="46.29632" lon="-0.2035">
        <ele>112</ele>
        <time>2017-10-31T16:07:02Z</time>
      </trkpt>
      <trkpt lat="46.29634" lon="-0.20347">
        <ele>112</ele>
        <time>2017-10-31T16:07:02Z</time>
      </trkpt>
      <trkpt lat="46.29636" lon="-0.20341">
        <ele>112</ele>
        <time>2017-10-31T16:07:02Z</time>
      </trkpt>
      <trkpt lat="46.2964" lon="-0.20342">
        <ele>112</ele>
        <time>2017-10-31T16:08:22Z</time>
      </trkpt>
      <trkpt lat="46.29639" lon="-0.20344">
        <ele>112</ele>
        <time>2017-10-31T16:08:22Z</time>
      </trkpt>
      <trkpt lat="46.29638" lon="-0.20345">
        <ele>112</ele>
        <time>2017-10-31T16:08:22Z</time>
      </trkpt>
      <trkpt lat="46.29638" lon="-0.20348">
        <ele>112</ele>
        <time>2017-10-31T16:08:22Z</time>
      </trkpt>
      <trkpt lat="46.29638" lon="-0.20351">
        <ele>112</ele>
        <time>2017-10-31T16:08:22Z</time>
      </trkpt>
      <trkpt lat="46.29638" lon="-0.20356">
        <ele>112</ele>
        <time>2017-10-31T16:08:38Z</time>
      </trkpt>
      <trkpt lat="46.29639" lon="-0.2036">
        <ele>112</ele>
        <time>2017-10-31T16:08:38Z</time>
      </trkpt>
      <trkpt lat="46.29639" lon="-0.20365">
        <ele>112</ele>
        <time>2017-10-31T16:08:38Z</time>
      </trkpt>
      <trkpt lat="46.29639" lon="-0.20371">
        <ele>112</ele>
        <time>2017-10-31T16:08:38Z</time>
      </trkpt>
      <trkpt lat="46.2964" lon="-0.20376">
        <ele>120</ele>
        <time>2017-10-31T16:08:54Z</time>
      </trkpt>
      <trkpt lat="46.29641" lon="-0.20382">
        <ele>120</ele>
        <time>2017-10-31T16:08:54Z</time>
      </trkpt>
      <trkpt lat="46.29643" lon="-0.20386">
        <ele>120</ele>
        <time>2017-10-31T16:08:54Z</time>
      </trkpt>
      <trkpt lat="46.29644" lon="-0.20391">
        <ele>120</ele>
        <time>2017-10-31T16:08:54Z</time>
      </trkpt>
      <trkpt lat="46.29646" lon="-0.20395">
        <ele>120</ele>
        <time>2017-10-31T16:09:10Z</time>
      </trkpt>
      <trkpt lat="46.29649" lon="-0.20402">
        <ele>120</ele>
        <time>2017-10-31T16:09:10Z</time>
      </trkpt>
      <trkpt lat="46.29654" lon="-0.20408">
        <ele>120</ele>
        <time>2017-10-31T16:09:10Z</time>
      </trkpt>
      <trkpt lat="46.29659" lon="-0.20414">
        <ele>120</ele>
        <time>2017-10-31T16:09:10Z</time>
      </trkpt>
      <trkpt lat="46.29662" lon="-0.20418">
        <ele>120</ele>
        <time>2017-10-31T16:09:26Z</time>
      </trkpt>
      <trkpt lat="46.29665" lon="-0.20423">
        <ele>120</ele>
        <time>2017-10-31T16:09:26Z</time>
      </trkpt>
      <trkpt lat="46.29669" lon="-0.20426">
        <ele>120</ele>
        <time>2017-10-31T16:09:26Z</time>
      </trkpt>
      <trkpt lat="46.29671" lon="-0.2043">
        <ele>120</ele>
        <time>2017-10-31T16:09:26Z</time>
      </trkpt>
      <trkpt lat="46.29674" lon="-0.20434">
        <ele>120</ele>
        <time>2017-10-31T16:09:42Z</time>
      </trkpt>
      <trkpt lat="46.29678" lon="-0.20437">
        <ele>120</ele>
        <time>2017-10-31T16:09:42Z</time>
      </trkpt>
      <trkpt lat="46.29681" lon="-0.2044">
        <ele>120</ele>
        <time>2017-10-31T16:09:42Z</time>
      </trkpt>
      <trkpt lat="46.29685" lon="-0.20444">
        <ele>120</ele>
        <time>2017-10-31T16:09:42Z</time>
      </trkpt>
      <trkpt lat="46.29689" lon="-0.20447">
        <ele>120</ele>
        <time>2017-10-31T16:09:58Z</time>
      </trkpt>
      <trkpt lat="46.29693" lon="-0.20452">
        <ele>120</ele>
        <time>2017-10-31T16:09:58Z</time>
      </trkpt>
      <trkpt lat="46.29696" lon="-0.20457">
        <ele>120</ele>
        <time>2017-10-31T16:09:58Z</time>
      </trkpt>
      <trkpt lat="46.297" lon="-0.20461">
        <ele>131</ele>
        <time>2017-10-31T16:09:58Z</time>
      </trkpt>
      <trkpt lat="46.29704" lon="-0.20465">
        <ele>131</ele>
        <time>2017-10-31T16:10:14Z</time>
      </trkpt>
      <trkpt lat="46.29708" lon="-0.20469">
        <ele>131</ele>
        <time>2017-10-31T16:10:14Z</time>
      </trkpt>
      <trkpt lat="46.29711" lon="-0.20473">
        <ele>115</ele>
        <time>2017-10-31T16:10:14Z</time>
      </trkpt>
      <trkpt lat="46.29714" lon="-0.20478">
        <ele>115</ele>
        <time>2017-10-31T16:10:14Z</time>
      </trkpt>
      <trkpt lat="46.29716" lon="-0.20481">
        <ele>115</ele>
        <time>2017-10-31T16:10:30Z</time>
      </trkpt>
      <trkpt lat="46.29718" lon="-0.20485">
        <ele>115</ele>
        <time>2017-10-31T16:10:30Z</time>
      </trkpt>
      <trkpt lat="46.29722" lon="-0.2049">
        <ele>115</ele>
        <time>2017-10-31T16:10:30Z</time>
      </trkpt>
      <trkpt lat="46.29725" lon="-0.20496">
        <ele>115</ele>
        <time>2017-10-31T16:10:30Z</time>
      </trkpt>
      <trkpt lat="46.29729" lon="-0.20499">
        <ele>115</ele>
        <time>2017-10-31T16:10:46Z</time>
      </trkpt>
      <trkpt lat="46.29732" lon="-0.20503">
        <ele>115</ele>
        <time>2017-10-31T16:10:46Z</time>
      </trkpt>
      <trkpt lat="46.29735" lon="-0.20507">
        <ele>115</ele>
        <time>2017-10-31T16:10:46Z</time>
      </trkpt>
      <trkpt lat="46.29739" lon="-0.20509">
        <ele>115</ele>
        <time>2017-10-31T16:10:46Z</time>
      </trkpt>
      <trkpt lat="46.29741" lon="-0.20512">
        <ele>115</ele>
        <time>2017-10-31T16:11:02Z</time>
      </trkpt>
      <trkpt lat="46.29745" lon="-0.20515">
        <ele>115</ele>
        <time>2017-10-31T16:11:02Z</time>
      </trkpt>
      <trkpt lat="46.29749" lon="-0.20519">
        <ele>115</ele>
        <time>2017-10-31T16:11:02Z</time>
      </trkpt>
      <trkpt lat="46.29752" lon="-0.20521">
        <ele>115</ele>
        <time>2017-10-31T16:11:02Z</time>
      </trkpt>
      <trkpt lat="46.29755" lon="-0.20523">
        <ele>115</ele>
        <time>2017-10-31T16:11:18Z</time>
      </trkpt>
      <trkpt lat="46.2976" lon="-0.20526">
        <ele>115</ele>
        <time>2017-10-31T16:11:18Z</time>
      </trkpt>
      <trkpt lat="46.29764" lon="-0.20528">
        <ele>115</ele>
        <time>2017-10-31T16:11:18Z</time>
      </trkpt>
      <trkpt lat="46.29766" lon="-0.20531">
        <ele>115</ele>
        <time>2017-10-31T16:11:18Z</time>
      </trkpt>
      <trkpt lat="46.29769" lon="-0.20533">
        <ele>115</ele>
        <time>2017-10-31T16:11:34Z</time>
      </trkpt>
      <trkpt lat="46.29773" lon="-0.20536">
        <ele>115</ele>
        <time>2017-10-31T16:11:34Z</time>
      </trkpt>
      <trkpt lat="46.29777" lon="-0.20542">
        <ele>128</ele>
        <time>2017-10-31T16:11:34Z</time>
      </trkpt>
      <trkpt lat="46.29781" lon="-0.20546">
        <ele>128</ele>
        <time>2017-10-31T16:11:34Z</time>
      </trkpt>
      <trkpt lat="46.29783" lon="-0.20551">
        <ele>128</ele>
        <time>2017-10-31T16:11:50Z</time>
      </trkpt>
      <trkpt lat="46.29785" lon="-0.20555">
        <ele>128</ele>
        <time>2017-10-31T16:11:50Z</time>
      </trkpt>
      <trkpt lat="46.29787" lon="-0.20558">
        <ele>128</ele>
        <time>2017-10-31T16:11:50Z</time>
      </trkpt>
      <trkpt lat="46.2979" lon="-0.20563">
        <ele>128</ele>
        <time>2017-10-31T16:11:50Z</time>
      </trkpt>
      <trkpt lat="46.29795" lon="-0.20569">
        <ele>114</ele>
        <time>2017-10-31T16:12:06Z</time>
      </trkpt>
      <trkpt lat="46.29797" lon="-0.20573">
        <ele>114</ele>
        <time>2017-10-31T16:12:06Z</time>
      </trkpt>
      <trkpt lat="46.29801" lon="-0.20579">
        <ele>114</ele>
        <time>2017-10-31T16:12:06Z</time>
      </trkpt>
      <trkpt lat="46.29806" lon="-0.20583">
        <ele>114</ele>
        <time>2017-10-31T16:12:06Z</time>
      </trkpt>
      <trkpt lat="46.29808" lon="-0.20587">
        <ele>114</ele>
        <time>2017-10-31T16:12:22Z</time>
      </trkpt>
      <trkpt lat="46.29811" lon="-0.20591">
        <ele>114</ele>
        <time>2017-10-31T16:12:22Z</time>
      </trkpt>
      <trkpt lat="46.29814" lon="-0.20597">
        <ele>114</ele>
        <time>2017-10-31T16:12:22Z</time>
      </trkpt>
      <trkpt lat="46.29817" lon="-0.20602">
        <ele>114</ele>
        <time>2017-10-31T16:12:22Z</time>
      </trkpt>
      <trkpt lat="46.29821" lon="-0.20606">
        <ele>114</ele>
        <time>2017-10-31T16:12:38Z</time>
      </trkpt>
      <trkpt lat="46.29824" lon="-0.20613">
        <ele>114</ele>
        <time>2017-10-31T16:12:38Z</time>
      </trkpt>
      <trkpt lat="46.29826" lon="-0.20619">
        <ele>114</ele>
        <time>2017-10-31T16:12:38Z</time>
      </trkpt>
      <trkpt lat="46.29827" lon="-0.20624">
        <ele>114</ele>
        <time>2017-10-31T16:12:38Z</time>
      </trkpt>
      <trkpt lat="46.29828" lon="-0.2063">
        <ele>117</ele>
        <time>2017-10-31T16:12:54Z</time>
      </trkpt>
      <trkpt lat="46.2983" lon="-0.20635">
        <ele>117</ele>
        <time>2017-10-31T16:12:54Z</time>
      </trkpt>
      <trkpt lat="46.29832" lon="-0.20641">
        <ele>117</ele>
        <time>2017-10-31T16:12:54Z</time>
      </trkpt>
      <trkpt lat="46.29835" lon="-0.20646">
        <ele>117</ele>
        <time>2017-10-31T16:12:54Z</time>
      </trkpt>
      <trkpt lat="46.29838" lon="-0.2065">
        <ele>117</ele>
        <time>2017-10-31T16:13:10Z</time>
      </trkpt>
      <trkpt lat="46.29839" lon="-0.20655">
        <ele>117</ele>
        <time>2017-10-31T16:13:10Z</time>
      </trkpt>
      <trkpt lat="46.29842" lon="-0.2066">
        <ele>117</ele>
        <time>2017-10-31T16:13:10Z</time>
      </trkpt>
      <trkpt lat="46.29843" lon="-0.20665">
        <ele>117</ele>
        <time>2017-10-31T16:13:10Z</time>
      </trkpt>
      <trkpt lat="46.29844" lon="-0.20672">
        <ele>117</ele>
        <time>2017-10-31T16:14:42Z</time>
      </trkpt>
      <trkpt lat="46.29844" lon="-0.20673">
        <ele>117</ele>
        <time>2017-10-31T16:14:42Z</time>
      </trkpt>
      <trkpt lat="46.29843" lon="-0.20677">
        <ele>117</ele>
        <time>2017-10-31T16:14:42Z</time>
      </trkpt>
      <trkpt lat="46.29841" lon="-0.20679">
        <ele>117</ele>
        <time>2017-10-31T16:14:42Z</time>
      </trkpt>
      <trkpt lat="46.29841" lon="-0.20682">
        <ele>117</ele>
        <time>2017-10-31T16:14:42Z</time>
      </trkpt>
      <trkpt lat="46.2984" lon="-0.20686">
        <ele>117</ele>
        <time>2017-10-31T16:14:58Z</time>
      </trkpt>
      <trkpt lat="46.29841" lon="-0.2069">
        <ele>117</ele>
        <time>2017-10-31T16:14:58Z</time>
      </trkpt>
      <trkpt lat="46.29841" lon="-0.20695">
        <ele>117</ele>
        <time>2017-10-31T16:14:58Z</time>
      </trkpt>
      <trkpt lat="46.29843" lon="-0.207">
        <ele>117</ele>
        <time>2017-10-31T16:14:58Z</time>
      </trkpt>
      <trkpt lat="46.29846" lon="-0.20704">
        <ele>117</ele>
        <time>2017-10-31T16:15:14Z</time>
      </trkpt>
      <trkpt lat="46.29848" lon="-0.20708">
        <ele>117</ele>
        <time>2017-10-31T16:15:14Z</time>
      </trkpt>
      <trkpt lat="46.29849" lon="-0.20713">
        <ele>121</ele>
        <time>2017-10-31T16:15:14Z</time>
      </trkpt>
      <trkpt lat="46.29851" lon="-0.20717">
        <ele>121</ele>
        <time>2017-10-31T16:15:14Z</time>
      </trkpt>
      <trkpt lat="46.29853" lon="-0.2072">
        <ele>121</ele>
        <time>2017-10-31T16:15:34Z</time>
      </trkpt>
      <trkpt lat="46.29856" lon="-0.20722">
        <ele>121</ele>
        <time>2017-10-31T16:15:34Z</time>
      </trkpt>
      <trkpt lat="46.29858" lon="-0.2072">
        <ele>121</ele>
        <time>2017-10-31T16:15:34Z</time>
      </trkpt>
      <trkpt lat="46.2986" lon="-0.20718">
        <ele>121</ele>
        <time>2017-10-31T16:15:34Z</time>
      </trkpt>
      <trkpt lat="46.29863" lon="-0.20716">
        <ele>121</ele>
        <time>2017-10-31T16:15:34Z</time>
      </trkpt>
      <trkpt lat="46.29866" lon="-0.20715">
        <ele>121</ele>
        <time>2017-10-31T16:15:54Z</time>
      </trkpt>
      <trkpt lat="46.29869" lon="-0.20714">
        <ele>121</ele>
        <time>2017-10-31T16:15:54Z</time>
      </trkpt>
      <trkpt lat="46.29871" lon="-0.20715">
        <ele>121</ele>
        <time>2017-10-31T16:15:54Z</time>
      </trkpt>
      <trkpt lat="46.29875" lon="-0.20714">
        <ele>121</ele>
        <time>2017-10-31T16:15:54Z</time>
      </trkpt>
      <trkpt lat="46.29876" lon="-0.20714">
        <ele>110</ele>
        <time>2017-10-31T16:15:54Z</time>
      </trkpt>
      <trkpt lat="46.29877" lon="-0.20714">
        <ele>110</ele>
        <time>2017-10-31T16:16:30Z</time>
      </trkpt>
      <trkpt lat="46.2988" lon="-0.20717">
        <ele>110</ele>
        <time>2017-10-31T16:16:30Z</time>
      </trkpt>
      <trkpt lat="46.2988" lon="-0.20717">
        <ele>110</ele>
        <time>2017-10-31T16:16:30Z</time>
      </trkpt>
      <trkpt lat="46.29884" lon="-0.2072">
        <ele>110</ele>
        <time>2017-10-31T16:16:30Z</time>
      </trkpt>
      <trkpt lat="46.29884" lon="-0.20723">
        <ele>110</ele>
        <time>2017-10-31T16:16:30Z</time>
      </trkpt>
      <trkpt lat="46.29884" lon="-0.20723">
        <ele>110</ele>
        <time>2017-10-31T16:17:30Z</time>
      </trkpt>
      <trkpt lat="46.29884" lon="-0.20723">
        <ele>110</ele>
        <time>2017-10-31T16:17:30Z</time>
      </trkpt>
      <trkpt lat="46.29885" lon="-0.20728">
        <ele>110</ele>
        <time>2017-10-31T16:17:30Z</time>
      </trkpt>
      <trkpt lat="46.29887" lon="-0.20732">
        <ele>110</ele>
        <time>2017-10-31T16:17:30Z</time>
      </trkpt>
      <trkpt lat="46.2989" lon="-0.20735">
        <ele>110</ele>
        <time>2017-10-31T16:17:30Z</time>
      </trkpt>
      <trkpt lat="46.29896" lon="-0.20737">
        <ele>110</ele>
        <time>2017-10-31T16:18:38Z</time>
      </trkpt>
      <trkpt lat="46.29897" lon="-0.20738">
        <ele>110</ele>
        <time>2017-10-31T16:18:38Z</time>
      </trkpt>
      <trkpt lat="46.29899" lon="-0.2074">
        <ele>110</ele>
        <time>2017-10-31T16:18:38Z</time>
      </trkpt>
      <trkpt lat="46.299" lon="-0.2074">
        <ele>110</ele>
        <time>2017-10-31T16:18:38Z</time>
      </trkpt>
      <trkpt lat="46.29904" lon="-0.20741">
        <ele>110</ele>
        <time>2017-10-31T16:18:38Z</time>
      </trkpt>
      <trkpt lat="46.29904" lon="-0.20738">
        <ele>110</ele>
        <time>2017-10-31T16:19:18Z</time>
      </trkpt>
      <trkpt lat="46.29905" lon="-0.20739">
        <ele>110</ele>
        <time>2017-10-31T16:19:18Z</time>
      </trkpt>
      <trkpt lat="46.29907" lon="-0.2074">
        <ele>110</ele>
        <time>2017-10-31T16:19:18Z</time>
      </trkpt>
      <trkpt lat="46.29909" lon="-0.2074">
        <ele>110</ele>
        <time>2017-10-31T16:19:18Z</time>
      </trkpt>
      <trkpt lat="46.29912" lon="-0.2074">
        <ele>110</ele>
        <time>2017-10-31T16:19:18Z</time>
      </trkpt>
      <trkpt lat="46.29915" lon="-0.20742">
        <ele>110</ele>
        <time>2017-10-31T16:22:30Z</time>
      </trkpt>
      <trkpt lat="46.29919" lon="-0.20739">
        <ele>110</ele>
        <time>2017-10-31T16:22:30Z</time>
      </trkpt>
      <trkpt lat="46.29921" lon="-0.20737">
        <ele>110</ele>
        <time>2017-10-31T16:22:30Z</time>
      </trkpt>
      <trkpt lat="46.29923" lon="-0.20741">
        <ele>110</ele>
        <time>2017-10-31T16:22:30Z</time>
      </trkpt>
      <trkpt lat="46.29925" lon="-0.20741">
        <ele>110</ele>
        <time>2017-10-31T16:22:30Z</time>
      </trkpt>
      <trkpt lat="46.29928" lon="-0.20741">
        <ele>110</ele>
        <time>2017-10-31T16:22:46Z</time>
      </trkpt>
      <trkpt lat="46.29931" lon="-0.20741">
        <ele>110</ele>
        <time>2017-10-31T16:22:46Z</time>
      </trkpt>
      <trkpt lat="46.29935" lon="-0.20741">
        <ele>110</ele>
        <time>2017-10-31T16:22:46Z</time>
      </trkpt>
      <trkpt lat="46.29938" lon="-0.20741">
        <ele>110</ele>
        <time>2017-10-31T16:22:46Z</time>
      </trkpt>
      <trkpt lat="46.29942" lon="-0.20742">
        <ele>110</ele>
        <time>2017-10-31T16:23:02Z</time>
      </trkpt>
      <trkpt lat="46.29946" lon="-0.20743">
        <ele>110</ele>
        <time>2017-10-31T16:23:02Z</time>
      </trkpt>
      <trkpt lat="46.2995" lon="-0.20744">
        <ele>110</ele>
        <time>2017-10-31T16:23:02Z</time>
      </trkpt>
      <trkpt lat="46.29954" lon="-0.20744">
        <ele>110</ele>
        <time>2017-10-31T16:23:02Z</time>
      </trkpt>
      <trkpt lat="46.29958" lon="-0.20744">
        <ele>110</ele>
        <time>2017-10-31T16:23:18Z</time>
      </trkpt>
      <trkpt lat="46.29962" lon="-0.20745">
        <ele>113</ele>
        <time>2017-10-31T16:23:18Z</time>
      </trkpt>
      <trkpt lat="46.29966" lon="-0.20746">
        <ele>113</ele>
        <time>2017-10-31T16:23:18Z</time>
      </trkpt>
      <trkpt lat="46.29971" lon="-0.20745">
        <ele>113</ele>
        <time>2017-10-31T16:23:18Z</time>
      </trkpt>
      <trkpt lat="46.29975" lon="-0.20744">
        <ele>113</ele>
        <time>2017-10-31T16:23:34Z</time>
      </trkpt>
      <trkpt lat="46.29978" lon="-0.20746">
        <ele>113</ele>
        <time>2017-10-31T16:23:34Z</time>
      </trkpt>
      <trkpt lat="46.29982" lon="-0.20748">
        <ele>113</ele>
        <time>2017-10-31T16:23:34Z</time>
      </trkpt>
      <trkpt lat="46.29985" lon="-0.20748">
        <ele>113</ele>
        <time>2017-10-31T16:23:34Z</time>
      </trkpt>
      <trkpt lat="46.29988" lon="-0.20748">
        <ele>113</ele>
        <time>2017-10-31T16:23:50Z</time>
      </trkpt>
      <trkpt lat="46.29993" lon="-0.20747">
        <ele>113</ele>
        <time>2017-10-31T16:23:50Z</time>
      </trkpt>
      <trkpt lat="46.29996" lon="-0.20747">
        <ele>113</ele>
        <time>2017-10-31T16:23:50Z</time>
      </trkpt>
      <trkpt lat="46.29999" lon="-0.20746">
        <ele>113</ele>
        <time>2017-10-31T16:23:50Z</time>
      </trkpt>
      <trkpt lat="46.30003" lon="-0.20746">
        <ele>113</ele>
        <time>2017-10-31T16:24:06Z</time>
      </trkpt>
      <trkpt lat="46.30009" lon="-0.20746">
        <ele>113</ele>
        <time>2017-10-31T16:24:06Z</time>
      </trkpt>
      <trkpt lat="46.30014" lon="-0.20746">
        <ele>113</ele>
        <time>2017-10-31T16:24:06Z</time>
      </trkpt>
      <trkpt lat="46.30019" lon="-0.20746">
        <ele>113</ele>
        <time>2017-10-31T16:24:06Z</time>
      </trkpt>
      <trkpt lat="46.30023" lon="-0.20746">
        <ele>113</ele>
        <time>2017-10-31T16:24:22Z</time>
      </trkpt>
      <trkpt lat="46.30026" lon="-0.20744">
        <ele>113</ele>
        <time>2017-10-31T16:24:22Z</time>
      </trkpt>
      <trkpt lat="46.30028" lon="-0.20743">
        <ele>113</ele>
        <time>2017-10-31T16:24:22Z</time>
      </trkpt>
      <trkpt lat="46.30032" lon="-0.20742">
        <ele>113</ele>
        <time>2017-10-31T16:24:22Z</time>
      </trkpt>
      <trkpt lat="46.30039" lon="-0.20741">
        <ele>113</ele>
        <time>2017-10-31T16:24:46Z</time>
      </trkpt>
      <trkpt lat="46.3004" lon="-0.20743">
        <ele>113</ele>
        <time>2017-10-31T16:24:46Z</time>
      </trkpt>
      <trkpt lat="46.30041" lon="-0.20744">
        <ele>113</ele>
        <time>2017-10-31T16:24:46Z</time>
      </trkpt>
      <trkpt lat="46.30041" lon="-0.20748">
        <ele>113</ele>
        <time>2017-10-31T16:24:46Z</time>
      </trkpt>
      <trkpt lat="46.30042" lon="-0.20752">
        <ele>122</ele>
        <time>2017-10-31T16:24:46Z</time>
      </trkpt>
      <trkpt lat="46.30044" lon="-0.20754">
        <ele>122</ele>
        <time>2017-10-31T16:25:06Z</time>
      </trkpt>
      <trkpt lat="46.30045" lon="-0.20757">
        <ele>122</ele>
        <time>2017-10-31T16:25:06Z</time>
      </trkpt>
      <trkpt lat="46.30047" lon="-0.20758">
        <ele>122</ele>
        <time>2017-10-31T16:25:06Z</time>
      </trkpt>
      <trkpt lat="46.30049" lon="-0.2076">
        <ele>122</ele>
        <time>2017-10-31T16:25:06Z</time>
      </trkpt>
      <trkpt lat="46.30052" lon="-0.20761">
        <ele>122</ele>
        <time>2017-10-31T16:25:06Z</time>
      </trkpt>
      <trkpt lat="46.30056" lon="-0.20763">
        <ele>122</ele>
        <time>2017-10-31T16:25:22Z</time>
      </trkpt>
      <trkpt lat="46.30058" lon="-0.20765">
        <ele>122</ele>
        <time>2017-10-31T16:25:22Z</time>
      </trkpt>
      <trkpt lat="46.30061" lon="-0.20767">
        <ele>122</ele>
        <time>2017-10-31T16:25:22Z</time>
      </trkpt>
      <trkpt lat="46.30064" lon="-0.2077">
        <ele>122</ele>
        <time>2017-10-31T16:25:22Z</time>
      </trkpt>
      <trkpt lat="46.30068" lon="-0.20773">
        <ele>122</ele>
        <time>2017-10-31T16:25:38Z</time>
      </trkpt>
      <trkpt lat="46.30071" lon="-0.20777">
        <ele>122</ele>
        <time>2017-10-31T16:25:38Z</time>
      </trkpt>
      <trkpt lat="46.30073" lon="-0.2078">
        <ele>122</ele>
        <time>2017-10-31T16:25:38Z</time>
      </trkpt>
      <trkpt lat="46.30075" lon="-0.20784">
        <ele>122</ele>
        <time>2017-10-31T16:25:38Z</time>
      </trkpt>
      <trkpt lat="46.30077" lon="-0.20789">
        <ele>122</ele>
        <time>2017-10-31T16:25:54Z</time>
      </trkpt>
      <trkpt lat="46.30078" lon="-0.20794">
        <ele>125</ele>
        <time>2017-10-31T16:25:54Z</time>
      </trkpt>
      <trkpt lat="46.3008" lon="-0.20797">
        <ele>125</ele>
        <time>2017-10-31T16:25:54Z</time>
      </trkpt>
      <trkpt lat="46.30081" lon="-0.20803">
        <ele>125</ele>
        <time>2017-10-31T16:25:54Z</time>
      </trkpt>
      <trkpt lat="46.30082" lon="-0.20808">
        <ele>125</ele>
        <time>2017-10-31T16:26:14Z</time>
      </trkpt>
      <trkpt lat="46.30083" lon="-0.2081">
        <ele>125</ele>
        <time>2017-10-31T16:26:14Z</time>
      </trkpt>
      <trkpt lat="46.30083" lon="-0.20811">
        <ele>125</ele>
        <time>2017-10-31T16:26:14Z</time>
      </trkpt>
      <trkpt lat="46.30083" lon="-0.20818">
        <ele>125</ele>
        <time>2017-10-31T16:26:14Z</time>
      </trkpt>
      <trkpt lat="46.30083" lon="-0.20823">
        <ele>125</ele>
        <time>2017-10-31T16:26:14Z</time>
      </trkpt>
      <trkpt lat="46.30082" lon="-0.20828">
        <ele>125</ele>
        <time>2017-10-31T16:26:30Z</time>
      </trkpt>
      <trkpt lat="46.30081" lon="-0.20832">
        <ele>125</ele>
        <time>2017-10-31T16:26:30Z</time>
      </trkpt>
      <trkpt lat="46.30078" lon="-0.2084">
        <ele>125</ele>
        <time>2017-10-31T16:26:30Z</time>
      </trkpt>
      <trkpt lat="46.30074" lon="-0.20849">
        <ele>125</ele>
        <time>2017-10-31T16:26:30Z</time>
      </trkpt>
      <trkpt lat="46.30072" lon="-0.20855">
        <ele>125</ele>
        <time>2017-10-31T16:26:46Z</time>
      </trkpt>
      <trkpt lat="46.30071" lon="-0.20859">
        <ele>125</ele>
        <time>2017-10-31T16:26:46Z</time>
      </trkpt>
      <trkpt lat="46.30069" lon="-0.20863">
        <ele>125</ele>
        <time>2017-10-31T16:26:46Z</time>
      </trkpt>
      <trkpt lat="46.30067" lon="-0.2087">
        <ele>125</ele>
        <time>2017-10-31T16:26:46Z</time>
      </trkpt>
      <trkpt lat="46.30066" lon="-0.20874">
        <ele>125</ele>
        <time>2017-10-31T16:27:06Z</time>
      </trkpt>
      <trkpt lat="46.30065" lon="-0.20877">
        <ele>128</ele>
        <time>2017-10-31T16:27:06Z</time>
      </trkpt>
      <trkpt lat="46.30065" lon="-0.20882">
        <ele>128</ele>
        <time>2017-10-31T16:27:06Z</time>
      </trkpt>
      <trkpt lat="46.30065" lon="-0.20885">
        <ele>128</ele>
        <time>2017-10-31T16:27:06Z</time>
      </trkpt>
      <trkpt lat="46.30065" lon="-0.20888">
        <ele>128</ele>
        <time>2017-10-31T16:27:06Z</time>
      </trkpt>
      <trkpt lat="46.30065" lon="-0.2089">
        <ele>128</ele>
        <time>2017-10-31T16:27:26Z</time>
      </trkpt>
      <trkpt lat="46.30065" lon="-0.20903">
        <ele>128</ele>
        <time>2017-10-31T16:27:26Z</time>
      </trkpt>
      <trkpt lat="46.30065" lon="-0.20907">
        <ele>128</ele>
        <time>2017-10-31T16:27:26Z</time>
      </trkpt>
      <trkpt lat="46.30065" lon="-0.20909">
        <ele>128</ele>
        <time>2017-10-31T16:27:26Z</time>
      </trkpt>
    </trkseg>
  </trk>
</gpx>